<?xml version="1.0" encoding="UTF-8" standalone="no" ?>
<gpx xmlns="http://www.topografix.com/GPX/1/1" xmlns:xsi="http://www.w3.org/2001/XMLSchema-instance" xsi:schemaLocation="http://www.topografix.com/GPX/1/1 http://www.topografix.com/GPX/1/1/gpx.xsd" version="1.1" creator="VisuGPX - https://www.visugpx.com">
  <metadata>
    <name>Col de Pavezin - Chavanay - Col de l\\\'Oeillon</name>
    <desc><![CDATA[Départ du col de Pavezin pour faire le Col de l\'Oeillon depuis Chavanay]]></desc>
  </metadata>
  <trk>
    <name><![CDATA[Col de l'Oeillon]]></name>
    <trkseg>
      <trkpt lat="45.46442" lon="4.67838">
        <ele>655.27587890625</ele>
        <time>2011-08-06T07:00:15Z</time>
      </trkpt>
      <trkpt lat="45.46428" lon="4.67855">
        <ele>655.27587890625</ele>
        <time>2011-08-06T07:00:21Z</time>
      </trkpt>
      <trkpt lat="45.46403" lon="4.6788">
        <ele>656.23706054688</ele>
        <time>2011-08-06T07:00:27Z</time>
      </trkpt>
      <trkpt lat="45.46367" lon="4.67915">
        <ele>657.19848632812</ele>
        <time>2011-08-06T07:00:34Z</time>
      </trkpt>
      <trkpt lat="45.46341" lon="4.67945">
        <ele>657.19848632812</ele>
        <time>2011-08-06T07:00:39Z</time>
      </trkpt>
      <trkpt lat="45.46305" lon="4.67979">
        <ele>655.75659179688</ele>
        <time>2011-08-06T07:00:45Z</time>
      </trkpt>
      <trkpt lat="45.46298" lon="4.67984">
        <ele>656.23706054688</ele>
        <time>2011-08-06T07:00:46Z</time>
      </trkpt>
      <trkpt lat="45.46255" lon="4.68014">
        <ele>653.833984375</ele>
        <time>2011-08-06T07:00:52Z</time>
      </trkpt>
      <trkpt lat="45.46234" lon="4.68034">
        <ele>655.27587890625</ele>
        <time>2011-08-06T07:00:55Z</time>
      </trkpt>
      <trkpt lat="45.46202" lon="4.68084">
        <ele>657.19848632812</ele>
        <time>2011-08-06T07:01:01Z</time>
      </trkpt>
      <trkpt lat="45.46171" lon="4.6814">
        <ele>658.64038085938</ele>
        <time>2011-08-06T07:01:07Z</time>
      </trkpt>
      <trkpt lat="45.46151" lon="4.68178">
        <ele>656.7177734375</ele>
        <time>2011-08-06T07:01:11Z</time>
      </trkpt>
      <trkpt lat="45.4614" lon="4.68195">
        <ele>656.23706054688</ele>
        <time>2011-08-06T07:01:13Z</time>
      </trkpt>
      <trkpt lat="45.46111" lon="4.68219">
        <ele>654.79516601562</ele>
        <time>2011-08-06T07:01:17Z</time>
      </trkpt>
      <trkpt lat="45.46047" lon="4.6825">
        <ele>646.6240234375</ele>
        <time>2011-08-06T07:01:25Z</time>
      </trkpt>
      <trkpt lat="45.4601" lon="4.68275">
        <ele>640.85595703125</ele>
        <time>2011-08-06T07:01:30Z</time>
      </trkpt>
      <trkpt lat="45.4598" lon="4.68294">
        <ele>637.0107421875</ele>
        <time>2011-08-06T07:01:34Z</time>
      </trkpt>
      <trkpt lat="45.45948" lon="4.68303">
        <ele>632.2041015625</ele>
        <time>2011-08-06T07:01:38Z</time>
      </trkpt>
      <trkpt lat="45.459" lon="4.68305">
        <ele>625.47485351562</ele>
        <time>2011-08-06T07:01:44Z</time>
      </trkpt>
      <trkpt lat="45.45869" lon="4.68321">
        <ele>625.47485351562</ele>
        <time>2011-08-06T07:01:48Z</time>
      </trkpt>
      <trkpt lat="45.45842" lon="4.68347">
        <ele>627.39770507812</ele>
        <time>2011-08-06T07:01:52Z</time>
      </trkpt>
      <trkpt lat="45.45786" lon="4.6838">
        <ele>627.39770507812</ele>
        <time>2011-08-06T07:01:59Z</time>
      </trkpt>
      <trkpt lat="45.45742" lon="4.68388">
        <ele>628.83959960938</ele>
        <time>2011-08-06T07:02:04Z</time>
      </trkpt>
      <trkpt lat="45.45697" lon="4.68384">
        <ele>629.32006835938</ele>
        <time>2011-08-06T07:02:09Z</time>
      </trkpt>
      <trkpt lat="45.45688" lon="4.68381">
        <ele>629.80078125</ele>
        <time>2011-08-06T07:02:10Z</time>
      </trkpt>
      <trkpt lat="45.45657" lon="4.68357">
        <ele>630.28149414062</ele>
        <time>2011-08-06T07:02:14Z</time>
      </trkpt>
      <trkpt lat="45.45609" lon="4.68308">
        <ele>628.83959960938</ele>
        <time>2011-08-06T07:02:21Z</time>
      </trkpt>
      <trkpt lat="45.4557" lon="4.68261">
        <ele>629.32006835938</ele>
        <time>2011-08-06T07:02:27Z</time>
      </trkpt>
      <trkpt lat="45.45533" lon="4.68233">
        <ele>627.39770507812</ele>
        <time>2011-08-06T07:02:32Z</time>
      </trkpt>
      <trkpt lat="45.45485" lon="4.68211">
        <ele>626.43627929688</ele>
        <time>2011-08-06T07:02:38Z</time>
      </trkpt>
      <trkpt lat="45.45399" lon="4.68186">
        <ele>623.07177734375</ele>
        <time>2011-08-06T07:02:48Z</time>
      </trkpt>
      <trkpt lat="45.45357" lon="4.68162">
        <ele>621.62963867188</ele>
        <time>2011-08-06T07:02:53Z</time>
      </trkpt>
      <trkpt lat="45.45334" lon="4.68144">
        <ele>621.14916992188</ele>
        <time>2011-08-06T07:02:56Z</time>
      </trkpt>
      <trkpt lat="45.45299" lon="4.68141">
        <ele>620.18774414062</ele>
        <time>2011-08-06T07:03:00Z</time>
      </trkpt>
      <trkpt lat="45.45277" lon="4.68162">
        <ele>618.26489257812</ele>
        <time>2011-08-06T07:03:03Z</time>
      </trkpt>
      <trkpt lat="45.45271" lon="4.68172">
        <ele>618.26489257812</ele>
        <time>2011-08-06T07:03:04Z</time>
      </trkpt>
      <trkpt lat="45.45234" lon="4.68249">
        <ele>624.03295898438</ele>
        <time>2011-08-06T07:03:11Z</time>
      </trkpt>
      <trkpt lat="45.45206" lon="4.68281">
        <ele>624.513671875</ele>
        <time>2011-08-06T07:03:15Z</time>
      </trkpt>
      <trkpt lat="45.4518" lon="4.68287">
        <ele>622.59106445312</ele>
        <time>2011-08-06T07:03:18Z</time>
      </trkpt>
      <trkpt lat="45.45154" lon="4.68278">
        <ele>621.62963867188</ele>
        <time>2011-08-06T07:03:21Z</time>
      </trkpt>
      <trkpt lat="45.45129" lon="4.68265">
        <ele>620.18774414062</ele>
        <time>2011-08-06T07:03:24Z</time>
      </trkpt>
      <trkpt lat="45.45087" lon="4.68256">
        <ele>618.74560546875</ele>
        <time>2011-08-06T07:03:29Z</time>
      </trkpt>
      <trkpt lat="45.45065" lon="4.68269">
        <ele>616.82299804688</ele>
        <time>2011-08-06T07:03:32Z</time>
      </trkpt>
      <trkpt lat="45.45058" lon="4.68277">
        <ele>616.34228515625</ele>
        <time>2011-08-06T07:03:33Z</time>
      </trkpt>
      <trkpt lat="45.45039" lon="4.68299">
        <ele>616.34228515625</ele>
        <time>2011-08-06T07:03:36Z</time>
      </trkpt>
      <trkpt lat="45.45007" lon="4.68317">
        <ele>615.38110351562</ele>
        <time>2011-08-06T07:03:40Z</time>
      </trkpt>
      <trkpt lat="45.44973" lon="4.68313">
        <ele>614.41967773438</ele>
        <time>2011-08-06T07:03:44Z</time>
      </trkpt>
      <trkpt lat="45.44965" lon="4.68309">
        <ele>613.93896484375</ele>
        <time>2011-08-06T07:03:45Z</time>
      </trkpt>
      <trkpt lat="45.4492" lon="4.68278">
        <ele>612.0166015625</ele>
        <time>2011-08-06T07:03:51Z</time>
      </trkpt>
      <trkpt lat="45.44897" lon="4.68246">
        <ele>611.05517578125</ele>
        <time>2011-08-06T07:03:55Z</time>
      </trkpt>
      <trkpt lat="45.4487" lon="4.68186">
        <ele>609.61328125</ele>
        <time>2011-08-06T07:04:01Z</time>
      </trkpt>
      <trkpt lat="45.44833" lon="4.68101">
        <ele>608.17138671875</ele>
        <time>2011-08-06T07:04:09Z</time>
      </trkpt>
      <trkpt lat="45.4479" lon="4.67992">
        <ele>606.24853515625</ele>
        <time>2011-08-06T07:04:19Z</time>
      </trkpt>
      <trkpt lat="45.44755" lon="4.67921">
        <ele>605.28735351562</ele>
        <time>2011-08-06T07:04:26Z</time>
      </trkpt>
      <trkpt lat="45.44728" lon="4.67859">
        <ele>604.806640625</ele>
        <time>2011-08-06T07:04:32Z</time>
      </trkpt>
      <trkpt lat="45.44709" lon="4.6779">
        <ele>602.8837890625</ele>
        <time>2011-08-06T07:04:38Z</time>
      </trkpt>
      <trkpt lat="45.4468" lon="4.67688">
        <ele>601.92260742188</ele>
        <time>2011-08-06T07:04:47Z</time>
      </trkpt>
      <trkpt lat="45.44657" lon="4.67636">
        <ele>601.44189453125</ele>
        <time>2011-08-06T07:04:52Z</time>
      </trkpt>
      <trkpt lat="45.44616" lon="4.67575">
        <ele>600.48071289062</ele>
        <time>2011-08-06T07:04:59Z</time>
      </trkpt>
      <trkpt lat="45.4459" lon="4.67526">
        <ele>599.51928710938</ele>
        <time>2011-08-06T07:05:04Z</time>
      </trkpt>
      <trkpt lat="45.44556" lon="4.67451">
        <ele>598.07739257812</ele>
        <time>2011-08-06T07:05:11Z</time>
      </trkpt>
      <trkpt lat="45.44543" lon="4.67404">
        <ele>597.11596679688</ele>
        <time>2011-08-06T07:05:15Z</time>
      </trkpt>
      <trkpt lat="45.44518" lon="4.67353">
        <ele>595.67407226562</ele>
        <time>2011-08-06T07:05:20Z</time>
      </trkpt>
      <trkpt lat="45.44486" lon="4.67292">
        <ele>594.23217773438</ele>
        <time>2011-08-06T07:05:26Z</time>
      </trkpt>
      <trkpt lat="45.44455" lon="4.67229">
        <ele>593.27075195312</ele>
        <time>2011-08-06T07:05:32Z</time>
      </trkpt>
      <trkpt lat="45.44425" lon="4.67202">
        <ele>592.79028320312</ele>
        <time>2011-08-06T07:05:36Z</time>
      </trkpt>
      <trkpt lat="45.44408" lon="4.67197">
        <ele>592.3095703125</ele>
        <time>2011-08-06T07:05:38Z</time>
      </trkpt>
      <trkpt lat="45.44363" lon="4.67186">
        <ele>591.82885742188</ele>
        <time>2011-08-06T07:05:43Z</time>
      </trkpt>
      <trkpt lat="45.44305" lon="4.6715">
        <ele>590.38696289062</ele>
        <time>2011-08-06T07:05:50Z</time>
      </trkpt>
      <trkpt lat="45.4427" lon="4.67139">
        <ele>589.42553710938</ele>
        <time>2011-08-06T07:05:54Z</time>
      </trkpt>
      <trkpt lat="45.44199" lon="4.67133">
        <ele>587.50268554688</ele>
        <time>2011-08-06T07:06:02Z</time>
      </trkpt>
      <trkpt lat="45.44173" lon="4.67127">
        <ele>587.02197265625</ele>
        <time>2011-08-06T07:06:05Z</time>
      </trkpt>
      <trkpt lat="45.44148" lon="4.67113">
        <ele>586.06079101562</ele>
        <time>2011-08-06T07:06:08Z</time>
      </trkpt>
      <trkpt lat="45.44119" lon="4.67082">
        <ele>585.099609375</ele>
        <time>2011-08-06T07:06:12Z</time>
      </trkpt>
      <trkpt lat="45.44087" lon="4.67023">
        <ele>584.13818359375</ele>
        <time>2011-08-06T07:06:18Z</time>
      </trkpt>
      <trkpt lat="45.44049" lon="4.66924">
        <ele>581.25439453125</ele>
        <time>2011-08-06T07:06:27Z</time>
      </trkpt>
      <trkpt lat="45.4403" lon="4.66855">
        <ele>579.81225585938</ele>
        <time>2011-08-06T07:06:33Z</time>
      </trkpt>
      <trkpt lat="45.44027" lon="4.66792">
        <ele>579.33154296875</ele>
        <time>2011-08-06T07:06:38Z</time>
      </trkpt>
      <trkpt lat="45.44025" lon="4.66655">
        <ele>577.8896484375</ele>
        <time>2011-08-06T07:06:49Z</time>
      </trkpt>
      <trkpt lat="45.44023" lon="4.66545">
        <ele>576.44775390625</ele>
        <time>2011-08-06T07:06:58Z</time>
      </trkpt>
      <trkpt lat="45.44022" lon="4.66532">
        <ele>576.44775390625</ele>
        <time>2011-08-06T07:06:59Z</time>
      </trkpt>
      <trkpt lat="45.44011" lon="4.66486">
        <ele>575.96704101562</ele>
        <time>2011-08-06T07:07:03Z</time>
      </trkpt>
      <trkpt lat="45.43982" lon="4.66427">
        <ele>575.486328125</ele>
        <time>2011-08-06T07:07:09Z</time>
      </trkpt>
      <trkpt lat="45.43933" lon="4.66343">
        <ele>573.08325195312</ele>
        <time>2011-08-06T07:07:18Z</time>
      </trkpt>
      <trkpt lat="45.43921" lon="4.66299">
        <ele>572.12182617188</ele>
        <time>2011-08-06T07:07:22Z</time>
      </trkpt>
      <trkpt lat="45.43918" lon="4.66239">
        <ele>571.16040039062</ele>
        <time>2011-08-06T07:07:27Z</time>
      </trkpt>
      <trkpt lat="45.43926" lon="4.66191">
        <ele>570.19897460938</ele>
        <time>2011-08-06T07:07:31Z</time>
      </trkpt>
      <trkpt lat="45.43948" lon="4.66139">
        <ele>570.19897460938</ele>
        <time>2011-08-06T07:07:36Z</time>
      </trkpt>
      <trkpt lat="45.43967" lon="4.66114">
        <ele>569.71850585938</ele>
        <time>2011-08-06T07:07:39Z</time>
      </trkpt>
      <trkpt lat="45.44006" lon="4.66087">
        <ele>568.75708007812</ele>
        <time>2011-08-06T07:07:44Z</time>
      </trkpt>
      <trkpt lat="45.44032" lon="4.6608">
        <ele>568.75708007812</ele>
        <time>2011-08-06T07:07:47Z</time>
      </trkpt>
      <trkpt lat="45.44057" lon="4.66076">
        <ele>567.79565429688</ele>
        <time>2011-08-06T07:07:50Z</time>
      </trkpt>
      <trkpt lat="45.44088" lon="4.66055">
        <ele>566.83447265625</ele>
        <time>2011-08-06T07:07:54Z</time>
      </trkpt>
      <trkpt lat="45.44103" lon="4.66024">
        <ele>565.87329101562</ele>
        <time>2011-08-06T07:07:57Z</time>
      </trkpt>
      <trkpt lat="45.44107" lon="4.65988">
        <ele>564.91186523438</ele>
        <time>2011-08-06T07:08:00Z</time>
      </trkpt>
      <trkpt lat="45.44107" lon="4.65975">
        <ele>564.43115234375</ele>
        <time>2011-08-06T07:08:01Z</time>
      </trkpt>
      <trkpt lat="45.44096" lon="4.65888">
        <ele>562.50854492188</ele>
        <time>2011-08-06T07:08:08Z</time>
      </trkpt>
      <trkpt lat="45.44082" lon="4.65817">
        <ele>561.06665039062</ele>
        <time>2011-08-06T07:08:14Z</time>
      </trkpt>
      <trkpt lat="45.44058" lon="4.65766">
        <ele>561.06665039062</ele>
        <time>2011-08-06T07:08:19Z</time>
      </trkpt>
      <trkpt lat="45.44017" lon="4.65692">
        <ele>560.5859375</ele>
        <time>2011-08-06T07:08:27Z</time>
      </trkpt>
      <trkpt lat="45.43979" lon="4.65617">
        <ele>559.62475585938</ele>
        <time>2011-08-06T07:08:35Z</time>
      </trkpt>
      <trkpt lat="45.43948" lon="4.65548">
        <ele>559.14404296875</ele>
        <time>2011-08-06T07:08:42Z</time>
      </trkpt>
      <trkpt lat="45.43921" lon="4.65504">
        <ele>558.18286132812</ele>
        <time>2011-08-06T07:08:47Z</time>
      </trkpt>
      <trkpt lat="45.43911" lon="4.65485">
        <ele>558.18286132812</ele>
        <time>2011-08-06T07:08:49Z</time>
      </trkpt>
      <trkpt lat="45.43898" lon="4.65429">
        <ele>557.7021484375</ele>
        <time>2011-08-06T07:08:54Z</time>
      </trkpt>
      <trkpt lat="45.43898" lon="4.65417">
        <ele>557.7021484375</ele>
        <time>2011-08-06T07:08:55Z</time>
      </trkpt>
      <trkpt lat="45.43903" lon="4.65332">
        <ele>557.7021484375</ele>
        <time>2011-08-06T07:09:02Z</time>
      </trkpt>
      <trkpt lat="45.43891" lon="4.6529">
        <ele>557.22143554688</ele>
        <time>2011-08-06T07:09:06Z</time>
      </trkpt>
      <trkpt lat="45.43873" lon="4.65267">
        <ele>556.74072265625</ele>
        <time>2011-08-06T07:09:09Z</time>
      </trkpt>
      <trkpt lat="45.43813" lon="4.65208">
        <ele>556.74072265625</ele>
        <time>2011-08-06T07:09:18Z</time>
      </trkpt>
      <trkpt lat="45.43767" lon="4.65166">
        <ele>556.26000976562</ele>
        <time>2011-08-06T07:09:25Z</time>
      </trkpt>
      <trkpt lat="45.43727" lon="4.6516">
        <ele>554.81787109375</ele>
        <time>2011-08-06T07:09:30Z</time>
      </trkpt>
      <trkpt lat="45.43704" lon="4.65173">
        <ele>554.81787109375</ele>
        <time>2011-08-06T07:09:33Z</time>
      </trkpt>
      <trkpt lat="45.43629" lon="4.65237">
        <ele>555.779296875</ele>
        <time>2011-08-06T07:09:43Z</time>
      </trkpt>
      <trkpt lat="45.43592" lon="4.65262">
        <ele>555.779296875</ele>
        <time>2011-08-06T07:09:48Z</time>
      </trkpt>
      <trkpt lat="45.4355" lon="4.65268">
        <ele>554.81787109375</ele>
        <time>2011-08-06T07:09:53Z</time>
      </trkpt>
      <trkpt lat="45.43518" lon="4.6527">
        <ele>554.33740234375</ele>
        <time>2011-08-06T07:09:57Z</time>
      </trkpt>
      <trkpt lat="45.43502" lon="4.65275">
        <ele>554.81787109375</ele>
        <time>2011-08-06T07:09:59Z</time>
      </trkpt>
      <trkpt lat="45.43465" lon="4.65306">
        <ele>554.81787109375</ele>
        <time>2011-08-06T07:10:04Z</time>
      </trkpt>
      <trkpt lat="45.43451" lon="4.65334">
        <ele>554.81787109375</ele>
        <time>2011-08-06T07:10:07Z</time>
      </trkpt>
      <trkpt lat="45.43416" lon="4.65419">
        <ele>555.779296875</ele>
        <time>2011-08-06T07:10:15Z</time>
      </trkpt>
      <trkpt lat="45.43411" lon="4.65429">
        <ele>555.779296875</ele>
        <time>2011-08-06T07:10:16Z</time>
      </trkpt>
      <trkpt lat="45.43384" lon="4.6546">
        <ele>555.29858398438</ele>
        <time>2011-08-06T07:10:20Z</time>
      </trkpt>
      <trkpt lat="45.43309" lon="4.65513">
        <ele>553.3759765625</ele>
        <time>2011-08-06T07:10:30Z</time>
      </trkpt>
      <trkpt lat="45.43277" lon="4.65548">
        <ele>552.89526367188</ele>
        <time>2011-08-06T07:10:35Z</time>
      </trkpt>
      <trkpt lat="45.43254" lon="4.65594">
        <ele>552.41455078125</ele>
        <time>2011-08-06T07:10:40Z</time>
      </trkpt>
      <trkpt lat="45.43224" lon="4.65662">
        <ele>551.45336914062</ele>
        <time>2011-08-06T07:10:47Z</time>
      </trkpt>
      <trkpt lat="45.43194" lon="4.65699">
        <ele>550.4921875</ele>
        <time>2011-08-06T07:10:52Z</time>
      </trkpt>
      <trkpt lat="45.43158" lon="4.65719">
        <ele>550.01147460938</ele>
        <time>2011-08-06T07:10:57Z</time>
      </trkpt>
      <trkpt lat="45.43135" lon="4.65723">
        <ele>549.05004882812</ele>
        <time>2011-08-06T07:11:00Z</time>
      </trkpt>
      <trkpt lat="45.43104" lon="4.65718">
        <ele>547.60815429688</ele>
        <time>2011-08-06T07:11:04Z</time>
      </trkpt>
      <trkpt lat="45.43073" lon="4.65723">
        <ele>546.64685058594</ele>
        <time>2011-08-06T07:11:08Z</time>
      </trkpt>
      <trkpt lat="45.43052" lon="4.65741">
        <ele>546.64685058594</ele>
        <time>2011-08-06T07:11:11Z</time>
      </trkpt>
      <trkpt lat="45.43007" lon="4.65802">
        <ele>546.16625976562</ele>
        <time>2011-08-06T07:11:19Z</time>
      </trkpt>
      <trkpt lat="45.42973" lon="4.6586">
        <ele>546.64685058594</ele>
        <time>2011-08-06T07:11:26Z</time>
      </trkpt>
      <trkpt lat="45.42949" lon="4.659">
        <ele>546.16625976562</ele>
        <time>2011-08-06T07:11:31Z</time>
      </trkpt>
      <trkpt lat="45.42918" lon="4.65932">
        <ele>546.16625976562</ele>
        <time>2011-08-06T07:11:36Z</time>
      </trkpt>
      <trkpt lat="45.42897" lon="4.65974">
        <ele>546.16625976562</ele>
        <time>2011-08-06T07:11:41Z</time>
      </trkpt>
      <trkpt lat="45.42894" lon="4.65996">
        <ele>546.16625976562</ele>
        <time>2011-08-06T07:11:43Z</time>
      </trkpt>
      <trkpt lat="45.42885" lon="4.66073">
        <ele>544.72424316406</ele>
        <time>2011-08-06T07:11:50Z</time>
      </trkpt>
      <trkpt lat="45.42859" lon="4.66126">
        <ele>544.72424316406</ele>
        <time>2011-08-06T07:11:56Z</time>
      </trkpt>
      <trkpt lat="45.42835" lon="4.66156">
        <ele>543.76281738281</ele>
        <time>2011-08-06T07:12:00Z</time>
      </trkpt>
      <trkpt lat="45.42799" lon="4.66178">
        <ele>542.32092285156</ele>
        <time>2011-08-06T07:12:05Z</time>
      </trkpt>
      <trkpt lat="45.42776" lon="4.66176">
        <ele>541.35949707031</ele>
        <time>2011-08-06T07:12:08Z</time>
      </trkpt>
      <trkpt lat="45.42761" lon="4.66167">
        <ele>540.87890625</ele>
        <time>2011-08-06T07:12:10Z</time>
      </trkpt>
      <trkpt lat="45.42706" lon="4.66122">
        <ele>538.47570800781</ele>
        <time>2011-08-06T07:12:18Z</time>
      </trkpt>
      <trkpt lat="45.42654" lon="4.66082">
        <ele>537.99499511719</ele>
        <time>2011-08-06T07:12:26Z</time>
      </trkpt>
      <trkpt lat="45.42612" lon="4.66058">
        <ele>537.99499511719</ele>
        <time>2011-08-06T07:12:32Z</time>
      </trkpt>
      <trkpt lat="45.42577" lon="4.66052">
        <ele>538.95629882812</ele>
        <time>2011-08-06T07:12:37Z</time>
      </trkpt>
      <trkpt lat="45.42532" lon="4.66049">
        <ele>539.91760253906</ele>
        <time>2011-08-06T07:12:44Z</time>
      </trkpt>
      <trkpt lat="45.42505" lon="4.66046">
        <ele>539.91760253906</ele>
        <time>2011-08-06T07:12:48Z</time>
      </trkpt>
      <trkpt lat="45.42464" lon="4.66059">
        <ele>539.91760253906</ele>
        <time>2011-08-06T07:12:54Z</time>
      </trkpt>
      <trkpt lat="45.42432" lon="4.66086">
        <ele>540.39831542969</ele>
        <time>2011-08-06T07:12:59Z</time>
      </trkpt>
      <trkpt lat="45.42415" lon="4.66121">
        <ele>540.87890625</ele>
        <time>2011-08-06T07:13:03Z</time>
      </trkpt>
      <trkpt lat="45.42397" lon="4.66169">
        <ele>541.35949707031</ele>
        <time>2011-08-06T07:13:08Z</time>
      </trkpt>
      <trkpt lat="45.42374" lon="4.66195">
        <ele>541.84020996094</ele>
        <time>2011-08-06T07:13:12Z</time>
      </trkpt>
      <trkpt lat="45.42352" lon="4.66201">
        <ele>541.84020996094</ele>
        <time>2011-08-06T07:13:15Z</time>
      </trkpt>
      <trkpt lat="45.42285" lon="4.66206">
        <ele>539.43688964844</ele>
        <time>2011-08-06T07:13:23Z</time>
      </trkpt>
      <trkpt lat="45.42276" lon="4.66208">
        <ele>539.43688964844</ele>
        <time>2011-08-06T07:13:24Z</time>
      </trkpt>
      <trkpt lat="45.42226" lon="4.66238">
        <ele>537.03369140625</ele>
        <time>2011-08-06T07:13:30Z</time>
      </trkpt>
      <trkpt lat="45.42183" lon="4.6627">
        <ele>534.63037109375</ele>
        <time>2011-08-06T07:13:35Z</time>
      </trkpt>
      <trkpt lat="45.42144" lon="4.66294">
        <ele>532.70776367188</ele>
        <time>2011-08-06T07:13:39Z</time>
      </trkpt>
      <trkpt lat="45.42103" lon="4.66301">
        <ele>530.30444335938</ele>
        <time>2011-08-06T07:13:43Z</time>
      </trkpt>
      <trkpt lat="45.42062" lon="4.66303">
        <ele>528.3818359375</ele>
        <time>2011-08-06T07:13:47Z</time>
      </trkpt>
      <trkpt lat="45.42026" lon="4.66329">
        <ele>525.97839355469</ele>
        <time>2011-08-06T07:13:51Z</time>
      </trkpt>
      <trkpt lat="45.42012" lon="4.66352">
        <ele>525.01721191406</ele>
        <time>2011-08-06T07:13:53Z</time>
      </trkpt>
      <trkpt lat="45.41956" lon="4.66465">
        <ele>521.17199707031</ele>
        <time>2011-08-06T07:14:02Z</time>
      </trkpt>
      <trkpt lat="45.41913" lon="4.66534">
        <ele>518.7685546875</ele>
        <time>2011-08-06T07:14:08Z</time>
      </trkpt>
      <trkpt lat="45.41877" lon="4.66569">
        <ele>517.80725097656</ele>
        <time>2011-08-06T07:14:12Z</time>
      </trkpt>
      <trkpt lat="45.41851" lon="4.66594">
        <ele>517.32666015625</ele>
        <time>2011-08-06T07:14:15Z</time>
      </trkpt>
      <trkpt lat="45.41824" lon="4.6664">
        <ele>516.365234375</ele>
        <time>2011-08-06T07:14:19Z</time>
      </trkpt>
      <trkpt lat="45.41808" lon="4.66695">
        <ele>515.88464355469</ele>
        <time>2011-08-06T07:14:23Z</time>
      </trkpt>
      <trkpt lat="45.41806" lon="4.6671">
        <ele>515.40405273438</ele>
        <time>2011-08-06T07:14:24Z</time>
      </trkpt>
      <trkpt lat="45.41801" lon="4.66811">
        <ele>511.55871582031</ele>
        <time>2011-08-06T07:14:31Z</time>
      </trkpt>
      <trkpt lat="45.41797" lon="4.66966">
        <ele>507.23278808594</ele>
        <time>2011-08-06T07:14:42Z</time>
      </trkpt>
      <trkpt lat="45.41797" lon="4.67026">
        <ele>505.79089355469</ele>
        <time>2011-08-06T07:14:46Z</time>
      </trkpt>
      <trkpt lat="45.41795" lon="4.67053">
        <ele>504.34887695312</ele>
        <time>2011-08-06T07:14:48Z</time>
      </trkpt>
      <trkpt lat="45.41789" lon="4.67093">
        <ele>503.38745117188</ele>
        <time>2011-08-06T07:14:51Z</time>
      </trkpt>
      <trkpt lat="45.41771" lon="4.67128">
        <ele>501.94555664062</ele>
        <time>2011-08-06T07:14:54Z</time>
      </trkpt>
      <trkpt lat="45.41753" lon="4.67133">
        <ele>500.50354003906</ele>
        <time>2011-08-06T07:14:56Z</time>
      </trkpt>
      <trkpt lat="45.41724" lon="4.67123">
        <ele>498.58093261719</ele>
        <time>2011-08-06T07:14:59Z</time>
      </trkpt>
      <trkpt lat="45.41716" lon="4.67113">
        <ele>497.61962890625</ele>
        <time>2011-08-06T07:15:00Z</time>
      </trkpt>
      <trkpt lat="45.41702" lon="4.67093">
        <ele>496.65832519531</ele>
        <time>2011-08-06T07:15:02Z</time>
      </trkpt>
      <trkpt lat="45.41682" lon="4.67044">
        <ele>494.25500488281</ele>
        <time>2011-08-06T07:15:06Z</time>
      </trkpt>
      <trkpt lat="45.41672" lon="4.66973">
        <ele>491.37097167969</ele>
        <time>2011-08-06T07:15:11Z</time>
      </trkpt>
      <trkpt lat="45.41674" lon="4.66915">
        <ele>489.44836425781</ele>
        <time>2011-08-06T07:15:15Z</time>
      </trkpt>
      <trkpt lat="45.41678" lon="4.66887">
        <ele>488.00646972656</ele>
        <time>2011-08-06T07:15:17Z</time>
      </trkpt>
      <trkpt lat="45.41672" lon="4.66851">
        <ele>486.08374023438</ele>
        <time>2011-08-06T07:15:20Z</time>
      </trkpt>
      <trkpt lat="45.41656" lon="4.66846">
        <ele>484.64184570312</ele>
        <time>2011-08-06T07:15:22Z</time>
      </trkpt>
      <trkpt lat="45.41645" lon="4.66862">
        <ele>484.1611328125</ele>
        <time>2011-08-06T07:15:24Z</time>
      </trkpt>
      <trkpt lat="45.4164" lon="4.66885">
        <ele>483.19982910156</ele>
        <time>2011-08-06T07:15:26Z</time>
      </trkpt>
      <trkpt lat="45.41627" lon="4.66978">
        <ele>480.31591796875</ele>
        <time>2011-08-06T07:15:33Z</time>
      </trkpt>
      <trkpt lat="45.41616" lon="4.67082">
        <ele>477.43188476562</ele>
        <time>2011-08-06T07:15:40Z</time>
      </trkpt>
      <trkpt lat="45.4162" lon="4.67161">
        <ele>474.54797363281</ele>
        <time>2011-08-06T07:15:45Z</time>
      </trkpt>
      <trkpt lat="45.41624" lon="4.67289">
        <ele>470.70263671875</ele>
        <time>2011-08-06T07:15:53Z</time>
      </trkpt>
      <trkpt lat="45.4163" lon="4.67403">
        <ele>466.857421875</ele>
        <time>2011-08-06T07:16:00Z</time>
      </trkpt>
      <trkpt lat="45.41637" lon="4.67483">
        <ele>463.49279785156</ele>
        <time>2011-08-06T07:16:05Z</time>
      </trkpt>
      <trkpt lat="45.41646" lon="4.67564">
        <ele>459.64758300781</ele>
        <time>2011-08-06T07:16:10Z</time>
      </trkpt>
      <trkpt lat="45.4167" lon="4.67672">
        <ele>454.36022949219</ele>
        <time>2011-08-06T07:16:17Z</time>
      </trkpt>
      <trkpt lat="45.41701" lon="4.67774">
        <ele>450.03442382812</ele>
        <time>2011-08-06T07:16:24Z</time>
      </trkpt>
      <trkpt lat="45.41726" lon="4.67836">
        <ele>446.18908691406</ele>
        <time>2011-08-06T07:16:29Z</time>
      </trkpt>
      <trkpt lat="45.41738" lon="4.67854">
        <ele>444.7470703125</ele>
        <time>2011-08-06T07:16:32Z</time>
      </trkpt>
      <trkpt lat="45.41739" lon="4.67855">
        <ele>442.34387207031</ele>
        <time>2011-08-06T07:16:37Z</time>
      </trkpt>
      <trkpt lat="45.41738" lon="4.67854">
        <ele>440.90185546875</ele>
        <time>2011-08-06T07:16:45Z</time>
      </trkpt>
      <trkpt lat="45.41743" lon="4.67859">
        <ele>440.42126464844</ele>
        <time>2011-08-06T07:16:49Z</time>
      </trkpt>
      <trkpt lat="45.4176" lon="4.67872">
        <ele>439.9404296875</ele>
        <time>2011-08-06T07:16:53Z</time>
      </trkpt>
      <trkpt lat="45.41766" lon="4.67874">
        <ele>439.45971679688</ele>
        <time>2011-08-06T07:16:54Z</time>
      </trkpt>
      <trkpt lat="45.41801" lon="4.67874">
        <ele>438.97912597656</ele>
        <time>2011-08-06T07:16:59Z</time>
      </trkpt>
      <trkpt lat="45.41828" lon="4.67859">
        <ele>439.9404296875</ele>
        <time>2011-08-06T07:17:03Z</time>
      </trkpt>
      <trkpt lat="45.41834" lon="4.67852">
        <ele>439.9404296875</ele>
        <time>2011-08-06T07:17:04Z</time>
      </trkpt>
      <trkpt lat="45.41851" lon="4.67829">
        <ele>439.45971679688</ele>
        <time>2011-08-06T07:17:07Z</time>
      </trkpt>
      <trkpt lat="45.41879" lon="4.67819">
        <ele>438.49853515625</ele>
        <time>2011-08-06T07:17:11Z</time>
      </trkpt>
      <trkpt lat="45.41891" lon="4.67832">
        <ele>437.05651855469</ele>
        <time>2011-08-06T07:17:13Z</time>
      </trkpt>
      <trkpt lat="45.41895" lon="4.67855">
        <ele>436.09521484375</ele>
        <time>2011-08-06T07:17:15Z</time>
      </trkpt>
      <trkpt lat="45.41887" lon="4.67877">
        <ele>435.13391113281</ele>
        <time>2011-08-06T07:17:17Z</time>
      </trkpt>
      <trkpt lat="45.41881" lon="4.67888">
        <ele>434.17260742188</ele>
        <time>2011-08-06T07:17:18Z</time>
      </trkpt>
      <trkpt lat="45.41836" lon="4.67978">
        <ele>431.28857421875</ele>
        <time>2011-08-06T07:17:26Z</time>
      </trkpt>
      <trkpt lat="45.41803" lon="4.68048">
        <ele>429.36596679688</ele>
        <time>2011-08-06T07:17:32Z</time>
      </trkpt>
      <trkpt lat="45.41793" lon="4.68069">
        <ele>428.88537597656</ele>
        <time>2011-08-06T07:17:34Z</time>
      </trkpt>
      <trkpt lat="45.4177" lon="4.68122">
        <ele>427.443359375</ele>
        <time>2011-08-06T07:17:39Z</time>
      </trkpt>
      <trkpt lat="45.41782" lon="4.6816">
        <ele>426.48205566406</ele>
        <time>2011-08-06T07:17:42Z</time>
      </trkpt>
      <trkpt lat="45.41787" lon="4.68171">
        <ele>426.00134277344</ele>
        <time>2011-08-06T07:17:43Z</time>
      </trkpt>
      <trkpt lat="45.41815" lon="4.68243">
        <ele>420.71411132812</ele>
        <time>2011-08-06T07:17:50Z</time>
      </trkpt>
      <trkpt lat="45.4184" lon="4.68309">
        <ele>417.83020019531</ele>
        <time>2011-08-06T07:17:56Z</time>
      </trkpt>
      <trkpt lat="45.41875" lon="4.6839">
        <ele>414.94616699219</ele>
        <time>2011-08-06T07:18:03Z</time>
      </trkpt>
      <trkpt lat="45.41922" lon="4.68486">
        <ele>410.62023925781</ele>
        <time>2011-08-06T07:18:11Z</time>
      </trkpt>
      <trkpt lat="45.4195" lon="4.68551">
        <ele>407.25561523438</ele>
        <time>2011-08-06T07:18:16Z</time>
      </trkpt>
      <trkpt lat="45.41966" lon="4.68632">
        <ele>403.41040039062</ele>
        <time>2011-08-06T07:18:22Z</time>
      </trkpt>
      <trkpt lat="45.41987" lon="4.68749">
        <ele>397.64245605469</ele>
        <time>2011-08-06T07:18:30Z</time>
      </trkpt>
      <trkpt lat="45.4201" lon="4.68881">
        <ele>390.91320800781</ele>
        <time>2011-08-06T07:18:39Z</time>
      </trkpt>
      <trkpt lat="45.42015" lon="4.68971">
        <ele>386.58740234375</ele>
        <time>2011-08-06T07:18:45Z</time>
      </trkpt>
      <trkpt lat="45.42012" lon="4.69">
        <ele>385.14538574219</ele>
        <time>2011-08-06T07:18:47Z</time>
      </trkpt>
      <trkpt lat="45.42007" lon="4.69027">
        <ele>383.70324707031</ele>
        <time>2011-08-06T07:18:49Z</time>
      </trkpt>
      <trkpt lat="45.42002" lon="4.69084">
        <ele>381.30004882812</ele>
        <time>2011-08-06T07:18:53Z</time>
      </trkpt>
      <trkpt lat="45.41994" lon="4.69159">
        <ele>377.93542480469</ele>
        <time>2011-08-06T07:18:58Z</time>
      </trkpt>
      <trkpt lat="45.41983" lon="4.69264">
        <ele>376.01281738281</ele>
        <time>2011-08-06T07:19:05Z</time>
      </trkpt>
      <trkpt lat="45.4198" lon="4.69364">
        <ele>374.09008789062</ele>
        <time>2011-08-06T07:19:12Z</time>
      </trkpt>
      <trkpt lat="45.4199" lon="4.69465">
        <ele>371.20629882812</ele>
        <time>2011-08-06T07:19:19Z</time>
      </trkpt>
      <trkpt lat="45.42011" lon="4.69603">
        <ele>364.95764160156</ele>
        <time>2011-08-06T07:19:28Z</time>
      </trkpt>
      <trkpt lat="45.42034" lon="4.69706">
        <ele>362.55432128906</ele>
        <time>2011-08-06T07:19:35Z</time>
      </trkpt>
      <trkpt lat="45.42059" lon="4.69804">
        <ele>360.63171386719</ele>
        <time>2011-08-06T07:19:42Z</time>
      </trkpt>
      <trkpt lat="45.4206" lon="4.69877">
        <ele>358.708984375</ele>
        <time>2011-08-06T07:19:47Z</time>
      </trkpt>
      <trkpt lat="45.42039" lon="4.69993">
        <ele>353.90258789062</ele>
        <time>2011-08-06T07:19:55Z</time>
      </trkpt>
      <trkpt lat="45.42023" lon="4.70067">
        <ele>351.49914550781</ele>
        <time>2011-08-06T07:20:00Z</time>
      </trkpt>
      <trkpt lat="45.41998" lon="4.7012">
        <ele>350.05725097656</ele>
        <time>2011-08-06T07:20:04Z</time>
      </trkpt>
      <trkpt lat="45.41928" lon="4.70224">
        <ele>348.615234375</ele>
        <time>2011-08-06T07:20:13Z</time>
      </trkpt>
      <trkpt lat="45.41849" lon="4.70337">
        <ele>346.21203613281</ele>
        <time>2011-08-06T07:20:23Z</time>
      </trkpt>
      <trkpt lat="45.41801" lon="4.70379">
        <ele>344.77001953125</ele>
        <time>2011-08-06T07:20:28Z</time>
      </trkpt>
      <trkpt lat="45.41715" lon="4.70449">
        <ele>339.96337890625</ele>
        <time>2011-08-06T07:20:37Z</time>
      </trkpt>
      <trkpt lat="45.41657" lon="4.70495">
        <ele>335.15673828125</ele>
        <time>2011-08-06T07:20:43Z</time>
      </trkpt>
      <trkpt lat="45.4161" lon="4.70542">
        <ele>331.3115234375</ele>
        <time>2011-08-06T07:20:48Z</time>
      </trkpt>
      <trkpt lat="45.41582" lon="4.70597">
        <ele>326.5048828125</ele>
        <time>2011-08-06T07:20:52Z</time>
      </trkpt>
      <trkpt lat="45.4157" lon="4.70663">
        <ele>321.2177734375</ele>
        <time>2011-08-06T07:20:56Z</time>
      </trkpt>
      <trkpt lat="45.41553" lon="4.70832">
        <ele>314.96911621094</ele>
        <time>2011-08-06T07:21:06Z</time>
      </trkpt>
      <trkpt lat="45.41537" lon="4.70896">
        <ele>310.64306640625</ele>
        <time>2011-08-06T07:21:10Z</time>
      </trkpt>
      <trkpt lat="45.41533" lon="4.70959">
        <ele>307.27856445312</ele>
        <time>2011-08-06T07:21:14Z</time>
      </trkpt>
      <trkpt lat="45.41544" lon="4.70986">
        <ele>304.87524414062</ele>
        <time>2011-08-06T07:21:16Z</time>
      </trkpt>
      <trkpt lat="45.41563" lon="4.71003">
        <ele>302.95251464844</ele>
        <time>2011-08-06T07:21:18Z</time>
      </trkpt>
      <trkpt lat="45.41585" lon="4.71007">
        <ele>301.02990722656</ele>
        <time>2011-08-06T07:21:20Z</time>
      </trkpt>
      <trkpt lat="45.41608" lon="4.70993">
        <ele>299.58801269531</ele>
        <time>2011-08-06T07:21:22Z</time>
      </trkpt>
      <trkpt lat="45.41631" lon="4.70957">
        <ele>297.66540527344</ele>
        <time>2011-08-06T07:21:25Z</time>
      </trkpt>
      <trkpt lat="45.41651" lon="4.70917">
        <ele>295.26196289062</ele>
        <time>2011-08-06T07:21:28Z</time>
      </trkpt>
      <trkpt lat="45.41688" lon="4.70879">
        <ele>291.8974609375</ele>
        <time>2011-08-06T07:21:32Z</time>
      </trkpt>
      <trkpt lat="45.41764" lon="4.70815">
        <ele>287.0908203125</ele>
        <time>2011-08-06T07:21:40Z</time>
      </trkpt>
      <trkpt lat="45.41781" lon="4.70794">
        <ele>285.64880371094</ele>
        <time>2011-08-06T07:21:42Z</time>
      </trkpt>
      <trkpt lat="45.41818" lon="4.70714">
        <ele>281.32299804688</ele>
        <time>2011-08-06T07:21:48Z</time>
      </trkpt>
      <trkpt lat="45.41852" lon="4.70631">
        <ele>276.03564453125</ele>
        <time>2011-08-06T07:21:54Z</time>
      </trkpt>
      <trkpt lat="45.41857" lon="4.70619">
        <ele>275.55505371094</ele>
        <time>2011-08-06T07:21:55Z</time>
      </trkpt>
      <trkpt lat="45.41877" lon="4.70616">
        <ele>272.67114257812</ele>
        <time>2011-08-06T07:21:58Z</time>
      </trkpt>
      <trkpt lat="45.4188" lon="4.70634">
        <ele>269.787109375</ele>
        <time>2011-08-06T07:22:00Z</time>
      </trkpt>
      <trkpt lat="45.41871" lon="4.70648">
        <ele>268.34509277344</ele>
        <time>2011-08-06T07:22:02Z</time>
      </trkpt>
      <trkpt lat="45.41854" lon="4.70663">
        <ele>266.90319824219</ele>
        <time>2011-08-06T07:22:04Z</time>
      </trkpt>
      <trkpt lat="45.41839" lon="4.70696">
        <ele>265.46130371094</ele>
        <time>2011-08-06T07:22:07Z</time>
      </trkpt>
      <trkpt lat="45.41836" lon="4.70709">
        <ele>264.98059082031</ele>
        <time>2011-08-06T07:22:08Z</time>
      </trkpt>
      <trkpt lat="45.41816" lon="4.70793">
        <ele>263.05786132812</ele>
        <time>2011-08-06T07:22:14Z</time>
      </trkpt>
      <trkpt lat="45.41807" lon="4.70821">
        <ele>263.05786132812</ele>
        <time>2011-08-06T07:22:16Z</time>
      </trkpt>
      <trkpt lat="45.41779" lon="4.70865">
        <ele>262.5771484375</ele>
        <time>2011-08-06T07:22:20Z</time>
      </trkpt>
      <trkpt lat="45.41761" lon="4.70881">
        <ele>261.13525390625</ele>
        <time>2011-08-06T07:22:22Z</time>
      </trkpt>
      <trkpt lat="45.41715" lon="4.70924">
        <ele>258.73193359375</ele>
        <time>2011-08-06T07:22:27Z</time>
      </trkpt>
      <trkpt lat="45.41706" lon="4.70936">
        <ele>258.73193359375</ele>
        <time>2011-08-06T07:22:28Z</time>
      </trkpt>
      <trkpt lat="45.41686" lon="4.70992">
        <ele>256.80932617188</ele>
        <time>2011-08-06T07:22:32Z</time>
      </trkpt>
      <trkpt lat="45.41652" lon="4.71091">
        <ele>252.4833984375</ele>
        <time>2011-08-06T07:22:39Z</time>
      </trkpt>
      <trkpt lat="45.41622" lon="4.71136">
        <ele>250.56079101562</ele>
        <time>2011-08-06T07:22:43Z</time>
      </trkpt>
      <trkpt lat="45.41579" lon="4.71162">
        <ele>248.63818359375</ele>
        <time>2011-08-06T07:22:47Z</time>
      </trkpt>
      <trkpt lat="45.41541" lon="4.71202">
        <ele>244.31225585938</ele>
        <time>2011-08-06T07:22:51Z</time>
      </trkpt>
      <trkpt lat="45.41515" lon="4.71276">
        <ele>240.94763183594</ele>
        <time>2011-08-06T07:22:56Z</time>
      </trkpt>
      <trkpt lat="45.415" lon="4.71301">
        <ele>239.02490234375</ele>
        <time>2011-08-06T07:22:58Z</time>
      </trkpt>
      <trkpt lat="45.41472" lon="4.7133">
        <ele>234.21838378906</ele>
        <time>2011-08-06T07:23:01Z</time>
      </trkpt>
      <trkpt lat="45.41442" lon="4.71315">
        <ele>227.9697265625</ele>
        <time>2011-08-06T07:23:04Z</time>
      </trkpt>
      <trkpt lat="45.41433" lon="4.71301">
        <ele>226.52783203125</ele>
        <time>2011-08-06T07:23:05Z</time>
      </trkpt>
      <trkpt lat="45.41389" lon="4.71241">
        <ele>221.72119140625</ele>
        <time>2011-08-06T07:23:10Z</time>
      </trkpt>
      <trkpt lat="45.41367" lon="4.71236">
        <ele>219.31799316406</ele>
        <time>2011-08-06T07:23:13Z</time>
      </trkpt>
      <trkpt lat="45.41355" lon="4.71268">
        <ele>217.8759765625</ele>
        <time>2011-08-06T07:23:16Z</time>
      </trkpt>
      <trkpt lat="45.41373" lon="4.71285">
        <ele>216.91467285156</ele>
        <time>2011-08-06T07:23:18Z</time>
      </trkpt>
      <trkpt lat="45.41383" lon="4.71294">
        <ele>216.43395996094</ele>
        <time>2011-08-06T07:23:19Z</time>
      </trkpt>
      <trkpt lat="45.41419" lon="4.7133">
        <ele>213.0693359375</ele>
        <time>2011-08-06T07:23:23Z</time>
      </trkpt>
      <trkpt lat="45.41442" lon="4.71381">
        <ele>208.74340820312</ele>
        <time>2011-08-06T07:23:27Z</time>
      </trkpt>
      <trkpt lat="45.41464" lon="4.71449">
        <ele>203.93688964844</ele>
        <time>2011-08-06T07:23:32Z</time>
      </trkpt>
      <trkpt lat="45.41473" lon="4.71459">
        <ele>202.97546386719</ele>
        <time>2011-08-06T07:23:33Z</time>
      </trkpt>
      <trkpt lat="45.41518" lon="4.71501">
        <ele>197.68823242188</ele>
        <time>2011-08-06T07:23:38Z</time>
      </trkpt>
      <trkpt lat="45.41541" lon="4.71554">
        <ele>192.88171386719</ele>
        <time>2011-08-06T07:23:42Z</time>
      </trkpt>
      <trkpt lat="45.41534" lon="4.71584">
        <ele>192.88171386719</ele>
        <time>2011-08-06T07:23:44Z</time>
      </trkpt>
      <trkpt lat="45.41513" lon="4.71654">
        <ele>193.84301757812</ele>
        <time>2011-08-06T07:23:49Z</time>
      </trkpt>
      <trkpt lat="45.41497" lon="4.71691">
        <ele>193.3623046875</ele>
        <time>2011-08-06T07:23:52Z</time>
      </trkpt>
      <trkpt lat="45.41469" lon="4.71732">
        <ele>192.88171386719</ele>
        <time>2011-08-06T07:23:56Z</time>
      </trkpt>
      <trkpt lat="45.41417" lon="4.7177">
        <ele>191.92028808594</ele>
        <time>2011-08-06T07:24:02Z</time>
      </trkpt>
      <trkpt lat="45.41368" lon="4.71815">
        <ele>193.3623046875</ele>
        <time>2011-08-06T07:24:08Z</time>
      </trkpt>
      <trkpt lat="45.4136" lon="4.71824">
        <ele>193.84301757812</ele>
        <time>2011-08-06T07:24:09Z</time>
      </trkpt>
      <trkpt lat="45.41341" lon="4.71868">
        <ele>192.88171386719</ele>
        <time>2011-08-06T07:24:13Z</time>
      </trkpt>
      <trkpt lat="45.41339" lon="4.71881">
        <ele>192.88171386719</ele>
        <time>2011-08-06T07:24:14Z</time>
      </trkpt>
      <trkpt lat="45.41334" lon="4.7192">
        <ele>191.92028808594</ele>
        <time>2011-08-06T07:24:17Z</time>
      </trkpt>
      <trkpt lat="45.4132" lon="4.71967">
        <ele>191.43957519531</ele>
        <time>2011-08-06T07:24:21Z</time>
      </trkpt>
      <trkpt lat="45.41277" lon="4.72066">
        <ele>190.47839355469</ele>
        <time>2011-08-06T07:24:30Z</time>
      </trkpt>
      <trkpt lat="45.41277" lon="4.72116">
        <ele>187.59436035156</ele>
        <time>2011-08-06T07:24:34Z</time>
      </trkpt>
      <trkpt lat="45.41288" lon="4.7215">
        <ele>185.19116210938</ele>
        <time>2011-08-06T07:24:37Z</time>
      </trkpt>
      <trkpt lat="45.4131" lon="4.72174">
        <ele>183.26843261719</ele>
        <time>2011-08-06T07:24:40Z</time>
      </trkpt>
      <trkpt lat="45.41318" lon="4.7218">
        <ele>183.26843261719</ele>
        <time>2011-08-06T07:24:41Z</time>
      </trkpt>
      <trkpt lat="45.41343" lon="4.72195">
        <ele>182.78784179688</ele>
        <time>2011-08-06T07:24:44Z</time>
      </trkpt>
      <trkpt lat="45.41368" lon="4.72228">
        <ele>181.34582519531</ele>
        <time>2011-08-06T07:24:48Z</time>
      </trkpt>
      <trkpt lat="45.41375" lon="4.72263">
        <ele>180.38452148438</ele>
        <time>2011-08-06T07:24:51Z</time>
      </trkpt>
      <trkpt lat="45.41369" lon="4.723">
        <ele>179.42321777344</ele>
        <time>2011-08-06T07:24:54Z</time>
      </trkpt>
      <trkpt lat="45.41358" lon="4.72332">
        <ele>180.38452148438</ele>
        <time>2011-08-06T07:24:57Z</time>
      </trkpt>
      <trkpt lat="45.41346" lon="4.72361">
        <ele>180.38452148438</ele>
        <time>2011-08-06T07:25:00Z</time>
      </trkpt>
      <trkpt lat="45.41342" lon="4.72399">
        <ele>179.42321777344</ele>
        <time>2011-08-06T07:25:04Z</time>
      </trkpt>
      <trkpt lat="45.41355" lon="4.72457">
        <ele>177.02001953125</ele>
        <time>2011-08-06T07:25:11Z</time>
      </trkpt>
      <trkpt lat="45.41365" lon="4.72517">
        <ele>175.09729003906</ele>
        <time>2011-08-06T07:25:17Z</time>
      </trkpt>
      <trkpt lat="45.41365" lon="4.72539">
        <ele>174.61657714844</ele>
        <time>2011-08-06T07:25:19Z</time>
      </trkpt>
      <trkpt lat="45.41372" lon="4.72602">
        <ele>172.69396972656</ele>
        <time>2011-08-06T07:25:25Z</time>
      </trkpt>
      <trkpt lat="45.41368" lon="4.72646">
        <ele>171.73266601562</ele>
        <time>2011-08-06T07:25:29Z</time>
      </trkpt>
      <trkpt lat="45.41363" lon="4.72677">
        <ele>171.25207519531</ele>
        <time>2011-08-06T07:25:32Z</time>
      </trkpt>
      <trkpt lat="45.41367" lon="4.72751">
        <ele>169.32946777344</ele>
        <time>2011-08-06T07:25:39Z</time>
      </trkpt>
      <trkpt lat="45.41375" lon="4.72814">
        <ele>167.88732910156</ele>
        <time>2011-08-06T07:25:46Z</time>
      </trkpt>
      <trkpt lat="45.41378" lon="4.7283">
        <ele>167.88732910156</ele>
        <time>2011-08-06T07:25:48Z</time>
      </trkpt>
      <trkpt lat="45.41386" lon="4.72842">
        <ele>167.88732910156</ele>
        <time>2011-08-06T07:25:52Z</time>
      </trkpt>
      <trkpt lat="45.41388" lon="4.72839">
        <ele>167.88732910156</ele>
        <time>2011-08-06T07:25:55Z</time>
      </trkpt>
      <trkpt lat="45.41388" lon="4.72838">
        <ele>169.32946777344</ele>
        <time>2011-08-06T07:26:02Z</time>
      </trkpt>
      <trkpt lat="45.41388" lon="4.72839">
        <ele>170.29064941406</ele>
        <time>2011-08-06T07:26:04Z</time>
      </trkpt>
      <trkpt lat="45.41381" lon="4.72838">
        <ele>172.21325683594</ele>
        <time>2011-08-06T07:29:31Z</time>
      </trkpt>
      <trkpt lat="45.4138" lon="4.72832">
        <ele>172.21325683594</ele>
        <time>2011-08-06T07:29:32Z</time>
      </trkpt>
      <trkpt lat="45.41375" lon="4.72782">
        <ele>172.21325683594</ele>
        <time>2011-08-06T07:29:38Z</time>
      </trkpt>
      <trkpt lat="45.41368" lon="4.72711">
        <ele>173.17468261719</ele>
        <time>2011-08-06T07:29:47Z</time>
      </trkpt>
      <trkpt lat="45.41367" lon="4.72686">
        <ele>174.13586425781</ele>
        <time>2011-08-06T07:29:50Z</time>
      </trkpt>
      <trkpt lat="45.41374" lon="4.7262">
        <ele>176.05859375</ele>
        <time>2011-08-06T07:29:58Z</time>
      </trkpt>
      <trkpt lat="45.4137" lon="4.7256">
        <ele>177.50061035156</ele>
        <time>2011-08-06T07:30:06Z</time>
      </trkpt>
      <trkpt lat="45.41367" lon="4.72492">
        <ele>178.94262695312</ele>
        <time>2011-08-06T07:30:15Z</time>
      </trkpt>
      <trkpt lat="45.41357" lon="4.72433">
        <ele>180.38452148438</ele>
        <time>2011-08-06T07:30:23Z</time>
      </trkpt>
      <trkpt lat="45.41349" lon="4.72395">
        <ele>181.34582519531</ele>
        <time>2011-08-06T07:30:28Z</time>
      </trkpt>
      <trkpt lat="45.41353" lon="4.72358">
        <ele>182.78784179688</ele>
        <time>2011-08-06T07:30:33Z</time>
      </trkpt>
      <trkpt lat="45.41364" lon="4.72331">
        <ele>183.7490234375</ele>
        <time>2011-08-06T07:30:38Z</time>
      </trkpt>
      <trkpt lat="45.41367" lon="4.72326">
        <ele>183.7490234375</ele>
        <time>2011-08-06T07:30:40Z</time>
      </trkpt>
      <trkpt lat="45.41368" lon="4.72326">
        <ele>184.71057128906</ele>
        <time>2011-08-06T07:30:46Z</time>
      </trkpt>
      <trkpt lat="45.41368" lon="4.72328">
        <ele>184.22985839844</ele>
        <time>2011-08-06T07:30:52Z</time>
      </trkpt>
      <trkpt lat="45.41367" lon="4.72327">
        <ele>189.51696777344</ele>
        <time>2011-08-06T07:31:18Z</time>
      </trkpt>
      <trkpt lat="45.4137" lon="4.72326">
        <ele>187.59436035156</ele>
        <time>2011-08-06T07:31:33Z</time>
      </trkpt>
      <trkpt lat="45.41367" lon="4.72315">
        <ele>186.15246582031</ele>
        <time>2011-08-06T07:39:53Z</time>
      </trkpt>
      <trkpt lat="45.41368" lon="4.72312">
        <ele>186.15246582031</ele>
        <time>2011-08-06T07:39:54Z</time>
      </trkpt>
      <trkpt lat="45.41373" lon="4.72289">
        <ele>185.19116210938</ele>
        <time>2011-08-06T07:39:59Z</time>
      </trkpt>
      <trkpt lat="45.41375" lon="4.72265">
        <ele>185.67175292969</ele>
        <time>2011-08-06T07:40:05Z</time>
      </trkpt>
      <trkpt lat="45.41373" lon="4.72231">
        <ele>188.07507324219</ele>
        <time>2011-08-06T07:40:13Z</time>
      </trkpt>
      <trkpt lat="45.41368" lon="4.72216">
        <ele>189.51696777344</ele>
        <time>2011-08-06T07:40:18Z</time>
      </trkpt>
      <trkpt lat="45.41355" lon="4.72199">
        <ele>190.958984375</ele>
        <time>2011-08-06T07:40:24Z</time>
      </trkpt>
      <trkpt lat="45.41333" lon="4.72184">
        <ele>188.07507324219</ele>
        <time>2011-08-06T07:40:31Z</time>
      </trkpt>
      <trkpt lat="45.41308" lon="4.72168">
        <ele>188.07507324219</ele>
        <time>2011-08-06T07:40:38Z</time>
      </trkpt>
      <trkpt lat="45.41288" lon="4.72142">
        <ele>188.55578613281</ele>
        <time>2011-08-06T07:40:45Z</time>
      </trkpt>
      <trkpt lat="45.4128" lon="4.72119">
        <ele>189.03637695312</ele>
        <time>2011-08-06T07:40:50Z</time>
      </trkpt>
      <trkpt lat="45.4128" lon="4.72088">
        <ele>189.51696777344</ele>
        <time>2011-08-06T07:40:56Z</time>
      </trkpt>
      <trkpt lat="45.41289" lon="4.72045">
        <ele>189.99768066406</ele>
        <time>2011-08-06T07:41:05Z</time>
      </trkpt>
      <trkpt lat="45.41305" lon="4.7201">
        <ele>190.958984375</ele>
        <time>2011-08-06T07:41:13Z</time>
      </trkpt>
      <trkpt lat="45.41327" lon="4.71967">
        <ele>192.88171386719</ele>
        <time>2011-08-06T07:41:23Z</time>
      </trkpt>
      <trkpt lat="45.41341" lon="4.71923">
        <ele>194.80432128906</ele>
        <time>2011-08-06T07:41:32Z</time>
      </trkpt>
      <trkpt lat="45.41349" lon="4.71868">
        <ele>196.72692871094</ele>
        <time>2011-08-06T07:41:42Z</time>
      </trkpt>
      <trkpt lat="45.4136" lon="4.71836">
        <ele>197.68823242188</ele>
        <time>2011-08-06T07:41:49Z</time>
      </trkpt>
      <trkpt lat="45.4138" lon="4.7181">
        <ele>198.64953613281</ele>
        <time>2011-08-06T07:41:57Z</time>
      </trkpt>
      <trkpt lat="45.414" lon="4.71788">
        <ele>201.05285644531</ele>
        <time>2011-08-06T07:42:05Z</time>
      </trkpt>
      <trkpt lat="45.4142" lon="4.71769">
        <ele>203.45617675781</ele>
        <time>2011-08-06T07:42:12Z</time>
      </trkpt>
      <trkpt lat="45.4144" lon="4.71755">
        <ele>205.85949707031</ele>
        <time>2011-08-06T07:42:19Z</time>
      </trkpt>
      <trkpt lat="45.41461" lon="4.71739">
        <ele>208.26281738281</ele>
        <time>2011-08-06T07:42:27Z</time>
      </trkpt>
      <trkpt lat="45.41487" lon="4.71707">
        <ele>211.62744140625</ele>
        <time>2011-08-06T07:42:37Z</time>
      </trkpt>
      <trkpt lat="45.415" lon="4.71684">
        <ele>214.51123046875</ele>
        <time>2011-08-06T07:42:43Z</time>
      </trkpt>
      <trkpt lat="45.41515" lon="4.71645">
        <ele>215.95324707031</ele>
        <time>2011-08-06T07:42:52Z</time>
      </trkpt>
      <trkpt lat="45.41528" lon="4.71595">
        <ele>216.91467285156</ele>
        <time>2011-08-06T07:43:03Z</time>
      </trkpt>
      <trkpt lat="45.41539" lon="4.71553">
        <ele>215.95324707031</ele>
        <time>2011-08-06T07:43:13Z</time>
      </trkpt>
      <trkpt lat="45.41538" lon="4.7153">
        <ele>216.91467285156</ele>
        <time>2011-08-06T07:43:18Z</time>
      </trkpt>
      <trkpt lat="45.41529" lon="4.71508">
        <ele>219.31799316406</ele>
        <time>2011-08-06T07:43:23Z</time>
      </trkpt>
      <trkpt lat="45.41516" lon="4.71491">
        <ele>215.95324707031</ele>
        <time>2011-08-06T07:43:29Z</time>
      </trkpt>
      <trkpt lat="45.41502" lon="4.71476">
        <ele>213.55004882812</ele>
        <time>2011-08-06T07:43:35Z</time>
      </trkpt>
      <trkpt lat="45.41483" lon="4.7146">
        <ele>213.55004882812</ele>
        <time>2011-08-06T07:43:43Z</time>
      </trkpt>
      <trkpt lat="45.41466" lon="4.71444">
        <ele>214.03063964844</ele>
        <time>2011-08-06T07:43:51Z</time>
      </trkpt>
      <trkpt lat="45.41454" lon="4.71425">
        <ele>215.47265625</ele>
        <time>2011-08-06T07:43:58Z</time>
      </trkpt>
      <trkpt lat="45.4145" lon="4.71402">
        <ele>215.95324707031</ele>
        <time>2011-08-06T07:44:04Z</time>
      </trkpt>
      <trkpt lat="45.41445" lon="4.71371">
        <ele>217.39538574219</ele>
        <time>2011-08-06T07:44:12Z</time>
      </trkpt>
      <trkpt lat="45.41438" lon="4.71342">
        <ele>218.35656738281</ele>
        <time>2011-08-06T07:44:20Z</time>
      </trkpt>
      <trkpt lat="45.41423" lon="4.71323">
        <ele>218.83728027344</ele>
        <time>2011-08-06T07:44:27Z</time>
      </trkpt>
      <trkpt lat="45.41403" lon="4.71304">
        <ele>219.31799316406</ele>
        <time>2011-08-06T07:44:36Z</time>
      </trkpt>
      <trkpt lat="45.41385" lon="4.71287">
        <ele>221.24060058594</ele>
        <time>2011-08-06T07:44:43Z</time>
      </trkpt>
      <trkpt lat="45.41368" lon="4.71262">
        <ele>226.04711914062</ele>
        <time>2011-08-06T07:44:51Z</time>
      </trkpt>
      <trkpt lat="45.41367" lon="4.71243">
        <ele>228.45043945312</ele>
        <time>2011-08-06T07:44:56Z</time>
      </trkpt>
      <trkpt lat="45.41369" lon="4.7124">
        <ele>228.93115234375</ele>
        <time>2011-08-06T07:44:57Z</time>
      </trkpt>
      <trkpt lat="45.41382" lon="4.71242">
        <ele>228.93115234375</ele>
        <time>2011-08-06T07:45:02Z</time>
      </trkpt>
      <trkpt lat="45.41398" lon="4.71265">
        <ele>228.45043945312</ele>
        <time>2011-08-06T07:45:09Z</time>
      </trkpt>
      <trkpt lat="45.41419" lon="4.71294">
        <ele>228.93115234375</ele>
        <time>2011-08-06T07:45:18Z</time>
      </trkpt>
      <trkpt lat="45.41438" lon="4.71316">
        <ele>230.373046875</ele>
        <time>2011-08-06T07:45:26Z</time>
      </trkpt>
      <trkpt lat="45.41459" lon="4.71337">
        <ele>232.77648925781</ele>
        <time>2011-08-06T07:45:35Z</time>
      </trkpt>
      <trkpt lat="45.41473" lon="4.71341">
        <ele>233.73767089844</ele>
        <time>2011-08-06T07:45:41Z</time>
      </trkpt>
      <trkpt lat="45.41489" lon="4.71334">
        <ele>234.21838378906</ele>
        <time>2011-08-06T07:45:48Z</time>
      </trkpt>
      <trkpt lat="45.41505" lon="4.71313">
        <ele>234.69909667969</ele>
        <time>2011-08-06T07:45:56Z</time>
      </trkpt>
      <trkpt lat="45.41521" lon="4.71281">
        <ele>238.06359863281</ele>
        <time>2011-08-06T07:46:06Z</time>
      </trkpt>
      <trkpt lat="45.41537" lon="4.71253">
        <ele>241.90893554688</ele>
        <time>2011-08-06T07:46:14Z</time>
      </trkpt>
      <trkpt lat="45.41552" lon="4.71215">
        <ele>248.15759277344</ele>
        <time>2011-08-06T07:46:24Z</time>
      </trkpt>
      <trkpt lat="45.41566" lon="4.7119">
        <ele>250.08020019531</ele>
        <time>2011-08-06T07:46:32Z</time>
      </trkpt>
      <trkpt lat="45.41582" lon="4.71171">
        <ele>248.63818359375</ele>
        <time>2011-08-06T07:46:40Z</time>
      </trkpt>
      <trkpt lat="45.41604" lon="4.71159">
        <ele>247.6767578125</ele>
        <time>2011-08-06T07:46:49Z</time>
      </trkpt>
      <trkpt lat="45.41617" lon="4.71148">
        <ele>246.71545410156</ele>
        <time>2011-08-06T07:46:55Z</time>
      </trkpt>
      <trkpt lat="45.41646" lon="4.71119">
        <ele>249.11877441406</ele>
        <time>2011-08-06T07:47:06Z</time>
      </trkpt>
      <trkpt lat="45.41662" lon="4.71091">
        <ele>251.04138183594</ele>
        <time>2011-08-06T07:47:15Z</time>
      </trkpt>
      <trkpt lat="45.4169" lon="4.71042">
        <ele>258.25134277344</ele>
        <time>2011-08-06T07:47:30Z</time>
      </trkpt>
      <trkpt lat="45.41697" lon="4.71016">
        <ele>258.73193359375</ele>
        <time>2011-08-06T07:47:37Z</time>
      </trkpt>
      <trkpt lat="45.41707" lon="4.70987">
        <ele>261.13525390625</ele>
        <time>2011-08-06T07:47:45Z</time>
      </trkpt>
      <trkpt lat="45.41716" lon="4.70957">
        <ele>259.693359375</ele>
        <time>2011-08-06T07:47:54Z</time>
      </trkpt>
      <trkpt lat="45.41727" lon="4.70932">
        <ele>260.17395019531</ele>
        <time>2011-08-06T07:48:02Z</time>
      </trkpt>
      <trkpt lat="45.41743" lon="4.70912">
        <ele>263.05786132812</ele>
        <time>2011-08-06T07:48:10Z</time>
      </trkpt>
      <trkpt lat="45.41757" lon="4.70898">
        <ele>264.98059082031</ele>
        <time>2011-08-06T07:48:17Z</time>
      </trkpt>
      <trkpt lat="45.41768" lon="4.70892">
        <ele>266.90319824219</ele>
        <time>2011-08-06T07:48:23Z</time>
      </trkpt>
      <trkpt lat="45.41777" lon="4.70883">
        <ele>266.42248535156</ele>
        <time>2011-08-06T07:48:28Z</time>
      </trkpt>
      <trkpt lat="45.41793" lon="4.70865">
        <ele>265.46130371094</ele>
        <time>2011-08-06T07:48:36Z</time>
      </trkpt>
      <trkpt lat="45.41811" lon="4.70833">
        <ele>266.90319824219</ele>
        <time>2011-08-06T07:48:46Z</time>
      </trkpt>
      <trkpt lat="45.41822" lon="4.70801">
        <ele>269.30651855469</ele>
        <time>2011-08-06T07:48:54Z</time>
      </trkpt>
      <trkpt lat="45.41831" lon="4.70768">
        <ele>271.22912597656</ele>
        <time>2011-08-06T07:49:02Z</time>
      </trkpt>
      <trkpt lat="45.41842" lon="4.70732">
        <ele>273.63244628906</ele>
        <time>2011-08-06T07:49:11Z</time>
      </trkpt>
      <trkpt lat="45.41852" lon="4.70695">
        <ele>279.880859375</ele>
        <time>2011-08-06T07:49:19Z</time>
      </trkpt>
      <trkpt lat="45.41866" lon="4.70668">
        <ele>282.28430175781</ele>
        <time>2011-08-06T07:49:26Z</time>
      </trkpt>
      <trkpt lat="45.41885" lon="4.70641">
        <ele>281.32299804688</ele>
        <time>2011-08-06T07:49:35Z</time>
      </trkpt>
      <trkpt lat="45.41889" lon="4.70617">
        <ele>280.36169433594</ele>
        <time>2011-08-06T07:49:41Z</time>
      </trkpt>
      <trkpt lat="45.41883" lon="4.706">
        <ele>281.32299804688</ele>
        <time>2011-08-06T07:49:45Z</time>
      </trkpt>
      <trkpt lat="45.4188" lon="4.70596">
        <ele>283.24560546875</ele>
        <time>2011-08-06T07:49:47Z</time>
      </trkpt>
      <trkpt lat="45.41872" lon="4.70606">
        <ele>288.53295898438</ele>
        <time>2011-08-06T07:49:52Z</time>
      </trkpt>
      <trkpt lat="45.41871" lon="4.7061">
        <ele>289.97485351562</ele>
        <time>2011-08-06T07:49:53Z</time>
      </trkpt>
      <trkpt lat="45.4186" lon="4.70646">
        <ele>294.78137207031</ele>
        <time>2011-08-06T07:50:01Z</time>
      </trkpt>
      <trkpt lat="45.41848" lon="4.70675">
        <ele>297.66540527344</ele>
        <time>2011-08-06T07:50:08Z</time>
      </trkpt>
      <trkpt lat="45.41824" lon="4.70702">
        <ele>297.18469238281</ele>
        <time>2011-08-06T07:50:16Z</time>
      </trkpt>
      <trkpt lat="45.41808" lon="4.70736">
        <ele>302.47192382812</ele>
        <time>2011-08-06T07:50:25Z</time>
      </trkpt>
      <trkpt lat="45.41796" lon="4.70763">
        <ele>304.39465332031</ele>
        <time>2011-08-06T07:50:32Z</time>
      </trkpt>
      <trkpt lat="45.41782" lon="4.70785">
        <ele>299.10729980469</ele>
        <time>2011-08-06T07:50:38Z</time>
      </trkpt>
      <trkpt lat="45.41757" lon="4.70812">
        <ele>295.26196289062</ele>
        <time>2011-08-06T07:50:47Z</time>
      </trkpt>
      <trkpt lat="45.41735" lon="4.70832">
        <ele>294.30078125</ele>
        <time>2011-08-06T07:50:55Z</time>
      </trkpt>
      <trkpt lat="45.41715" lon="4.70848">
        <ele>294.78137207031</ele>
        <time>2011-08-06T07:51:02Z</time>
      </trkpt>
      <trkpt lat="45.4169" lon="4.70868">
        <ele>295.26196289062</ele>
        <time>2011-08-06T07:51:11Z</time>
      </trkpt>
      <trkpt lat="45.41661" lon="4.70893">
        <ele>295.26196289062</ele>
        <time>2011-08-06T07:51:21Z</time>
      </trkpt>
      <trkpt lat="45.4164" lon="4.70919">
        <ele>296.7041015625</ele>
        <time>2011-08-06T07:51:29Z</time>
      </trkpt>
      <trkpt lat="45.41627" lon="4.7095">
        <ele>298.14611816406</ele>
        <time>2011-08-06T07:51:36Z</time>
      </trkpt>
      <trkpt lat="45.4161" lon="4.70979">
        <ele>300.06872558594</ele>
        <time>2011-08-06T07:51:44Z</time>
      </trkpt>
      <trkpt lat="45.4159" lon="4.70991">
        <ele>301.51062011719</ele>
        <time>2011-08-06T07:51:50Z</time>
      </trkpt>
      <trkpt lat="45.41567" lon="4.70988">
        <ele>302.95251464844</ele>
        <time>2011-08-06T07:51:57Z</time>
      </trkpt>
      <trkpt lat="45.41551" lon="4.70974">
        <ele>303.43322753906</ele>
        <time>2011-08-06T07:52:03Z</time>
      </trkpt>
      <trkpt lat="45.41543" lon="4.70951">
        <ele>304.87524414062</ele>
        <time>2011-08-06T07:52:09Z</time>
      </trkpt>
      <trkpt lat="45.41544" lon="4.7092">
        <ele>306.31726074219</ele>
        <time>2011-08-06T07:52:16Z</time>
      </trkpt>
      <trkpt lat="45.41549" lon="4.70895">
        <ele>308.23986816406</ele>
        <time>2011-08-06T07:52:22Z</time>
      </trkpt>
      <trkpt lat="45.41562" lon="4.7085">
        <ele>311.12377929688</ele>
        <time>2011-08-06T07:52:33Z</time>
      </trkpt>
      <trkpt lat="45.4157" lon="4.70806">
        <ele>313.52722167969</ele>
        <time>2011-08-06T07:52:43Z</time>
      </trkpt>
      <trkpt lat="45.41572" lon="4.70765">
        <ele>315.44982910156</ele>
        <time>2011-08-06T07:52:52Z</time>
      </trkpt>
      <trkpt lat="45.41575" lon="4.70725">
        <ele>317.85302734375</ele>
        <time>2011-08-06T07:53:01Z</time>
      </trkpt>
      <trkpt lat="45.41578" lon="4.70686">
        <ele>319.29504394531</ele>
        <time>2011-08-06T07:53:10Z</time>
      </trkpt>
      <trkpt lat="45.41584" lon="4.7064">
        <ele>322.17895507812</ele>
        <time>2011-08-06T07:53:21Z</time>
      </trkpt>
      <trkpt lat="45.41595" lon="4.70595">
        <ele>325.06298828125</ele>
        <time>2011-08-06T07:53:32Z</time>
      </trkpt>
      <trkpt lat="45.41613" lon="4.70558">
        <ele>328.42761230469</ele>
        <time>2011-08-06T07:53:42Z</time>
      </trkpt>
      <trkpt lat="45.41632" lon="4.70534">
        <ele>330.83093261719</ele>
        <time>2011-08-06T07:53:50Z</time>
      </trkpt>
      <trkpt lat="45.41647" lon="4.70519">
        <ele>332.75354003906</ele>
        <time>2011-08-06T07:53:56Z</time>
      </trkpt>
      <trkpt lat="45.41668" lon="4.705">
        <ele>335.63732910156</ele>
        <time>2011-08-06T07:54:04Z</time>
      </trkpt>
      <trkpt lat="45.41705" lon="4.70469">
        <ele>339.96337890625</ele>
        <time>2011-08-06T07:54:18Z</time>
      </trkpt>
      <trkpt lat="45.41742" lon="4.70441">
        <ele>340.44409179688</ele>
        <time>2011-08-06T07:54:31Z</time>
      </trkpt>
      <trkpt lat="45.41764" lon="4.70423">
        <ele>341.4052734375</ele>
        <time>2011-08-06T07:54:39Z</time>
      </trkpt>
      <trkpt lat="45.41792" lon="4.70401">
        <ele>342.36669921875</ele>
        <time>2011-08-06T07:54:49Z</time>
      </trkpt>
      <trkpt lat="45.41825" lon="4.70374">
        <ele>344.28942871094</ele>
        <time>2011-08-06T07:55:01Z</time>
      </trkpt>
      <trkpt lat="45.41854" lon="4.70348">
        <ele>345.73132324219</ele>
        <time>2011-08-06T07:55:12Z</time>
      </trkpt>
      <trkpt lat="45.41875" lon="4.70319">
        <ele>346.69262695312</ele>
        <time>2011-08-06T07:55:21Z</time>
      </trkpt>
      <trkpt lat="45.41901" lon="4.7028">
        <ele>348.13464355469</ele>
        <time>2011-08-06T07:55:32Z</time>
      </trkpt>
      <trkpt lat="45.41929" lon="4.70236">
        <ele>350.05725097656</ele>
        <time>2011-08-06T07:55:43Z</time>
      </trkpt>
      <trkpt lat="45.41956" lon="4.70198">
        <ele>351.97985839844</ele>
        <time>2011-08-06T07:55:53Z</time>
      </trkpt>
      <trkpt lat="45.41988" lon="4.70151">
        <ele>353.90258789062</ele>
        <time>2011-08-06T07:56:05Z</time>
      </trkpt>
      <trkpt lat="45.42013" lon="4.70112">
        <ele>356.30578613281</ele>
        <time>2011-08-06T07:56:15Z</time>
      </trkpt>
      <trkpt lat="45.42031" lon="4.70074">
        <ele>358.22839355469</ele>
        <time>2011-08-06T07:56:24Z</time>
      </trkpt>
      <trkpt lat="45.42041" lon="4.70029">
        <ele>359.67041015625</ele>
        <time>2011-08-06T07:56:33Z</time>
      </trkpt>
      <trkpt lat="45.42052" lon="4.6997">
        <ele>362.55432128906</ele>
        <time>2011-08-06T07:56:45Z</time>
      </trkpt>
      <trkpt lat="45.42061" lon="4.69915">
        <ele>365.43835449219</ele>
        <time>2011-08-06T07:56:56Z</time>
      </trkpt>
      <trkpt lat="45.4207" lon="4.6986">
        <ele>367.84155273438</ele>
        <time>2011-08-06T07:57:07Z</time>
      </trkpt>
      <trkpt lat="45.4207" lon="4.69827">
        <ele>369.28369140625</ele>
        <time>2011-08-06T07:57:14Z</time>
      </trkpt>
      <trkpt lat="45.42064" lon="4.69791">
        <ele>369.76428222656</ele>
        <time>2011-08-06T07:57:21Z</time>
      </trkpt>
      <trkpt lat="45.42047" lon="4.6973">
        <ele>370.7255859375</ele>
        <time>2011-08-06T07:57:32Z</time>
      </trkpt>
      <trkpt lat="45.42029" lon="4.69669">
        <ele>372.16748046875</ele>
        <time>2011-08-06T07:57:42Z</time>
      </trkpt>
      <trkpt lat="45.4202" lon="4.69625">
        <ele>373.12890625</ele>
        <time>2011-08-06T07:57:49Z</time>
      </trkpt>
      <trkpt lat="45.42006" lon="4.69546">
        <ele>375.53210449219</ele>
        <time>2011-08-06T07:58:02Z</time>
      </trkpt>
      <trkpt lat="45.41999" lon="4.69504">
        <ele>377.93542480469</ele>
        <time>2011-08-06T07:58:09Z</time>
      </trkpt>
      <trkpt lat="45.41989" lon="4.69436">
        <ele>380.81945800781</ele>
        <time>2011-08-06T07:58:21Z</time>
      </trkpt>
      <trkpt lat="45.41983" lon="4.69364">
        <ele>382.26135253906</ele>
        <time>2011-08-06T07:58:33Z</time>
      </trkpt>
      <trkpt lat="45.41982" lon="4.69298">
        <ele>383.22265625</ele>
        <time>2011-08-06T07:58:43Z</time>
      </trkpt>
      <trkpt lat="45.41989" lon="4.69223">
        <ele>383.70324707031</ele>
        <time>2011-08-06T07:58:54Z</time>
      </trkpt>
      <trkpt lat="45.41998" lon="4.69143">
        <ele>384.66479492188</ele>
        <time>2011-08-06T07:59:06Z</time>
      </trkpt>
      <trkpt lat="45.42004" lon="4.69089">
        <ele>386.58740234375</ele>
        <time>2011-08-06T07:59:15Z</time>
      </trkpt>
      <trkpt lat="45.42006" lon="4.69067">
        <ele>388.029296875</ele>
        <time>2011-08-06T07:59:19Z</time>
      </trkpt>
      <trkpt lat="45.42016" lon="4.69042">
        <ele>389.47119140625</ele>
        <time>2011-08-06T07:59:24Z</time>
      </trkpt>
      <trkpt lat="45.42017" lon="4.69024">
        <ele>389.95190429688</ele>
        <time>2011-08-06T07:59:27Z</time>
      </trkpt>
      <trkpt lat="45.42015" lon="4.69012">
        <ele>390.4326171875</ele>
        <time>2011-08-06T07:59:29Z</time>
      </trkpt>
      <trkpt lat="45.42017" lon="4.6897">
        <ele>392.8359375</ele>
        <time>2011-08-06T07:59:37Z</time>
      </trkpt>
      <trkpt lat="45.42016" lon="4.68925">
        <ele>394.75854492188</ele>
        <time>2011-08-06T07:59:46Z</time>
      </trkpt>
      <trkpt lat="45.42012" lon="4.68877">
        <ele>396.20056152344</ele>
        <time>2011-08-06T07:59:56Z</time>
      </trkpt>
      <trkpt lat="45.42007" lon="4.68839">
        <ele>398.12316894531</ele>
        <time>2011-08-06T08:00:04Z</time>
      </trkpt>
      <trkpt lat="45.42" lon="4.68797">
        <ele>399.56506347656</ele>
        <time>2011-08-06T08:00:13Z</time>
      </trkpt>
      <trkpt lat="45.4199" lon="4.68742">
        <ele>401.96850585938</ele>
        <time>2011-08-06T08:00:24Z</time>
      </trkpt>
      <trkpt lat="45.41978" lon="4.68682">
        <ele>405.3330078125</ele>
        <time>2011-08-06T08:00:36Z</time>
      </trkpt>
      <trkpt lat="45.41969" lon="4.6864">
        <ele>407.736328125</ele>
        <time>2011-08-06T08:00:45Z</time>
      </trkpt>
      <trkpt lat="45.41959" lon="4.68589">
        <ele>410.1396484375</ele>
        <time>2011-08-06T08:00:56Z</time>
      </trkpt>
      <trkpt lat="45.41949" lon="4.68543">
        <ele>413.02355957031</ele>
        <time>2011-08-06T08:01:06Z</time>
      </trkpt>
      <trkpt lat="45.41931" lon="4.68503">
        <ele>415.42687988281</ele>
        <time>2011-08-06T08:01:16Z</time>
      </trkpt>
      <trkpt lat="45.41912" lon="4.68466">
        <ele>417.83020019531</ele>
        <time>2011-08-06T08:01:25Z</time>
      </trkpt>
      <trkpt lat="45.41893" lon="4.68429">
        <ele>419.27221679688</ele>
        <time>2011-08-06T08:01:34Z</time>
      </trkpt>
      <trkpt lat="45.41864" lon="4.6837">
        <ele>422.63671875</ele>
        <time>2011-08-06T08:01:47Z</time>
      </trkpt>
      <trkpt lat="45.41846" lon="4.68328">
        <ele>426.00134277344</ele>
        <time>2011-08-06T08:01:56Z</time>
      </trkpt>
      <trkpt lat="45.41838" lon="4.68308">
        <ele>426.48205566406</ele>
        <time>2011-08-06T08:02:00Z</time>
      </trkpt>
      <trkpt lat="45.41827" lon="4.68283">
        <ele>427.443359375</ele>
        <time>2011-08-06T08:02:05Z</time>
      </trkpt>
      <trkpt lat="45.41809" lon="4.68237">
        <ele>428.88537597656</ele>
        <time>2011-08-06T08:02:14Z</time>
      </trkpt>
      <trkpt lat="45.41795" lon="4.68194">
        <ele>429.84655761719</ele>
        <time>2011-08-06T08:02:22Z</time>
      </trkpt>
      <trkpt lat="45.4179" lon="4.68177">
        <ele>430.32727050781</ele>
        <time>2011-08-06T08:02:25Z</time>
      </trkpt>
      <trkpt lat="45.41778" lon="4.68133">
        <ele>432.25</ele>
        <time>2011-08-06T08:02:33Z</time>
      </trkpt>
      <trkpt lat="45.41778" lon="4.68106">
        <ele>437.05651855469</ele>
        <time>2011-08-06T08:02:39Z</time>
      </trkpt>
      <trkpt lat="45.41779" lon="4.68102">
        <ele>437.05651855469</ele>
        <time>2011-08-06T08:02:40Z</time>
      </trkpt>
      <trkpt lat="45.41799" lon="4.6806">
        <ele>437.05651855469</ele>
        <time>2011-08-06T08:02:49Z</time>
      </trkpt>
      <trkpt lat="45.4182" lon="4.68016">
        <ele>437.05651855469</ele>
        <time>2011-08-06T08:02:58Z</time>
      </trkpt>
      <trkpt lat="45.41843" lon="4.67969">
        <ele>438.01782226562</ele>
        <time>2011-08-06T08:03:07Z</time>
      </trkpt>
      <trkpt lat="45.4185" lon="4.67953">
        <ele>438.49853515625</ele>
        <time>2011-08-06T08:03:10Z</time>
      </trkpt>
      <trkpt lat="45.4186" lon="4.67933">
        <ele>438.97912597656</ele>
        <time>2011-08-06T08:03:14Z</time>
      </trkpt>
      <trkpt lat="45.41879" lon="4.67895">
        <ele>441.38244628906</ele>
        <time>2011-08-06T08:03:22Z</time>
      </trkpt>
      <trkpt lat="45.41895" lon="4.67854">
        <ele>442.82446289062</ele>
        <time>2011-08-06T08:03:31Z</time>
      </trkpt>
      <trkpt lat="45.41893" lon="4.6783">
        <ele>444.26647949219</ele>
        <time>2011-08-06T08:03:36Z</time>
      </trkpt>
      <trkpt lat="45.4188" lon="4.6781">
        <ele>445.70837402344</ele>
        <time>2011-08-06T08:03:41Z</time>
      </trkpt>
      <trkpt lat="45.41871" lon="4.67801">
        <ele>446.18908691406</ele>
        <time>2011-08-06T08:03:44Z</time>
      </trkpt>
      <trkpt lat="45.41854" lon="4.67812">
        <ele>446.18908691406</ele>
        <time>2011-08-06T08:03:49Z</time>
      </trkpt>
      <trkpt lat="45.41848" lon="4.6782">
        <ele>446.18908691406</ele>
        <time>2011-08-06T08:03:51Z</time>
      </trkpt>
      <trkpt lat="45.41816" lon="4.67858">
        <ele>448.11181640625</ele>
        <time>2011-08-06T08:04:01Z</time>
      </trkpt>
      <trkpt lat="45.418" lon="4.67869">
        <ele>451.47631835938</ele>
        <time>2011-08-06T08:04:05Z</time>
      </trkpt>
      <trkpt lat="45.41777" lon="4.67873">
        <ele>452.91821289062</ele>
        <time>2011-08-06T08:04:11Z</time>
      </trkpt>
      <trkpt lat="45.41759" lon="4.6787">
        <ele>453.39892578125</ele>
        <time>2011-08-06T08:04:18Z</time>
      </trkpt>
      <trkpt lat="45.41743" lon="4.67859">
        <ele>453.39892578125</ele>
        <time>2011-08-06T08:04:23Z</time>
      </trkpt>
      <trkpt lat="45.41722" lon="4.6783">
        <ele>455.32153320312</ele>
        <time>2011-08-06T08:04:30Z</time>
      </trkpt>
      <trkpt lat="45.41705" lon="4.67782">
        <ele>457.24426269531</ele>
        <time>2011-08-06T08:04:39Z</time>
      </trkpt>
      <trkpt lat="45.41693" lon="4.6774">
        <ele>458.68615722656</ele>
        <time>2011-08-06T08:04:47Z</time>
      </trkpt>
      <trkpt lat="45.41679" lon="4.67687">
        <ele>459.16687011719</ele>
        <time>2011-08-06T08:04:57Z</time>
      </trkpt>
      <trkpt lat="45.41669" lon="4.67651">
        <ele>461.08947753906</ele>
        <time>2011-08-06T08:05:04Z</time>
      </trkpt>
      <trkpt lat="45.41665" lon="4.67627">
        <ele>461.57019042969</ele>
        <time>2011-08-06T08:05:09Z</time>
      </trkpt>
      <trkpt lat="45.41659" lon="4.67606">
        <ele>462.05078125</ele>
        <time>2011-08-06T08:05:13Z</time>
      </trkpt>
      <trkpt lat="45.41649" lon="4.6756">
        <ele>463.49279785156</ele>
        <time>2011-08-06T08:05:21Z</time>
      </trkpt>
      <trkpt lat="45.41643" lon="4.67507">
        <ele>464.4541015625</ele>
        <time>2011-08-06T08:05:31Z</time>
      </trkpt>
      <trkpt lat="45.41639" lon="4.6747">
        <ele>465.41552734375</ele>
        <time>2011-08-06T08:05:38Z</time>
      </trkpt>
      <trkpt lat="45.41637" lon="4.67434">
        <ele>465.41552734375</ele>
        <time>2011-08-06T08:05:45Z</time>
      </trkpt>
      <trkpt lat="45.41633" lon="4.67391">
        <ele>467.33813476562</ele>
        <time>2011-08-06T08:05:53Z</time>
      </trkpt>
      <trkpt lat="45.41629" lon="4.67339">
        <ele>471.66394042969</ele>
        <time>2011-08-06T08:06:03Z</time>
      </trkpt>
      <trkpt lat="45.41627" lon="4.67299">
        <ele>474.06726074219</ele>
        <time>2011-08-06T08:06:11Z</time>
      </trkpt>
      <trkpt lat="45.41624" lon="4.67241">
        <ele>477.43188476562</ele>
        <time>2011-08-06T08:06:22Z</time>
      </trkpt>
      <trkpt lat="45.41621" lon="4.67196">
        <ele>479.83508300781</ele>
        <time>2011-08-06T08:06:31Z</time>
      </trkpt>
      <trkpt lat="45.41619" lon="4.67159">
        <ele>481.7578125</ele>
        <time>2011-08-06T08:06:38Z</time>
      </trkpt>
      <trkpt lat="45.41617" lon="4.67113">
        <ele>483.68041992188</ele>
        <time>2011-08-06T08:06:46Z</time>
      </trkpt>
      <trkpt lat="45.41616" lon="4.67084">
        <ele>484.64184570312</ele>
        <time>2011-08-06T08:06:51Z</time>
      </trkpt>
      <trkpt lat="45.4162" lon="4.67037">
        <ele>486.08374023438</ele>
        <time>2011-08-06T08:07:00Z</time>
      </trkpt>
      <trkpt lat="45.41624" lon="4.66996">
        <ele>488.00646972656</ele>
        <time>2011-08-06T08:07:08Z</time>
      </trkpt>
      <trkpt lat="45.41632" lon="4.66938">
        <ele>489.92907714844</ele>
        <time>2011-08-06T08:07:19Z</time>
      </trkpt>
      <trkpt lat="45.41639" lon="4.6689">
        <ele>491.85168457031</ele>
        <time>2011-08-06T08:07:28Z</time>
      </trkpt>
      <trkpt lat="45.41649" lon="4.6686">
        <ele>493.29357910156</ele>
        <time>2011-08-06T08:07:34Z</time>
      </trkpt>
      <trkpt lat="45.41652" lon="4.66857">
        <ele>493.77429199219</ele>
        <time>2011-08-06T08:07:35Z</time>
      </trkpt>
      <trkpt lat="45.41666" lon="4.66864">
        <ele>494.25500488281</ele>
        <time>2011-08-06T08:07:39Z</time>
      </trkpt>
      <trkpt lat="45.41671" lon="4.66879">
        <ele>494.73559570312</ele>
        <time>2011-08-06T08:07:42Z</time>
      </trkpt>
      <trkpt lat="45.41669" lon="4.66919">
        <ele>495.69689941406</ele>
        <time>2011-08-06T08:07:49Z</time>
      </trkpt>
      <trkpt lat="45.41665" lon="4.66965">
        <ele>496.65832519531</ele>
        <time>2011-08-06T08:07:57Z</time>
      </trkpt>
      <trkpt lat="45.41669" lon="4.67017">
        <ele>498.10034179688</ele>
        <time>2011-08-06T08:08:06Z</time>
      </trkpt>
      <trkpt lat="45.41679" lon="4.67067">
        <ele>499.0615234375</ele>
        <time>2011-08-06T08:08:15Z</time>
      </trkpt>
      <trkpt lat="45.41695" lon="4.67101">
        <ele>499.54223632812</ele>
        <time>2011-08-06T08:08:22Z</time>
      </trkpt>
      <trkpt lat="45.41714" lon="4.67127">
        <ele>500.50354003906</ele>
        <time>2011-08-06T08:08:29Z</time>
      </trkpt>
      <trkpt lat="45.41732" lon="4.67143">
        <ele>501.94555664062</ele>
        <time>2011-08-06T08:08:35Z</time>
      </trkpt>
      <trkpt lat="45.41756" lon="4.67147">
        <ele>503.8681640625</ele>
        <time>2011-08-06T08:08:42Z</time>
      </trkpt>
      <trkpt lat="45.41776" lon="4.67134">
        <ele>507.71350097656</ele>
        <time>2011-08-06T08:08:48Z</time>
      </trkpt>
      <trkpt lat="45.4179" lon="4.6711">
        <ele>508.67468261719</ele>
        <time>2011-08-06T08:08:54Z</time>
      </trkpt>
      <trkpt lat="45.41791" lon="4.67087">
        <ele>509.15539550781</ele>
        <time>2011-08-06T08:08:58Z</time>
      </trkpt>
      <trkpt lat="45.41792" lon="4.67076">
        <ele>509.15539550781</ele>
        <time>2011-08-06T08:09:00Z</time>
      </trkpt>
      <trkpt lat="45.41793" lon="4.67046">
        <ele>513.4814453125</ele>
        <time>2011-08-06T08:09:05Z</time>
      </trkpt>
      <trkpt lat="45.41797" lon="4.67008">
        <ele>515.40405273438</ele>
        <time>2011-08-06T08:09:12Z</time>
      </trkpt>
      <trkpt lat="45.418" lon="4.66959">
        <ele>513.96203613281</ele>
        <time>2011-08-06T08:09:21Z</time>
      </trkpt>
      <trkpt lat="45.41803" lon="4.66916">
        <ele>513.96203613281</ele>
        <time>2011-08-06T08:09:29Z</time>
      </trkpt>
      <trkpt lat="45.41805" lon="4.66857">
        <ele>514.44262695312</ele>
        <time>2011-08-06T08:09:40Z</time>
      </trkpt>
      <trkpt lat="45.41806" lon="4.66793">
        <ele>517.32666015625</ele>
        <time>2011-08-06T08:09:51Z</time>
      </trkpt>
      <trkpt lat="45.41808" lon="4.66743">
        <ele>518.28784179688</ele>
        <time>2011-08-06T08:09:59Z</time>
      </trkpt>
      <trkpt lat="45.41813" lon="4.66694">
        <ele>518.7685546875</ele>
        <time>2011-08-06T08:10:08Z</time>
      </trkpt>
      <trkpt lat="45.41822" lon="4.66658">
        <ele>519.24926757812</ele>
        <time>2011-08-06T08:10:15Z</time>
      </trkpt>
      <trkpt lat="45.41837" lon="4.66625">
        <ele>520.21057128906</ele>
        <time>2011-08-06T08:10:22Z</time>
      </trkpt>
      <trkpt lat="45.4186" lon="4.66593">
        <ele>521.17199707031</ele>
        <time>2011-08-06T08:10:30Z</time>
      </trkpt>
      <trkpt lat="45.41885" lon="4.66572">
        <ele>523.09460449219</ele>
        <time>2011-08-06T08:10:38Z</time>
      </trkpt>
      <trkpt lat="45.41917" lon="4.6654">
        <ele>525.01721191406</ele>
        <time>2011-08-06T08:10:48Z</time>
      </trkpt>
      <trkpt lat="45.41943" lon="4.66501">
        <ele>525.49780273438</ele>
        <time>2011-08-06T08:10:57Z</time>
      </trkpt>
      <trkpt lat="45.41966" lon="4.66457">
        <ele>526.93981933594</ele>
        <time>2011-08-06T08:11:07Z</time>
      </trkpt>
      <trkpt lat="45.41991" lon="4.66405">
        <ele>528.86254882812</ele>
        <time>2011-08-06T08:11:19Z</time>
      </trkpt>
      <trkpt lat="45.42009" lon="4.66369">
        <ele>529.34313964844</ele>
        <time>2011-08-06T08:11:27Z</time>
      </trkpt>
      <trkpt lat="45.42032" lon="4.66333">
        <ele>530.78515625</ele>
        <time>2011-08-06T08:11:36Z</time>
      </trkpt>
      <trkpt lat="45.42056" lon="4.66314">
        <ele>532.22705078125</ele>
        <time>2011-08-06T08:11:43Z</time>
      </trkpt>
      <trkpt lat="45.4208" lon="4.66311">
        <ele>533.6689453125</ele>
        <time>2011-08-06T08:11:49Z</time>
      </trkpt>
      <trkpt lat="45.42108" lon="4.66311">
        <ele>535.11096191406</ele>
        <time>2011-08-06T08:11:56Z</time>
      </trkpt>
      <trkpt lat="45.42143" lon="4.66305">
        <ele>536.55310058594</ele>
        <time>2011-08-06T08:12:05Z</time>
      </trkpt>
      <trkpt lat="45.42168" lon="4.66291">
        <ele>538.47570800781</ele>
        <time>2011-08-06T08:12:12Z</time>
      </trkpt>
      <trkpt lat="45.42196" lon="4.6627">
        <ele>539.91760253906</ele>
        <time>2011-08-06T08:12:20Z</time>
      </trkpt>
      <trkpt lat="45.4222" lon="4.66252">
        <ele>541.84020996094</ele>
        <time>2011-08-06T08:12:27Z</time>
      </trkpt>
      <trkpt lat="45.42255" lon="4.66227">
        <ele>544.24365234375</ele>
        <time>2011-08-06T08:12:37Z</time>
      </trkpt>
      <trkpt lat="45.42291" lon="4.66214">
        <ele>546.64685058594</ele>
        <time>2011-08-06T08:12:46Z</time>
      </trkpt>
      <trkpt lat="45.42332" lon="4.66212">
        <ele>549.53076171875</ele>
        <time>2011-08-06T08:12:56Z</time>
      </trkpt>
      <trkpt lat="45.42366" lon="4.66209">
        <ele>550.4921875</ele>
        <time>2011-08-06T08:13:05Z</time>
      </trkpt>
      <trkpt lat="45.42389" lon="4.66194">
        <ele>550.97265625</ele>
        <time>2011-08-06T08:13:11Z</time>
      </trkpt>
      <trkpt lat="45.42395" lon="4.66185">
        <ele>550.97265625</ele>
        <time>2011-08-06T08:13:13Z</time>
      </trkpt>
      <trkpt lat="45.42412" lon="4.66144">
        <ele>550.01147460938</ele>
        <time>2011-08-06T08:13:20Z</time>
      </trkpt>
      <trkpt lat="45.42425" lon="4.66106">
        <ele>550.01147460938</ele>
        <time>2011-08-06T08:13:26Z</time>
      </trkpt>
      <trkpt lat="45.42434" lon="4.66092">
        <ele>549.53076171875</ele>
        <time>2011-08-06T08:13:29Z</time>
      </trkpt>
      <trkpt lat="45.42451" lon="4.66076">
        <ele>549.53076171875</ele>
        <time>2011-08-06T08:13:34Z</time>
      </trkpt>
      <trkpt lat="45.42485" lon="4.66061">
        <ele>550.4921875</ele>
        <time>2011-08-06T08:13:43Z</time>
      </trkpt>
      <trkpt lat="45.42518" lon="4.66047">
        <ele>550.4921875</ele>
        <time>2011-08-06T08:13:51Z</time>
      </trkpt>
      <trkpt lat="45.42548" lon="4.66046">
        <ele>551.93408203125</ele>
        <time>2011-08-06T08:13:59Z</time>
      </trkpt>
      <trkpt lat="45.42577" lon="4.66044">
        <ele>552.41455078125</ele>
        <time>2011-08-06T08:14:07Z</time>
      </trkpt>
      <trkpt lat="45.426" lon="4.66045">
        <ele>553.3759765625</ele>
        <time>2011-08-06T08:14:13Z</time>
      </trkpt>
      <trkpt lat="45.4263" lon="4.66052">
        <ele>554.81787109375</ele>
        <time>2011-08-06T08:14:21Z</time>
      </trkpt>
      <trkpt lat="45.42659" lon="4.66061">
        <ele>555.29858398438</ele>
        <time>2011-08-06T08:14:29Z</time>
      </trkpt>
      <trkpt lat="45.42696" lon="4.66078">
        <ele>555.779296875</ele>
        <time>2011-08-06T08:14:39Z</time>
      </trkpt>
      <trkpt lat="45.4272" lon="4.66099">
        <ele>556.74072265625</ele>
        <time>2011-08-06T08:14:46Z</time>
      </trkpt>
      <trkpt lat="45.42724" lon="4.66103">
        <ele>556.74072265625</ele>
        <time>2011-08-06T08:14:47Z</time>
      </trkpt>
      <trkpt lat="45.4273" lon="4.66111">
        <ele>557.22143554688</ele>
        <time>2011-08-06T08:14:49Z</time>
      </trkpt>
      <trkpt lat="45.42751" lon="4.66132">
        <ele>558.66333007812</ele>
        <time>2011-08-06T08:14:55Z</time>
      </trkpt>
      <trkpt lat="45.42775" lon="4.66136">
        <ele>559.62475585938</ele>
        <time>2011-08-06T08:15:01Z</time>
      </trkpt>
      <trkpt lat="45.42788" lon="4.66123">
        <ele>559.62475585938</ele>
        <time>2011-08-06T08:15:05Z</time>
      </trkpt>
      <trkpt lat="45.42797" lon="4.66096">
        <ele>559.62475585938</ele>
        <time>2011-08-06T08:15:10Z</time>
      </trkpt>
      <trkpt lat="45.42811" lon="4.66039">
        <ele>561.54736328125</ele>
        <time>2011-08-06T08:15:20Z</time>
      </trkpt>
      <trkpt lat="45.42828" lon="4.6599">
        <ele>563.95043945312</ele>
        <time>2011-08-06T08:15:29Z</time>
      </trkpt>
      <trkpt lat="45.42839" lon="4.65967">
        <ele>564.91186523438</ele>
        <time>2011-08-06T08:15:34Z</time>
      </trkpt>
      <trkpt lat="45.42849" lon="4.65949">
        <ele>565.87329101562</ele>
        <time>2011-08-06T08:15:38Z</time>
      </trkpt>
      <trkpt lat="45.42851" lon="4.6593">
        <ele>567.31518554688</ele>
        <time>2011-08-06T08:15:42Z</time>
      </trkpt>
      <trkpt lat="45.42842" lon="4.65926">
        <ele>568.2763671875</ele>
        <time>2011-08-06T08:15:45Z</time>
      </trkpt>
      <trkpt lat="45.42836" lon="4.65929">
        <ele>568.2763671875</ele>
        <time>2011-08-06T08:15:47Z</time>
      </trkpt>
      <trkpt lat="45.42813" lon="4.65953">
        <ele>568.75708007812</ele>
        <time>2011-08-06T08:15:55Z</time>
      </trkpt>
      <trkpt lat="45.42794" lon="4.65977">
        <ele>569.71850585938</ele>
        <time>2011-08-06T08:16:01Z</time>
      </trkpt>
      <trkpt lat="45.42765" lon="4.65991">
        <ele>572.6025390625</ele>
        <time>2011-08-06T08:16:07Z</time>
      </trkpt>
      <trkpt lat="45.4276" lon="4.65992">
        <ele>573.08325195312</ele>
        <time>2011-08-06T08:16:08Z</time>
      </trkpt>
      <trkpt lat="45.42735" lon="4.65991">
        <ele>575.486328125</ele>
        <time>2011-08-06T08:16:13Z</time>
      </trkpt>
      <trkpt lat="45.42688" lon="4.65967">
        <ele>579.81225585938</ele>
        <time>2011-08-06T08:16:24Z</time>
      </trkpt>
      <trkpt lat="45.42651" lon="4.65948">
        <ele>583.1767578125</ele>
        <time>2011-08-06T08:16:33Z</time>
      </trkpt>
      <trkpt lat="45.42632" lon="4.65939">
        <ele>584.61889648438</ele>
        <time>2011-08-06T08:16:38Z</time>
      </trkpt>
      <trkpt lat="45.42583" lon="4.65922">
        <ele>588.94506835938</ele>
        <time>2011-08-06T08:16:50Z</time>
      </trkpt>
      <trkpt lat="45.42561" lon="4.65905">
        <ele>591.34814453125</ele>
        <time>2011-08-06T08:16:56Z</time>
      </trkpt>
      <trkpt lat="45.4253" lon="4.65876">
        <ele>594.23217773438</ele>
        <time>2011-08-06T08:17:05Z</time>
      </trkpt>
      <trkpt lat="45.42511" lon="4.65855">
        <ele>596.15478515625</ele>
        <time>2011-08-06T08:17:11Z</time>
      </trkpt>
      <trkpt lat="45.42482" lon="4.65814">
        <ele>599.03857421875</ele>
        <time>2011-08-06T08:17:21Z</time>
      </trkpt>
      <trkpt lat="45.42466" lon="4.65789">
        <ele>600.96118164062</ele>
        <time>2011-08-06T08:17:27Z</time>
      </trkpt>
      <trkpt lat="45.42448" lon="4.65743">
        <ele>604.806640625</ele>
        <time>2011-08-06T08:17:36Z</time>
      </trkpt>
      <trkpt lat="45.42428" lon="4.6569">
        <ele>607.69067382812</ele>
        <time>2011-08-06T08:17:47Z</time>
      </trkpt>
      <trkpt lat="45.42414" lon="4.65645">
        <ele>610.57446289062</ele>
        <time>2011-08-06T08:17:56Z</time>
      </trkpt>
      <trkpt lat="45.42398" lon="4.65583">
        <ele>614.41967773438</ele>
        <time>2011-08-06T08:18:08Z</time>
      </trkpt>
      <trkpt lat="45.4239" lon="4.65516">
        <ele>617.7841796875</ele>
        <time>2011-08-06T08:18:21Z</time>
      </trkpt>
      <trkpt lat="45.42385" lon="4.65468">
        <ele>619.70703125</ele>
        <time>2011-08-06T08:18:30Z</time>
      </trkpt>
      <trkpt lat="45.42377" lon="4.65426">
        <ele>621.14916992188</ele>
        <time>2011-08-06T08:18:38Z</time>
      </trkpt>
      <trkpt lat="45.42367" lon="4.6539">
        <ele>623.07177734375</ele>
        <time>2011-08-06T08:18:45Z</time>
      </trkpt>
      <trkpt lat="45.42351" lon="4.65341">
        <ele>626.43627929688</ele>
        <time>2011-08-06T08:18:55Z</time>
      </trkpt>
      <trkpt lat="45.42338" lon="4.65292">
        <ele>629.32006835938</ele>
        <time>2011-08-06T08:19:05Z</time>
      </trkpt>
      <trkpt lat="45.42326" lon="4.65236">
        <ele>632.2041015625</ele>
        <time>2011-08-06T08:19:16Z</time>
      </trkpt>
      <trkpt lat="45.42318" lon="4.65196">
        <ele>634.12670898438</ele>
        <time>2011-08-06T08:19:24Z</time>
      </trkpt>
      <trkpt lat="45.42308" lon="4.65146">
        <ele>637.0107421875</ele>
        <time>2011-08-06T08:19:34Z</time>
      </trkpt>
      <trkpt lat="45.42302" lon="4.65111">
        <ele>638.93359375</ele>
        <time>2011-08-06T08:19:41Z</time>
      </trkpt>
      <trkpt lat="45.42293" lon="4.65067">
        <ele>641.33666992188</ele>
        <time>2011-08-06T08:19:50Z</time>
      </trkpt>
      <trkpt lat="45.42285" lon="4.65018">
        <ele>644.701171875</ele>
        <time>2011-08-06T08:20:00Z</time>
      </trkpt>
      <trkpt lat="45.42279" lon="4.64974">
        <ele>647.1044921875</ele>
        <time>2011-08-06T08:20:09Z</time>
      </trkpt>
      <trkpt lat="45.42278" lon="4.64927">
        <ele>649.5078125</ele>
        <time>2011-08-06T08:20:18Z</time>
      </trkpt>
      <trkpt lat="45.42274" lon="4.64878">
        <ele>651.43041992188</ele>
        <time>2011-08-06T08:20:27Z</time>
      </trkpt>
      <trkpt lat="45.42268" lon="4.64817">
        <ele>654.31469726562</ele>
        <time>2011-08-06T08:20:38Z</time>
      </trkpt>
      <trkpt lat="45.42263" lon="4.64755">
        <ele>658.15991210938</ele>
        <time>2011-08-06T08:20:50Z</time>
      </trkpt>
      <trkpt lat="45.42261" lon="4.64708">
        <ele>661.04370117188</ele>
        <time>2011-08-06T08:20:59Z</time>
      </trkpt>
      <trkpt lat="45.42259" lon="4.64663">
        <ele>663.44702148438</ele>
        <time>2011-08-06T08:21:08Z</time>
      </trkpt>
      <trkpt lat="45.42257" lon="4.64627">
        <ele>664.88891601562</ele>
        <time>2011-08-06T08:21:15Z</time>
      </trkpt>
      <trkpt lat="45.42253" lon="4.64587">
        <ele>667.77270507812</ele>
        <time>2011-08-06T08:21:23Z</time>
      </trkpt>
      <trkpt lat="45.42249" lon="4.64532">
        <ele>669.69580078125</ele>
        <time>2011-08-06T08:21:34Z</time>
      </trkpt>
      <trkpt lat="45.42246" lon="4.64476">
        <ele>672.57958984375</ele>
        <time>2011-08-06T08:21:45Z</time>
      </trkpt>
      <trkpt lat="45.4225" lon="4.64434">
        <ele>674.98291015625</ele>
        <time>2011-08-06T08:21:53Z</time>
      </trkpt>
      <trkpt lat="45.42264" lon="4.6439">
        <ele>676.90551757812</ele>
        <time>2011-08-06T08:22:02Z</time>
      </trkpt>
      <trkpt lat="45.42282" lon="4.64334">
        <ele>680.27001953125</ele>
        <time>2011-08-06T08:22:14Z</time>
      </trkpt>
      <trkpt lat="45.42297" lon="4.64293">
        <ele>682.67333984375</ele>
        <time>2011-08-06T08:22:23Z</time>
      </trkpt>
      <trkpt lat="45.42317" lon="4.64233">
        <ele>686.51879882812</ele>
        <time>2011-08-06T08:22:36Z</time>
      </trkpt>
      <trkpt lat="45.42326" lon="4.64199">
        <ele>688.92211914062</ele>
        <time>2011-08-06T08:22:43Z</time>
      </trkpt>
      <trkpt lat="45.42332" lon="4.64174">
        <ele>689.88330078125</ele>
        <time>2011-08-06T08:22:48Z</time>
      </trkpt>
      <trkpt lat="45.42342" lon="4.64122">
        <ele>693.728515625</ele>
        <time>2011-08-06T08:22:58Z</time>
      </trkpt>
      <trkpt lat="45.42354" lon="4.64068">
        <ele>697.09301757812</ele>
        <time>2011-08-06T08:23:08Z</time>
      </trkpt>
      <trkpt lat="45.42365" lon="4.64013">
        <ele>700.4580078125</ele>
        <time>2011-08-06T08:23:18Z</time>
      </trkpt>
      <trkpt lat="45.42376" lon="4.63954">
        <ele>703.82250976562</ele>
        <time>2011-08-06T08:23:29Z</time>
      </trkpt>
      <trkpt lat="45.42382" lon="4.6391">
        <ele>705.7451171875</ele>
        <time>2011-08-06T08:23:37Z</time>
      </trkpt>
      <trkpt lat="45.42387" lon="4.6386">
        <ele>706.70629882812</ele>
        <time>2011-08-06T08:23:45Z</time>
      </trkpt>
      <trkpt lat="45.42385" lon="4.6381">
        <ele>709.59033203125</ele>
        <time>2011-08-06T08:23:53Z</time>
      </trkpt>
      <trkpt lat="45.42387" lon="4.63793">
        <ele>710.55151367188</ele>
        <time>2011-08-06T08:23:56Z</time>
      </trkpt>
      <trkpt lat="45.42395" lon="4.63758">
        <ele>712.47412109375</ele>
        <time>2011-08-06T08:24:04Z</time>
      </trkpt>
      <trkpt lat="45.42397" lon="4.6373">
        <ele>713.916015625</ele>
        <time>2011-08-06T08:24:12Z</time>
      </trkpt>
      <trkpt lat="45.42395" lon="4.63705">
        <ele>714.87744140625</ele>
        <time>2011-08-06T08:24:19Z</time>
      </trkpt>
      <trkpt lat="45.42392" lon="4.63678">
        <ele>716.31958007812</ele>
        <time>2011-08-06T08:24:26Z</time>
      </trkpt>
      <trkpt lat="45.4239" lon="4.63645">
        <ele>718.2421875</ele>
        <time>2011-08-06T08:24:32Z</time>
      </trkpt>
      <trkpt lat="45.42397" lon="4.63611">
        <ele>720.16479492188</ele>
        <time>2011-08-06T08:24:38Z</time>
      </trkpt>
      <trkpt lat="45.42412" lon="4.63558">
        <ele>723.048828125</ele>
        <time>2011-08-06T08:24:48Z</time>
      </trkpt>
      <trkpt lat="45.42418" lon="4.63536">
        <ele>724.97143554688</ele>
        <time>2011-08-06T08:24:52Z</time>
      </trkpt>
      <trkpt lat="45.42421" lon="4.63519">
        <ele>725.9326171875</ele>
        <time>2011-08-06T08:24:55Z</time>
      </trkpt>
      <trkpt lat="45.42419" lon="4.63482">
        <ele>728.81665039062</ele>
        <time>2011-08-06T08:25:02Z</time>
      </trkpt>
      <trkpt lat="45.42414" lon="4.63445">
        <ele>732.18139648438</ele>
        <time>2011-08-06T08:25:09Z</time>
      </trkpt>
      <trkpt lat="45.42411" lon="4.63383">
        <ele>736.50732421875</ele>
        <time>2011-08-06T08:25:21Z</time>
      </trkpt>
      <trkpt lat="45.42411" lon="4.63337">
        <ele>739.39111328125</ele>
        <time>2011-08-06T08:25:30Z</time>
      </trkpt>
      <trkpt lat="45.42413" lon="4.63292">
        <ele>741.79443359375</ele>
        <time>2011-08-06T08:25:39Z</time>
      </trkpt>
      <trkpt lat="45.42413" lon="4.63253">
        <ele>744.67822265625</ele>
        <time>2011-08-06T08:25:47Z</time>
      </trkpt>
      <trkpt lat="45.42411" lon="4.63218">
        <ele>747.08154296875</ele>
        <time>2011-08-06T08:25:54Z</time>
      </trkpt>
      <trkpt lat="45.424" lon="4.63187">
        <ele>749.48510742188</ele>
        <time>2011-08-06T08:26:01Z</time>
      </trkpt>
      <trkpt lat="45.4238" lon="4.63159">
        <ele>751.88842773438</ele>
        <time>2011-08-06T08:26:09Z</time>
      </trkpt>
      <trkpt lat="45.42368" lon="4.63128">
        <ele>754.29174804688</ele>
        <time>2011-08-06T08:26:16Z</time>
      </trkpt>
      <trkpt lat="45.42359" lon="4.63081">
        <ele>757.65625</ele>
        <time>2011-08-06T08:26:26Z</time>
      </trkpt>
      <trkpt lat="45.42351" lon="4.63032">
        <ele>760.5400390625</ele>
        <time>2011-08-06T08:26:36Z</time>
      </trkpt>
      <trkpt lat="45.4235" lon="4.62989">
        <ele>762.943359375</ele>
        <time>2011-08-06T08:26:44Z</time>
      </trkpt>
      <trkpt lat="45.42349" lon="4.62942">
        <ele>765.34692382812</ele>
        <time>2011-08-06T08:26:53Z</time>
      </trkpt>
      <trkpt lat="45.42346" lon="4.62903">
        <ele>767.26953125</ele>
        <time>2011-08-06T08:27:01Z</time>
      </trkpt>
      <trkpt lat="45.42342" lon="4.6286">
        <ele>769.6728515625</ele>
        <time>2011-08-06T08:27:10Z</time>
      </trkpt>
      <trkpt lat="45.42338" lon="4.62821">
        <ele>772.07592773438</ele>
        <time>2011-08-06T08:27:18Z</time>
      </trkpt>
      <trkpt lat="45.42331" lon="4.62783">
        <ele>773.99853515625</ele>
        <time>2011-08-06T08:27:26Z</time>
      </trkpt>
      <trkpt lat="45.4232" lon="4.62755">
        <ele>775.92114257812</ele>
        <time>2011-08-06T08:27:32Z</time>
      </trkpt>
      <trkpt lat="45.42305" lon="4.62743">
        <ele>777.36328125</ele>
        <time>2011-08-06T08:27:37Z</time>
      </trkpt>
      <trkpt lat="45.42291" lon="4.62745">
        <ele>778.32446289062</ele>
        <time>2011-08-06T08:27:41Z</time>
      </trkpt>
      <trkpt lat="45.42267" lon="4.6276">
        <ele>780.72802734375</ele>
        <time>2011-08-06T08:27:48Z</time>
      </trkpt>
      <trkpt lat="45.42242" lon="4.62784">
        <ele>782.65063476562</ele>
        <time>2011-08-06T08:27:57Z</time>
      </trkpt>
      <trkpt lat="45.42212" lon="4.62809">
        <ele>785.05395507812</ele>
        <time>2011-08-06T08:28:07Z</time>
      </trkpt>
      <trkpt lat="45.42201" lon="4.62816">
        <ele>786.97631835938</ele>
        <time>2011-08-06T08:28:11Z</time>
      </trkpt>
      <trkpt lat="45.42182" lon="4.62836">
        <ele>789.37963867188</ele>
        <time>2011-08-06T08:28:18Z</time>
      </trkpt>
      <trkpt lat="45.42161" lon="4.62855">
        <ele>791.78295898438</ele>
        <time>2011-08-06T08:28:25Z</time>
      </trkpt>
      <trkpt lat="45.42142" lon="4.62875">
        <ele>795.1474609375</ele>
        <time>2011-08-06T08:28:32Z</time>
      </trkpt>
      <trkpt lat="45.42123" lon="4.6289">
        <ele>800.43505859375</ele>
        <time>2011-08-06T08:28:38Z</time>
      </trkpt>
      <trkpt lat="45.42108" lon="4.62897">
        <ele>802.83813476562</ele>
        <time>2011-08-06T08:28:43Z</time>
      </trkpt>
      <trkpt lat="45.4209" lon="4.62892">
        <ele>803.31884765625</ele>
        <time>2011-08-06T08:28:48Z</time>
      </trkpt>
      <trkpt lat="45.42075" lon="4.62884">
        <ele>803.79956054688</ele>
        <time>2011-08-06T08:28:53Z</time>
      </trkpt>
      <trkpt lat="45.4206" lon="4.62874">
        <ele>803.79956054688</ele>
        <time>2011-08-06T08:28:58Z</time>
      </trkpt>
      <trkpt lat="45.42048" lon="4.62868">
        <ele>805.72216796875</ele>
        <time>2011-08-06T08:29:02Z</time>
      </trkpt>
      <trkpt lat="45.42029" lon="4.62865">
        <ele>813.41284179688</ele>
        <time>2011-08-06T08:29:08Z</time>
      </trkpt>
      <trkpt lat="45.42009" lon="4.62873">
        <ele>817.25805664062</ele>
        <time>2011-08-06T08:29:13Z</time>
      </trkpt>
      <trkpt lat="45.41999" lon="4.62878">
        <ele>815.81616210938</ele>
        <time>2011-08-06T08:29:15Z</time>
      </trkpt>
      <trkpt lat="45.41989" lon="4.62881">
        <ele>812.93212890625</ele>
        <time>2011-08-06T08:29:17Z</time>
      </trkpt>
      <trkpt lat="45.41979" lon="4.62898">
        <ele>811.48999023438</ele>
        <time>2011-08-06T08:29:21Z</time>
      </trkpt>
      <trkpt lat="45.41975" lon="4.62912">
        <ele>809.5673828125</ele>
        <time>2011-08-06T08:29:24Z</time>
      </trkpt>
      <trkpt lat="45.41968" lon="4.62931">
        <ele>808.60595703125</ele>
        <time>2011-08-06T08:29:28Z</time>
      </trkpt>
      <trkpt lat="45.41958" lon="4.62958">
        <ele>808.12548828125</ele>
        <time>2011-08-06T08:29:34Z</time>
      </trkpt>
      <trkpt lat="45.41953" lon="4.62983">
        <ele>810.52856445312</ele>
        <time>2011-08-06T08:29:39Z</time>
      </trkpt>
      <trkpt lat="45.41949" lon="4.63014">
        <ele>814.3740234375</ele>
        <time>2011-08-06T08:29:45Z</time>
      </trkpt>
      <trkpt lat="45.41941" lon="4.63059">
        <ele>816.29663085938</ele>
        <time>2011-08-06T08:29:54Z</time>
      </trkpt>
      <trkpt lat="45.41928" lon="4.63102">
        <ele>818.21923828125</ele>
        <time>2011-08-06T08:30:03Z</time>
      </trkpt>
      <trkpt lat="45.41916" lon="4.63134">
        <ele>820.62255859375</ele>
        <time>2011-08-06T08:30:10Z</time>
      </trkpt>
      <trkpt lat="45.41899" lon="4.63173">
        <ele>820.62255859375</ele>
        <time>2011-08-06T08:30:19Z</time>
      </trkpt>
      <trkpt lat="45.41885" lon="4.63209">
        <ele>822.54516601562</ele>
        <time>2011-08-06T08:30:27Z</time>
      </trkpt>
      <trkpt lat="45.41875" lon="4.63237">
        <ele>825.42895507812</ele>
        <time>2011-08-06T08:30:33Z</time>
      </trkpt>
      <trkpt lat="45.41863" lon="4.63274">
        <ele>827.35180664062</ele>
        <time>2011-08-06T08:30:41Z</time>
      </trkpt>
      <trkpt lat="45.41858" lon="4.63314">
        <ele>829.2744140625</ele>
        <time>2011-08-06T08:30:49Z</time>
      </trkpt>
      <trkpt lat="45.41851" lon="4.63338">
        <ele>830.71655273438</ele>
        <time>2011-08-06T08:30:54Z</time>
      </trkpt>
      <trkpt lat="45.41848" lon="4.6334">
        <ele>831.197265625</ele>
        <time>2011-08-06T08:30:55Z</time>
      </trkpt>
      <trkpt lat="45.41837" lon="4.6333">
        <ele>832.63916015625</ele>
        <time>2011-08-06T08:30:59Z</time>
      </trkpt>
      <trkpt lat="45.41836" lon="4.63309">
        <ele>833.11962890625</ele>
        <time>2011-08-06T08:31:03Z</time>
      </trkpt>
      <trkpt lat="45.41842" lon="4.63264">
        <ele>835.04248046875</ele>
        <time>2011-08-06T08:31:12Z</time>
      </trkpt>
      <trkpt lat="45.41846" lon="4.63231">
        <ele>836.96484375</ele>
        <time>2011-08-06T08:31:19Z</time>
      </trkpt>
      <trkpt lat="45.41849" lon="4.63198">
        <ele>838.8876953125</ele>
        <time>2011-08-06T08:31:26Z</time>
      </trkpt>
      <trkpt lat="45.41853" lon="4.63146">
        <ele>841.771484375</ele>
        <time>2011-08-06T08:31:37Z</time>
      </trkpt>
      <trkpt lat="45.41857" lon="4.63099">
        <ele>844.17504882812</ele>
        <time>2011-08-06T08:31:47Z</time>
      </trkpt>
      <trkpt lat="45.4186" lon="4.63055">
        <ele>846.57836914062</ele>
        <time>2011-08-06T08:31:56Z</time>
      </trkpt>
      <trkpt lat="45.41862" lon="4.63008">
        <ele>849.46215820312</ele>
        <time>2011-08-06T08:32:06Z</time>
      </trkpt>
      <trkpt lat="45.41861" lon="4.62959">
        <ele>851.86547851562</ele>
        <time>2011-08-06T08:32:16Z</time>
      </trkpt>
      <trkpt lat="45.41859" lon="4.62915">
        <ele>853.7880859375</ele>
        <time>2011-08-06T08:32:25Z</time>
      </trkpt>
      <trkpt lat="45.41859" lon="4.62861">
        <ele>858.59448242188</ele>
        <time>2011-08-06T08:32:36Z</time>
      </trkpt>
      <trkpt lat="45.41859" lon="4.62827">
        <ele>860.03662109375</ele>
        <time>2011-08-06T08:32:43Z</time>
      </trkpt>
      <trkpt lat="45.41856" lon="4.62799">
        <ele>860.51733398438</ele>
        <time>2011-08-06T08:32:49Z</time>
      </trkpt>
      <trkpt lat="45.41856" lon="4.62766">
        <ele>862.92065429688</ele>
        <time>2011-08-06T08:32:56Z</time>
      </trkpt>
      <trkpt lat="45.41851" lon="4.62731">
        <ele>864.36254882812</ele>
        <time>2011-08-06T08:33:03Z</time>
      </trkpt>
      <trkpt lat="45.41851" lon="4.6271">
        <ele>865.32397460938</ele>
        <time>2011-08-06T08:33:08Z</time>
      </trkpt>
      <trkpt lat="45.41851" lon="4.62684">
        <ele>869.64990234375</ele>
        <time>2011-08-06T08:33:14Z</time>
      </trkpt>
      <trkpt lat="45.41841" lon="4.62661">
        <ele>871.091796875</ele>
        <time>2011-08-06T08:33:18Z</time>
      </trkpt>
      <trkpt lat="45.41835" lon="4.62635">
        <ele>872.05297851562</ele>
        <time>2011-08-06T08:33:23Z</time>
      </trkpt>
      <trkpt lat="45.41834" lon="4.6263">
        <ele>872.05297851562</ele>
        <time>2011-08-06T08:33:24Z</time>
      </trkpt>
      <trkpt lat="45.41829" lon="4.62599">
        <ele>872.05297851562</ele>
        <time>2011-08-06T08:33:31Z</time>
      </trkpt>
      <trkpt lat="45.41828" lon="4.62581">
        <ele>873.01440429688</ele>
        <time>2011-08-06T08:33:35Z</time>
      </trkpt>
      <trkpt lat="45.4183" lon="4.62549">
        <ele>874.93701171875</ele>
        <time>2011-08-06T08:33:42Z</time>
      </trkpt>
      <trkpt lat="45.4183" lon="4.62544">
        <ele>875.89819335938</ele>
        <time>2011-08-06T08:33:43Z</time>
      </trkpt>
      <trkpt lat="45.41848" lon="4.62521">
        <ele>879.74365234375</ele>
        <time>2011-08-06T08:33:50Z</time>
      </trkpt>
      <trkpt lat="45.41863" lon="4.62503">
        <ele>883.10815429688</ele>
        <time>2011-08-06T08:33:56Z</time>
      </trkpt>
      <trkpt lat="45.4188" lon="4.62489">
        <ele>885.9921875</ele>
        <time>2011-08-06T08:34:02Z</time>
      </trkpt>
      <trkpt lat="45.41895" lon="4.62484">
        <ele>888.87622070312</ele>
        <time>2011-08-06T08:34:07Z</time>
      </trkpt>
      <trkpt lat="45.41912" lon="4.62486">
        <ele>892.7216796875</ele>
        <time>2011-08-06T08:34:12Z</time>
      </trkpt>
      <trkpt lat="45.41931" lon="4.62495">
        <ele>893.2021484375</ele>
        <time>2011-08-06T08:34:18Z</time>
      </trkpt>
      <trkpt lat="45.41947" lon="4.62507">
        <ele>892.7216796875</ele>
        <time>2011-08-06T08:34:23Z</time>
      </trkpt>
      <trkpt lat="45.41962" lon="4.62514">
        <ele>893.2021484375</ele>
        <time>2011-08-06T08:34:28Z</time>
      </trkpt>
      <trkpt lat="45.41982" lon="4.62508">
        <ele>893.68286132812</ele>
        <time>2011-08-06T08:34:34Z</time>
      </trkpt>
      <trkpt lat="45.41994" lon="4.62494">
        <ele>892.7216796875</ele>
        <time>2011-08-06T08:34:38Z</time>
      </trkpt>
      <trkpt lat="45.42008" lon="4.62471">
        <ele>892.7216796875</ele>
        <time>2011-08-06T08:34:44Z</time>
      </trkpt>
      <trkpt lat="45.42024" lon="4.62446">
        <ele>898.0087890625</ele>
        <time>2011-08-06T08:34:51Z</time>
      </trkpt>
      <trkpt lat="45.42042" lon="4.62419">
        <ele>904.25732421875</ele>
        <time>2011-08-06T08:34:59Z</time>
      </trkpt>
      <trkpt lat="45.42055" lon="4.62403">
        <ele>909.54467773438</ele>
        <time>2011-08-06T08:35:04Z</time>
      </trkpt>
      <trkpt lat="45.42069" lon="4.62387">
        <ele>913.87036132812</ele>
        <time>2011-08-06T08:35:09Z</time>
      </trkpt>
      <trkpt lat="45.42087" lon="4.62358">
        <ele>918.67700195312</ele>
        <time>2011-08-06T08:35:17Z</time>
      </trkpt>
      <trkpt lat="45.42098" lon="4.62338">
        <ele>916.27368164062</ele>
        <time>2011-08-06T08:35:22Z</time>
      </trkpt>
      <trkpt lat="45.42111" lon="4.62322">
        <ele>918.67700195312</ele>
        <time>2011-08-06T08:35:27Z</time>
      </trkpt>
      <trkpt lat="45.42129" lon="4.62299">
        <ele>921.56079101562</ele>
        <time>2011-08-06T08:35:34Z</time>
      </trkpt>
      <trkpt lat="45.42142" lon="4.62282">
        <ele>916.75439453125</ele>
        <time>2011-08-06T08:35:39Z</time>
      </trkpt>
      <trkpt lat="45.42152" lon="4.62263">
        <ele>915.3125</ele>
        <time>2011-08-06T08:35:44Z</time>
      </trkpt>
      <trkpt lat="45.42165" lon="4.6224">
        <ele>914.83178710938</ele>
        <time>2011-08-06T08:35:50Z</time>
      </trkpt>
      <trkpt lat="45.42173" lon="4.62221">
        <ele>913.87036132812</ele>
        <time>2011-08-06T08:35:55Z</time>
      </trkpt>
      <trkpt lat="45.42187" lon="4.62194">
        <ele>915.3125</ele>
        <time>2011-08-06T08:36:02Z</time>
      </trkpt>
      <trkpt lat="45.42199" lon="4.62166">
        <ele>918.1962890625</ele>
        <time>2011-08-06T08:36:09Z</time>
      </trkpt>
      <trkpt lat="45.42215" lon="4.6214">
        <ele>920.11889648438</ele>
        <time>2011-08-06T08:36:16Z</time>
      </trkpt>
      <trkpt lat="45.42224" lon="4.62121">
        <ele>921.08032226562</ele>
        <time>2011-08-06T08:36:21Z</time>
      </trkpt>
      <trkpt lat="45.42236" lon="4.62098">
        <ele>922.04150390625</ele>
        <time>2011-08-06T08:36:27Z</time>
      </trkpt>
      <trkpt lat="45.42249" lon="4.62069">
        <ele>923.96411132812</ele>
        <time>2011-08-06T08:36:34Z</time>
      </trkpt>
      <trkpt lat="45.42262" lon="4.62045">
        <ele>927.3291015625</ele>
        <time>2011-08-06T08:36:41Z</time>
      </trkpt>
      <trkpt lat="45.42276" lon="4.6203">
        <ele>928.29028320312</ele>
        <time>2011-08-06T08:36:47Z</time>
      </trkpt>
      <trkpt lat="45.42299" lon="4.62007">
        <ele>929.25146484375</ele>
        <time>2011-08-06T08:36:55Z</time>
      </trkpt>
      <trkpt lat="45.42328" lon="4.61973">
        <ele>931.65478515625</ele>
        <time>2011-08-06T08:37:06Z</time>
      </trkpt>
      <trkpt lat="45.42349" lon="4.61946">
        <ele>933.0966796875</ele>
        <time>2011-08-06T08:37:14Z</time>
      </trkpt>
      <trkpt lat="45.42379" lon="4.61909">
        <ele>935.98071289062</ele>
        <time>2011-08-06T08:37:25Z</time>
      </trkpt>
      <trkpt lat="45.42402" lon="4.61882">
        <ele>937.9033203125</ele>
        <time>2011-08-06T08:37:33Z</time>
      </trkpt>
      <trkpt lat="45.42433" lon="4.61849">
        <ele>940.30688476562</ele>
        <time>2011-08-06T08:37:44Z</time>
      </trkpt>
      <trkpt lat="45.42465" lon="4.61817">
        <ele>942.71020507812</ele>
        <time>2011-08-06T08:37:55Z</time>
      </trkpt>
      <trkpt lat="45.42489" lon="4.61803">
        <ele>944.15209960938</ele>
        <time>2011-08-06T08:38:03Z</time>
      </trkpt>
      <trkpt lat="45.42509" lon="4.61797">
        <ele>946.55541992188</ele>
        <time>2011-08-06T08:38:09Z</time>
      </trkpt>
      <trkpt lat="45.42525" lon="4.61787">
        <ele>948.47778320312</ele>
        <time>2011-08-06T08:38:14Z</time>
      </trkpt>
      <trkpt lat="45.4253" lon="4.61766">
        <ele>949.919921875</ele>
        <time>2011-08-06T08:38:19Z</time>
      </trkpt>
      <trkpt lat="45.42524" lon="4.61751">
        <ele>949.43920898438</ele>
        <time>2011-08-06T08:38:23Z</time>
      </trkpt>
      <trkpt lat="45.42513" lon="4.61744">
        <ele>949.43920898438</ele>
        <time>2011-08-06T08:38:26Z</time>
      </trkpt>
      <trkpt lat="45.42495" lon="4.61746">
        <ele>950.88110351562</ele>
        <time>2011-08-06T08:38:30Z</time>
      </trkpt>
      <trkpt lat="45.42455" lon="4.61763">
        <ele>953.28442382812</ele>
        <time>2011-08-06T08:38:39Z</time>
      </trkpt>
      <trkpt lat="45.4243" lon="4.61774">
        <ele>955.68774414062</ele>
        <time>2011-08-06T08:38:45Z</time>
      </trkpt>
      <trkpt lat="45.42419" lon="4.6178">
        <ele>956.16845703125</ele>
        <time>2011-08-06T08:38:48Z</time>
      </trkpt>
      <trkpt lat="45.42411" lon="4.61785">
        <ele>956.64916992188</ele>
        <time>2011-08-06T08:38:50Z</time>
      </trkpt>
      <trkpt lat="45.42396" lon="4.61795">
        <ele>957.1298828125</ele>
        <time>2011-08-06T08:38:54Z</time>
      </trkpt>
      <trkpt lat="45.42367" lon="4.61813">
        <ele>959.05249023438</ele>
        <time>2011-08-06T08:39:02Z</time>
      </trkpt>
      <trkpt lat="45.42334" lon="4.61825">
        <ele>962.89770507812</ele>
        <time>2011-08-06T08:39:11Z</time>
      </trkpt>
      <trkpt lat="45.42307" lon="4.61831">
        <ele>964.33959960938</ele>
        <time>2011-08-06T08:39:18Z</time>
      </trkpt>
      <trkpt lat="45.42278" lon="4.6185">
        <ele>966.74291992188</ele>
        <time>2011-08-06T08:39:27Z</time>
      </trkpt>
      <trkpt lat="45.42246" lon="4.61873">
        <ele>969.626953125</ele>
        <time>2011-08-06T08:39:37Z</time>
      </trkpt>
      <trkpt lat="45.42212" lon="4.61899">
        <ele>972.51098632812</ele>
        <time>2011-08-06T08:39:48Z</time>
      </trkpt>
      <trkpt lat="45.42187" lon="4.61917">
        <ele>974.91430664062</ele>
        <time>2011-08-06T08:39:56Z</time>
      </trkpt>
      <trkpt lat="45.42155" lon="4.61943">
        <ele>978.27880859375</ele>
        <time>2011-08-06T08:40:06Z</time>
      </trkpt>
      <trkpt lat="45.4213" lon="4.61961">
        <ele>979.23999023438</ele>
        <time>2011-08-06T08:40:14Z</time>
      </trkpt>
      <trkpt lat="45.42104" lon="4.61978">
        <ele>981.64331054688</ele>
        <time>2011-08-06T08:40:22Z</time>
      </trkpt>
      <trkpt lat="45.42075" lon="4.61993">
        <ele>983.56591796875</ele>
        <time>2011-08-06T08:40:31Z</time>
      </trkpt>
      <trkpt lat="45.42045" lon="4.62007">
        <ele>985.96923828125</ele>
        <time>2011-08-06T08:40:40Z</time>
      </trkpt>
      <trkpt lat="45.42018" lon="4.62018">
        <ele>986.93041992188</ele>
        <time>2011-08-06T08:40:48Z</time>
      </trkpt>
      <trkpt lat="45.41991" lon="4.62031">
        <ele>989.333984375</ele>
        <time>2011-08-06T08:40:56Z</time>
      </trkpt>
      <trkpt lat="45.41973" lon="4.6204">
        <ele>990.77587890625</ele>
        <time>2011-08-06T08:41:02Z</time>
      </trkpt>
      <trkpt lat="45.41955" lon="4.62054">
        <ele>993.65991210938</ele>
        <time>2011-08-06T08:41:08Z</time>
      </trkpt>
      <trkpt lat="45.41939" lon="4.62061">
        <ele>997.0244140625</ele>
        <time>2011-08-06T08:41:13Z</time>
      </trkpt>
      <trkpt lat="45.41924" lon="4.62064">
        <ele>999.427734375</ele>
        <time>2011-08-06T08:41:18Z</time>
      </trkpt>
      <trkpt lat="45.41908" lon="4.62063">
        <ele>1000.8696289062</ele>
        <time>2011-08-06T08:41:23Z</time>
      </trkpt>
      <trkpt lat="45.4189" lon="4.62058">
        <ele>1001.8310546875</ele>
        <time>2011-08-06T08:41:28Z</time>
      </trkpt>
      <trkpt lat="45.4187" lon="4.62053">
        <ele>1007.5991210938</ele>
        <time>2011-08-06T08:41:34Z</time>
      </trkpt>
      <trkpt lat="45.41857" lon="4.62048">
        <ele>1010.0021972656</ele>
        <time>2011-08-06T08:41:38Z</time>
      </trkpt>
      <trkpt lat="45.41833" lon="4.62043">
        <ele>1013.8474121094</ele>
        <time>2011-08-06T08:41:45Z</time>
      </trkpt>
      <trkpt lat="45.41816" lon="4.6204">
        <ele>1016.7314453125</ele>
        <time>2011-08-06T08:41:50Z</time>
      </trkpt>
      <trkpt lat="45.41797" lon="4.62038">
        <ele>1021.0576171875</ele>
        <time>2011-08-06T08:41:55Z</time>
      </trkpt>
      <trkpt lat="45.41782" lon="4.62037">
        <ele>1021.5380859375</ele>
        <time>2011-08-06T08:41:59Z</time>
      </trkpt>
      <trkpt lat="45.41763" lon="4.62036">
        <ele>1021.5380859375</ele>
        <time>2011-08-06T08:42:04Z</time>
      </trkpt>
      <trkpt lat="45.4174" lon="4.62037">
        <ele>1021.5380859375</ele>
        <time>2011-08-06T08:42:10Z</time>
      </trkpt>
      <trkpt lat="45.41718" lon="4.6204">
        <ele>1022.0187988281</ele>
        <time>2011-08-06T08:42:16Z</time>
      </trkpt>
      <trkpt lat="45.41698" lon="4.62041">
        <ele>1025.8640136719</ele>
        <time>2011-08-06T08:42:22Z</time>
      </trkpt>
      <trkpt lat="45.41682" lon="4.62041">
        <ele>1028.2673339844</ele>
        <time>2011-08-06T08:42:27Z</time>
      </trkpt>
      <trkpt lat="45.41658" lon="4.62045">
        <ele>1034.03515625</ele>
        <time>2011-08-06T08:42:34Z</time>
      </trkpt>
      <trkpt lat="45.41646" lon="4.62049">
        <ele>1034.9965820312</ele>
        <time>2011-08-06T08:42:38Z</time>
      </trkpt>
      <trkpt lat="45.41628" lon="4.62055">
        <ele>1030.1899414062</ele>
        <time>2011-08-06T08:42:43Z</time>
      </trkpt>
      <trkpt lat="45.41611" lon="4.62065">
        <ele>1033.0737304688</ele>
        <time>2011-08-06T08:42:48Z</time>
      </trkpt>
      <trkpt lat="45.41592" lon="4.6208">
        <ele>1037.3999023438</ele>
        <time>2011-08-06T08:42:54Z</time>
      </trkpt>
      <trkpt lat="45.41573" lon="4.62093">
        <ele>1036.9191894531</ele>
        <time>2011-08-06T08:43:00Z</time>
      </trkpt>
      <trkpt lat="45.41554" lon="4.62106">
        <ele>1037.8806152344</ele>
        <time>2011-08-06T08:43:06Z</time>
      </trkpt>
      <trkpt lat="45.41538" lon="4.62119">
        <ele>1038.8420410156</ele>
        <time>2011-08-06T08:43:11Z</time>
      </trkpt>
      <trkpt lat="45.41519" lon="4.62135">
        <ele>1035.9577636719</ele>
        <time>2011-08-06T08:43:17Z</time>
      </trkpt>
      <trkpt lat="45.41502" lon="4.62148">
        <ele>1035.9577636719</ele>
        <time>2011-08-06T08:43:22Z</time>
      </trkpt>
      <trkpt lat="45.41484" lon="4.62162">
        <ele>1038.361328125</ele>
        <time>2011-08-06T08:43:28Z</time>
      </trkpt>
      <trkpt lat="45.41448" lon="4.6219">
        <ele>1044.1291503906</ele>
        <time>2011-08-06T08:43:39Z</time>
      </trkpt>
      <trkpt lat="45.41428" lon="4.62208">
        <ele>1047.0129394531</ele>
        <time>2011-08-06T08:43:46Z</time>
      </trkpt>
      <trkpt lat="45.41401" lon="4.62229">
        <ele>1050.8581542969</ele>
        <time>2011-08-06T08:43:54Z</time>
      </trkpt>
      <trkpt lat="45.41376" lon="4.62254">
        <ele>1055.6650390625</ele>
        <time>2011-08-06T08:44:02Z</time>
      </trkpt>
      <trkpt lat="45.41354" lon="4.6228">
        <ele>1059.5102539062</ele>
        <time>2011-08-06T08:44:10Z</time>
      </trkpt>
      <trkpt lat="45.41325" lon="4.62315">
        <ele>1057.5876464844</ele>
        <time>2011-08-06T08:44:21Z</time>
      </trkpt>
      <trkpt lat="45.41309" lon="4.62335">
        <ele>1058.548828125</ele>
        <time>2011-08-06T08:44:27Z</time>
      </trkpt>
      <trkpt lat="45.41287" lon="4.6236">
        <ele>1057.5876464844</ele>
        <time>2011-08-06T08:44:35Z</time>
      </trkpt>
      <trkpt lat="45.41271" lon="4.62361">
        <ele>1058.068359375</ele>
        <time>2011-08-06T08:44:40Z</time>
      </trkpt>
      <trkpt lat="45.41257" lon="4.62346">
        <ele>1057.1069335938</ele>
        <time>2011-08-06T08:44:45Z</time>
      </trkpt>
      <trkpt lat="45.41241" lon="4.62314">
        <ele>1058.068359375</ele>
        <time>2011-08-06T08:44:53Z</time>
      </trkpt>
      <trkpt lat="45.41219" lon="4.6228">
        <ele>1061.9135742188</ele>
        <time>2011-08-06T08:45:03Z</time>
      </trkpt>
      <trkpt lat="45.412" lon="4.6225">
        <ele>1067.2006835938</ele>
        <time>2011-08-06T08:45:12Z</time>
      </trkpt>
      <trkpt lat="45.4119" lon="4.62231">
        <ele>1073.9299316406</ele>
        <time>2011-08-06T08:45:18Z</time>
      </trkpt>
      <trkpt lat="45.41176" lon="4.62208">
        <ele>1080.6591796875</ele>
        <time>2011-08-06T08:45:25Z</time>
      </trkpt>
      <trkpt lat="45.41161" lon="4.62182">
        <ele>1084.0239257812</ele>
        <time>2011-08-06T08:45:33Z</time>
      </trkpt>
      <trkpt lat="45.41142" lon="4.62153">
        <ele>1088.3498535156</ele>
        <time>2011-08-06T08:45:42Z</time>
      </trkpt>
      <trkpt lat="45.41124" lon="4.62133">
        <ele>1090.2724609375</ele>
        <time>2011-08-06T08:45:49Z</time>
      </trkpt>
      <trkpt lat="45.41094" lon="4.6211">
        <ele>1091.2336425781</ele>
        <time>2011-08-06T08:46:00Z</time>
      </trkpt>
      <trkpt lat="45.41072" lon="4.62094">
        <ele>1096.0402832031</ele>
        <time>2011-08-06T08:46:08Z</time>
      </trkpt>
      <trkpt lat="45.41045" lon="4.62071">
        <ele>1099.8854980469</ele>
        <time>2011-08-06T08:46:18Z</time>
      </trkpt>
      <trkpt lat="45.41023" lon="4.62051">
        <ele>1103.7309570312</ele>
        <time>2011-08-06T08:46:26Z</time>
      </trkpt>
      <trkpt lat="45.41008" lon="4.62035">
        <ele>1106.6147460938</ele>
        <time>2011-08-06T08:46:32Z</time>
      </trkpt>
      <trkpt lat="45.40984" lon="4.62012">
        <ele>1106.6147460938</ele>
        <time>2011-08-06T08:46:40Z</time>
      </trkpt>
      <trkpt lat="45.40955" lon="4.61982">
        <ele>1104.2116699219</ele>
        <time>2011-08-06T08:46:50Z</time>
      </trkpt>
      <trkpt lat="45.40932" lon="4.61964">
        <ele>1105.6535644531</ele>
        <time>2011-08-06T08:46:58Z</time>
      </trkpt>
      <trkpt lat="45.40921" lon="4.61957">
        <ele>1107.0954589844</ele>
        <time>2011-08-06T08:47:02Z</time>
      </trkpt>
      <trkpt lat="45.40902" lon="4.61941">
        <ele>1107.0954589844</ele>
        <time>2011-08-06T08:47:08Z</time>
      </trkpt>
      <trkpt lat="45.40882" lon="4.61921">
        <ele>1109.0180664062</ele>
        <time>2011-08-06T08:47:15Z</time>
      </trkpt>
      <trkpt lat="45.40859" lon="4.61907">
        <ele>1116.2280273438</ele>
        <time>2011-08-06T08:47:23Z</time>
      </trkpt>
      <trkpt lat="45.40843" lon="4.61899">
        <ele>1121.0346679688</ele>
        <time>2011-08-06T08:47:29Z</time>
      </trkpt>
      <trkpt lat="45.40825" lon="4.61887">
        <ele>1120.5539550781</ele>
        <time>2011-08-06T08:47:35Z</time>
      </trkpt>
      <trkpt lat="45.408" lon="4.61871">
        <ele>1119.1120605469</ele>
        <time>2011-08-06T08:47:43Z</time>
      </trkpt>
      <trkpt lat="45.40782" lon="4.61862">
        <ele>1119.5927734375</ele>
        <time>2011-08-06T08:47:48Z</time>
      </trkpt>
      <trkpt lat="45.40754" lon="4.61852">
        <ele>1122.9572753906</ele>
        <time>2011-08-06T08:47:57Z</time>
      </trkpt>
      <trkpt lat="45.40734" lon="4.61849">
        <ele>1124.8798828125</ele>
        <time>2011-08-06T08:48:03Z</time>
      </trkpt>
      <trkpt lat="45.4072" lon="4.61848">
        <ele>1128.7250976562</ele>
        <time>2011-08-06T08:48:08Z</time>
      </trkpt>
      <trkpt lat="45.40705" lon="4.61847">
        <ele>1131.1284179688</ele>
        <time>2011-08-06T08:48:13Z</time>
      </trkpt>
      <trkpt lat="45.40684" lon="4.61847">
        <ele>1130.1669921875</ele>
        <time>2011-08-06T08:48:19Z</time>
      </trkpt>
      <trkpt lat="45.40662" lon="4.61845">
        <ele>1130.1669921875</ele>
        <time>2011-08-06T08:48:25Z</time>
      </trkpt>
      <trkpt lat="45.40639" lon="4.61847">
        <ele>1131.6088867188</ele>
        <time>2011-08-06T08:48:32Z</time>
      </trkpt>
      <trkpt lat="45.4062" lon="4.6185">
        <ele>1132.5705566406</ele>
        <time>2011-08-06T08:48:38Z</time>
      </trkpt>
      <trkpt lat="45.40594" lon="4.61856">
        <ele>1137.376953125</ele>
        <time>2011-08-06T08:48:46Z</time>
      </trkpt>
      <trkpt lat="45.40575" lon="4.61856">
        <ele>1138.8190917969</ele>
        <time>2011-08-06T08:48:52Z</time>
      </trkpt>
      <trkpt lat="45.40551" lon="4.61853">
        <ele>1138.3383789062</ele>
        <time>2011-08-06T08:48:59Z</time>
      </trkpt>
      <trkpt lat="45.40525" lon="4.6185">
        <ele>1143.1447753906</ele>
        <time>2011-08-06T08:49:06Z</time>
      </trkpt>
      <trkpt lat="45.40507" lon="4.61845">
        <ele>1145.0673828125</ele>
        <time>2011-08-06T08:49:11Z</time>
      </trkpt>
      <trkpt lat="45.40491" lon="4.61841">
        <ele>1145.5480957031</ele>
        <time>2011-08-06T08:49:16Z</time>
      </trkpt>
      <trkpt lat="45.4047" lon="4.61838">
        <ele>1153.2387695312</ele>
        <time>2011-08-06T08:49:22Z</time>
      </trkpt>
      <trkpt lat="45.40448" lon="4.61838">
        <ele>1165.7360839844</ele>
        <time>2011-08-06T08:49:29Z</time>
      </trkpt>
      <trkpt lat="45.4043" lon="4.61833">
        <ele>1167.6584472656</ele>
        <time>2011-08-06T08:49:34Z</time>
      </trkpt>
      <trkpt lat="45.4041" lon="4.61832">
        <ele>1171.984375</ele>
        <time>2011-08-06T08:49:40Z</time>
      </trkpt>
      <trkpt lat="45.40387" lon="4.61826">
        <ele>1168.6198730469</ele>
        <time>2011-08-06T08:49:46Z</time>
      </trkpt>
      <trkpt lat="45.40366" lon="4.61819">
        <ele>1161.4099121094</ele>
        <time>2011-08-06T08:49:51Z</time>
      </trkpt>
      <trkpt lat="45.40347" lon="4.61817">
        <ele>1158.0454101562</ele>
        <time>2011-08-06T08:49:57Z</time>
      </trkpt>
      <trkpt lat="45.40331" lon="4.61811">
        <ele>1155.1613769531</ele>
        <time>2011-08-06T08:50:01Z</time>
      </trkpt>
      <trkpt lat="45.40319" lon="4.61812">
        <ele>1157.5646972656</ele>
        <time>2011-08-06T08:50:05Z</time>
      </trkpt>
      <trkpt lat="45.40304" lon="4.61817">
        <ele>1159.9677734375</ele>
        <time>2011-08-06T08:50:10Z</time>
      </trkpt>
      <trkpt lat="45.40283" lon="4.61826">
        <ele>1161.4099121094</ele>
        <time>2011-08-06T08:50:16Z</time>
      </trkpt>
      <trkpt lat="45.40265" lon="4.61842">
        <ele>1167.1779785156</ele>
        <time>2011-08-06T08:50:22Z</time>
      </trkpt>
      <trkpt lat="45.40245" lon="4.61869">
        <ele>1172.4650878906</ele>
        <time>2011-08-06T08:50:30Z</time>
      </trkpt>
      <trkpt lat="45.40219" lon="4.61898">
        <ele>1160.9291992188</ele>
        <time>2011-08-06T08:50:40Z</time>
      </trkpt>
      <trkpt lat="45.40194" lon="4.61932">
        <ele>1159.4873046875</ele>
        <time>2011-08-06T08:50:50Z</time>
      </trkpt>
      <trkpt lat="45.40175" lon="4.61962">
        <ele>1159.9677734375</ele>
        <time>2011-08-06T08:50:58Z</time>
      </trkpt>
      <trkpt lat="45.40159" lon="4.61982">
        <ele>1161.4099121094</ele>
        <time>2011-08-06T08:51:04Z</time>
      </trkpt>
      <trkpt lat="45.40135" lon="4.62012">
        <ele>1166.697265625</ele>
        <time>2011-08-06T08:51:13Z</time>
      </trkpt>
      <trkpt lat="45.40118" lon="4.62029">
        <ele>1168.6198730469</ele>
        <time>2011-08-06T08:51:19Z</time>
      </trkpt>
      <trkpt lat="45.401" lon="4.62033">
        <ele>1174.3876953125</ele>
        <time>2011-08-06T08:51:25Z</time>
      </trkpt>
      <trkpt lat="45.40084" lon="4.62023">
        <ele>1177.2717285156</ele>
        <time>2011-08-06T08:51:31Z</time>
      </trkpt>
      <trkpt lat="45.40063" lon="4.62">
        <ele>1178.2329101562</ele>
        <time>2011-08-06T08:51:39Z</time>
      </trkpt>
      <trkpt lat="45.40038" lon="4.61978">
        <ele>1178.2329101562</ele>
        <time>2011-08-06T08:51:48Z</time>
      </trkpt>
      <trkpt lat="45.40017" lon="4.61967">
        <ele>1179.6748046875</ele>
        <time>2011-08-06T08:51:55Z</time>
      </trkpt>
      <trkpt lat="45.39999" lon="4.61947">
        <ele>1181.59765625</ele>
        <time>2011-08-06T08:52:02Z</time>
      </trkpt>
      <trkpt lat="45.39978" lon="4.61908">
        <ele>1183.5202636719</ele>
        <time>2011-08-06T08:52:13Z</time>
      </trkpt>
      <trkpt lat="45.39959" lon="4.61864">
        <ele>1186.404296875</ele>
        <time>2011-08-06T08:52:24Z</time>
      </trkpt>
      <trkpt lat="45.39942" lon="4.61833">
        <ele>1188.3269042969</ele>
        <time>2011-08-06T08:52:33Z</time>
      </trkpt>
      <trkpt lat="45.3993" lon="4.6181">
        <ele>1189.7687988281</ele>
        <time>2011-08-06T08:52:40Z</time>
      </trkpt>
      <trkpt lat="45.39915" lon="4.61782">
        <ele>1191.69140625</ele>
        <time>2011-08-06T08:52:48Z</time>
      </trkpt>
      <trkpt lat="45.39898" lon="4.61753">
        <ele>1193.1333007812</ele>
        <time>2011-08-06T08:52:56Z</time>
      </trkpt>
      <trkpt lat="45.3987" lon="4.61718">
        <ele>1195.5366210938</ele>
        <time>2011-08-06T08:53:08Z</time>
      </trkpt>
      <trkpt lat="45.39851" lon="4.61694">
        <ele>1197.9401855469</ele>
        <time>2011-08-06T08:53:16Z</time>
      </trkpt>
      <trkpt lat="45.39828" lon="4.61663">
        <ele>1201.7854003906</ele>
        <time>2011-08-06T08:53:26Z</time>
      </trkpt>
      <trkpt lat="45.39803" lon="4.61631">
        <ele>1206.1110839844</ele>
        <time>2011-08-06T08:53:36Z</time>
      </trkpt>
      <trkpt lat="45.39775" lon="4.6161">
        <ele>1211.8791503906</ele>
        <time>2011-08-06T08:53:45Z</time>
      </trkpt>
      <trkpt lat="45.39747" lon="4.61595">
        <ele>1221.4921875</ele>
        <time>2011-08-06T08:53:54Z</time>
      </trkpt>
      <trkpt lat="45.39722" lon="4.61589">
        <ele>1231.5861816406</ele>
        <time>2011-08-06T08:54:02Z</time>
      </trkpt>
      <trkpt lat="45.39702" lon="4.61583">
        <ele>1230.625</ele>
        <time>2011-08-06T08:54:07Z</time>
      </trkpt>
      <trkpt lat="45.3967" lon="4.61572">
        <ele>1231.1057128906</ele>
        <time>2011-08-06T08:54:15Z</time>
      </trkpt>
      <trkpt lat="45.39645" lon="4.61566">
        <ele>1232.5476074219</ele>
        <time>2011-08-06T08:54:21Z</time>
      </trkpt>
      <trkpt lat="45.39636" lon="4.61564">
        <ele>1233.0280761719</ele>
        <time>2011-08-06T08:54:23Z</time>
      </trkpt>
      <trkpt lat="45.39609" lon="4.61556">
        <ele>1231.5861816406</ele>
        <time>2011-08-06T08:54:29Z</time>
      </trkpt>
      <trkpt lat="45.39566" lon="4.61542">
        <ele>1230.625</ele>
        <time>2011-08-06T08:54:38Z</time>
      </trkpt>
      <trkpt lat="45.39523" lon="4.61537">
        <ele>1230.1442871094</ele>
        <time>2011-08-06T08:54:46Z</time>
      </trkpt>
      <trkpt lat="45.39471" lon="4.61533">
        <ele>1228.2216796875</ele>
        <time>2011-08-06T08:54:55Z</time>
      </trkpt>
      <trkpt lat="45.39439" lon="4.61535">
        <ele>1229.1828613281</ele>
        <time>2011-08-06T08:55:01Z</time>
      </trkpt>
      <trkpt lat="45.39402" lon="4.61545">
        <ele>1229.1828613281</ele>
        <time>2011-08-06T08:55:08Z</time>
      </trkpt>
      <trkpt lat="45.39355" lon="4.61561">
        <ele>1231.1057128906</ele>
        <time>2011-08-06T08:55:17Z</time>
      </trkpt>
      <trkpt lat="45.39317" lon="4.61573">
        <ele>1232.0668945312</ele>
        <time>2011-08-06T08:55:24Z</time>
      </trkpt>
      <trkpt lat="45.39281" lon="4.61581">
        <ele>1232.0668945312</ele>
        <time>2011-08-06T08:55:30Z</time>
      </trkpt>
      <trkpt lat="45.39237" lon="4.61583">
        <ele>1233.9895019531</ele>
        <time>2011-08-06T08:55:37Z</time>
      </trkpt>
      <trkpt lat="45.39184" lon="4.61577">
        <ele>1236.8732910156</ele>
        <time>2011-08-06T08:55:46Z</time>
      </trkpt>
      <trkpt lat="45.39133" lon="4.61574">
        <ele>1238.7961425781</ele>
        <time>2011-08-06T08:55:55Z</time>
      </trkpt>
      <trkpt lat="45.39092" lon="4.61575">
        <ele>1238.7961425781</ele>
        <time>2011-08-06T08:56:02Z</time>
      </trkpt>
      <trkpt lat="45.39053" lon="4.61578">
        <ele>1240.2380371094</ele>
        <time>2011-08-06T08:56:09Z</time>
      </trkpt>
      <trkpt lat="45.39008" lon="4.6158">
        <ele>1239.2766113281</ele>
        <time>2011-08-06T08:56:17Z</time>
      </trkpt>
      <trkpt lat="45.38968" lon="4.61583">
        <ele>1238.7961425781</ele>
        <time>2011-08-06T08:56:24Z</time>
      </trkpt>
      <trkpt lat="45.38913" lon="4.61583">
        <ele>1239.7573242188</ele>
        <time>2011-08-06T08:56:34Z</time>
      </trkpt>
      <trkpt lat="45.38898" lon="4.61581">
        <ele>1239.7573242188</ele>
        <time>2011-08-06T08:56:37Z</time>
      </trkpt>
      <trkpt lat="45.38886" lon="4.61545">
        <ele>1240.7185058594</ele>
        <time>2011-08-06T09:18:15Z</time>
      </trkpt>
      <trkpt lat="45.38889" lon="4.61536">
        <ele>1240.7185058594</ele>
        <time>2011-08-06T09:18:18Z</time>
      </trkpt>
      <trkpt lat="45.38894" lon="4.61522">
        <ele>1241.6799316406</ele>
        <time>2011-08-06T09:18:25Z</time>
      </trkpt>
      <trkpt lat="45.38898" lon="4.61509">
        <ele>1242.1606445312</ele>
        <time>2011-08-06T09:18:31Z</time>
      </trkpt>
      <trkpt lat="45.38907" lon="4.61488">
        <ele>1243.1218261719</ele>
        <time>2011-08-06T09:18:41Z</time>
      </trkpt>
      <trkpt lat="45.38911" lon="4.61475">
        <ele>1243.6025390625</ele>
        <time>2011-08-06T09:18:47Z</time>
      </trkpt>
      <trkpt lat="45.38915" lon="4.61463">
        <ele>1244.5639648438</ele>
        <time>2011-08-06T09:18:53Z</time>
      </trkpt>
      <trkpt lat="45.38921" lon="4.61449">
        <ele>1245.0446777344</ele>
        <time>2011-08-06T09:19:00Z</time>
      </trkpt>
      <trkpt lat="45.38926" lon="4.61434">
        <ele>1245.525390625</ele>
        <time>2011-08-06T09:19:07Z</time>
      </trkpt>
      <trkpt lat="45.3893" lon="4.61417">
        <ele>1247.4479980469</ele>
        <time>2011-08-06T09:19:15Z</time>
      </trkpt>
      <trkpt lat="45.38932" lon="4.61402">
        <ele>1248.4091796875</ele>
        <time>2011-08-06T09:19:22Z</time>
      </trkpt>
      <trkpt lat="45.38935" lon="4.61386">
        <ele>1249.8513183594</ele>
        <time>2011-08-06T09:19:29Z</time>
      </trkpt>
      <trkpt lat="45.38939" lon="4.61364">
        <ele>1251.7739257812</ele>
        <time>2011-08-06T09:19:38Z</time>
      </trkpt>
      <trkpt lat="45.38942" lon="4.61352">
        <ele>1252.2543945312</ele>
        <time>2011-08-06T09:19:44Z</time>
      </trkpt>
      <trkpt lat="45.38943" lon="4.6134">
        <ele>1253.2158203125</ele>
        <time>2011-08-06T09:19:49Z</time>
      </trkpt>
      <trkpt lat="45.38944" lon="4.61336">
        <ele>1253.2158203125</ele>
        <time>2011-08-06T09:19:51Z</time>
      </trkpt>
      <trkpt lat="45.38948" lon="4.6132">
        <ele>1254.1772460938</ele>
        <time>2011-08-06T09:19:59Z</time>
      </trkpt>
      <trkpt lat="45.38952" lon="4.61302">
        <ele>1254.6577148438</ele>
        <time>2011-08-06T09:20:07Z</time>
      </trkpt>
      <trkpt lat="45.38956" lon="4.61281">
        <ele>1255.1384277344</ele>
        <time>2011-08-06T09:20:16Z</time>
      </trkpt>
      <trkpt lat="45.3896" lon="4.61264">
        <ele>1256.5803222656</ele>
        <time>2011-08-06T09:20:24Z</time>
      </trkpt>
      <trkpt lat="45.38965" lon="4.61239">
        <ele>1258.5029296875</ele>
        <time>2011-08-06T09:20:34Z</time>
      </trkpt>
      <trkpt lat="45.38967" lon="4.61216">
        <ele>1261.3872070312</ele>
        <time>2011-08-06T09:20:43Z</time>
      </trkpt>
      <trkpt lat="45.38967" lon="4.612">
        <ele>1262.3483886719</ele>
        <time>2011-08-06T09:20:49Z</time>
      </trkpt>
      <trkpt lat="45.38965" lon="4.61176">
        <ele>1264.2709960938</ele>
        <time>2011-08-06T09:20:57Z</time>
      </trkpt>
      <trkpt lat="45.38964" lon="4.61155">
        <ele>1265.232421875</ele>
        <time>2011-08-06T09:21:04Z</time>
      </trkpt>
      <trkpt lat="45.38968" lon="4.61144">
        <ele>1266.6743164062</ele>
        <time>2011-08-06T09:21:08Z</time>
      </trkpt>
      <trkpt lat="45.38979" lon="4.61144">
        <ele>1267.6354980469</ele>
        <time>2011-08-06T09:21:14Z</time>
      </trkpt>
      <trkpt lat="45.38988" lon="4.61157">
        <ele>1268.1162109375</ele>
        <time>2011-08-06T09:21:21Z</time>
      </trkpt>
      <trkpt lat="45.38997" lon="4.61182">
        <ele>1269.0776367188</ele>
        <time>2011-08-06T09:21:31Z</time>
      </trkpt>
      <trkpt lat="45.39004" lon="4.61201">
        <ele>1270.0388183594</ele>
        <time>2011-08-06T09:21:39Z</time>
      </trkpt>
      <trkpt lat="45.39012" lon="4.61221">
        <ele>1271.4807128906</ele>
        <time>2011-08-06T09:21:48Z</time>
      </trkpt>
      <trkpt lat="45.3902" lon="4.61241">
        <ele>1272.4421386719</ele>
        <time>2011-08-06T09:21:56Z</time>
      </trkpt>
      <trkpt lat="45.3903" lon="4.61264">
        <ele>1274.3647460938</ele>
        <time>2011-08-06T09:22:05Z</time>
      </trkpt>
      <trkpt lat="45.39041" lon="4.61288">
        <ele>1275.806640625</ele>
        <time>2011-08-06T09:22:15Z</time>
      </trkpt>
      <trkpt lat="45.39049" lon="4.61309">
        <ele>1277.2490234375</ele>
        <time>2011-08-06T09:22:23Z</time>
      </trkpt>
      <trkpt lat="45.39056" lon="4.61332">
        <ele>1279.1713867188</ele>
        <time>2011-08-06T09:22:31Z</time>
      </trkpt>
      <trkpt lat="45.39065" lon="4.61357">
        <ele>1281.5747070312</ele>
        <time>2011-08-06T09:22:40Z</time>
      </trkpt>
      <trkpt lat="45.39075" lon="4.6136">
        <ele>1283.4973144531</ele>
        <time>2011-08-06T09:22:45Z</time>
      </trkpt>
      <trkpt lat="45.39084" lon="4.61351">
        <ele>1284.4587402344</ele>
        <time>2011-08-06T09:22:50Z</time>
      </trkpt>
      <trkpt lat="45.39084" lon="4.61336">
        <ele>1285.9006347656</ele>
        <time>2011-08-06T09:22:55Z</time>
      </trkpt>
      <trkpt lat="45.3908" lon="4.6132">
        <ele>1286.8618164062</ele>
        <time>2011-08-06T09:23:02Z</time>
      </trkpt>
      <trkpt lat="45.39078" lon="4.613">
        <ele>1287.8232421875</ele>
        <time>2011-08-06T09:23:10Z</time>
      </trkpt>
      <trkpt lat="45.39078" lon="4.61279">
        <ele>1289.2651367188</ele>
        <time>2011-08-06T09:23:19Z</time>
      </trkpt>
      <trkpt lat="45.39078" lon="4.6126">
        <ele>1291.1877441406</ele>
        <time>2011-08-06T09:23:27Z</time>
      </trkpt>
      <trkpt lat="45.39078" lon="4.61245">
        <ele>1291.6684570312</ele>
        <time>2011-08-06T09:23:33Z</time>
      </trkpt>
      <trkpt lat="45.39077" lon="4.61227">
        <ele>1293.5913085938</ele>
        <time>2011-08-06T09:23:40Z</time>
      </trkpt>
      <trkpt lat="45.39079" lon="4.61211">
        <ele>1294.5524902344</ele>
        <time>2011-08-06T09:23:46Z</time>
      </trkpt>
      <trkpt lat="45.39081" lon="4.6119">
        <ele>1295.9946289062</ele>
        <time>2011-08-06T09:23:54Z</time>
      </trkpt>
      <trkpt lat="45.39085" lon="4.61165">
        <ele>1297.4365234375</ele>
        <time>2011-08-06T09:24:03Z</time>
      </trkpt>
      <trkpt lat="45.3909" lon="4.6114">
        <ele>1299.3591308594</ele>
        <time>2011-08-06T09:24:12Z</time>
      </trkpt>
      <trkpt lat="45.39094" lon="4.61123">
        <ele>1300.8010253906</ele>
        <time>2011-08-06T09:24:19Z</time>
      </trkpt>
      <trkpt lat="45.39097" lon="4.61109">
        <ele>1301.2817382812</ele>
        <time>2011-08-06T09:24:25Z</time>
      </trkpt>
      <trkpt lat="45.39102" lon="4.61091">
        <ele>1302.2429199219</ele>
        <time>2011-08-06T09:24:32Z</time>
      </trkpt>
      <trkpt lat="45.39106" lon="4.61073">
        <ele>1303.6850585938</ele>
        <time>2011-08-06T09:24:39Z</time>
      </trkpt>
      <trkpt lat="45.39109" lon="4.61055">
        <ele>1305.6076660156</ele>
        <time>2011-08-06T09:24:45Z</time>
      </trkpt>
      <trkpt lat="45.39112" lon="4.61039">
        <ele>1307.0495605469</ele>
        <time>2011-08-06T09:24:51Z</time>
      </trkpt>
      <trkpt lat="45.39117" lon="4.6102">
        <ele>1308.0112304688</ele>
        <time>2011-08-06T09:24:59Z</time>
      </trkpt>
      <trkpt lat="45.39121" lon="4.61002">
        <ele>1308.9724121094</ele>
        <time>2011-08-06T09:25:06Z</time>
      </trkpt>
      <trkpt lat="45.39123" lon="4.60982">
        <ele>1309.93359375</ele>
        <time>2011-08-06T09:25:14Z</time>
      </trkpt>
      <trkpt lat="45.39122" lon="4.60961">
        <ele>1313.2983398438</ele>
        <time>2011-08-06T09:25:21Z</time>
      </trkpt>
      <trkpt lat="45.39122" lon="4.60942">
        <ele>1314.2595214844</ele>
        <time>2011-08-06T09:25:28Z</time>
      </trkpt>
      <trkpt lat="45.39124" lon="4.60924">
        <ele>1316.1821289062</ele>
        <time>2011-08-06T09:25:35Z</time>
      </trkpt>
      <trkpt lat="45.39127" lon="4.60899">
        <ele>1317.1435546875</ele>
        <time>2011-08-06T09:25:44Z</time>
      </trkpt>
      <trkpt lat="45.3913" lon="4.60873">
        <ele>1319.546875</ele>
        <time>2011-08-06T09:25:53Z</time>
      </trkpt>
      <trkpt lat="45.39139" lon="4.60854">
        <ele>1321.4692382812</ele>
        <time>2011-08-06T09:26:01Z</time>
      </trkpt>
      <trkpt lat="45.39151" lon="4.60844">
        <ele>1323.3920898438</ele>
        <time>2011-08-06T09:26:08Z</time>
      </trkpt>
      <trkpt lat="45.39167" lon="4.60839">
        <ele>1324.8342285156</ele>
        <time>2011-08-06T09:26:15Z</time>
      </trkpt>
      <trkpt lat="45.39185" lon="4.60844">
        <ele>1327.2375488281</ele>
        <time>2011-08-06T09:26:23Z</time>
      </trkpt>
      <trkpt lat="45.39198" lon="4.60854">
        <ele>1329.1599121094</ele>
        <time>2011-08-06T09:26:29Z</time>
      </trkpt>
      <trkpt lat="45.39215" lon="4.60865">
        <ele>1331.0827636719</ele>
        <time>2011-08-06T09:26:37Z</time>
      </trkpt>
      <trkpt lat="45.39233" lon="4.60881">
        <ele>1333.0051269531</ele>
        <time>2011-08-06T09:26:45Z</time>
      </trkpt>
      <trkpt lat="45.39248" lon="4.60905">
        <ele>1335.4084472656</ele>
        <time>2011-08-06T09:26:54Z</time>
      </trkpt>
      <trkpt lat="45.39257" lon="4.60927">
        <ele>1336.8503417969</ele>
        <time>2011-08-06T09:27:01Z</time>
      </trkpt>
      <trkpt lat="45.39269" lon="4.60954">
        <ele>1339.2536621094</ele>
        <time>2011-08-06T09:27:10Z</time>
      </trkpt>
      <trkpt lat="45.39285" lon="4.60987">
        <ele>1341.6572265625</ele>
        <time>2011-08-06T09:27:21Z</time>
      </trkpt>
      <trkpt lat="45.39286" lon="4.60991">
        <ele>1342.1379394531</ele>
        <time>2011-08-06T09:27:22Z</time>
      </trkpt>
      <trkpt lat="45.39277" lon="4.61001">
        <ele>1344.060546875</ele>
        <time>2011-08-06T09:27:26Z</time>
      </trkpt>
      <trkpt lat="45.39266" lon="4.60988">
        <ele>1345.9831542969</ele>
        <time>2011-08-06T09:27:30Z</time>
      </trkpt>
      <trkpt lat="45.39257" lon="4.60976">
        <ele>1346.9443359375</ele>
        <time>2011-08-06T09:27:34Z</time>
      </trkpt>
      <trkpt lat="45.39242" lon="4.60969">
        <ele>1347.9057617188</ele>
        <time>2011-08-06T09:27:40Z</time>
      </trkpt>
      <trkpt lat="45.39228" lon="4.6098">
        <ele>1349.34765625</ele>
        <time>2011-08-06T09:27:46Z</time>
      </trkpt>
      <trkpt lat="45.39222" lon="4.61001">
        <ele>1350.7895507812</ele>
        <time>2011-08-06T09:27:52Z</time>
      </trkpt>
      <trkpt lat="45.39222" lon="4.61019">
        <ele>1351.7509765625</ele>
        <time>2011-08-06T09:27:59Z</time>
      </trkpt>
      <trkpt lat="45.39221" lon="4.61019">
        <ele>1352.2314453125</ele>
        <time>2011-08-06T09:28:01Z</time>
      </trkpt>
      <trkpt lat="45.39074" lon="4.61361">
        <ele>1282.5361328125</ele>
        <time>2011-08-06T09:45:32Z</time>
      </trkpt>
      <trkpt lat="45.39061" lon="4.61346">
        <ele>1279.6520996094</ele>
        <time>2011-08-06T09:45:34Z</time>
      </trkpt>
      <trkpt lat="45.39051" lon="4.61306">
        <ele>1277.2490234375</ele>
        <time>2011-08-06T09:45:38Z</time>
      </trkpt>
      <trkpt lat="45.39024" lon="4.61239">
        <ele>1272.4421386719</ele>
        <time>2011-08-06T09:45:45Z</time>
      </trkpt>
      <trkpt lat="45.38998" lon="4.61175">
        <ele>1265.7131347656</ele>
        <time>2011-08-06T09:45:51Z</time>
      </trkpt>
      <trkpt lat="45.38994" lon="4.61164">
        <ele>1264.7517089844</ele>
        <time>2011-08-06T09:45:52Z</time>
      </trkpt>
      <trkpt lat="45.38973" lon="4.61142">
        <ele>1261.3872070312</ele>
        <time>2011-08-06T09:45:56Z</time>
      </trkpt>
      <trkpt lat="45.38966" lon="4.61158">
        <ele>1259.9448242188</ele>
        <time>2011-08-06T09:45:58Z</time>
      </trkpt>
      <trkpt lat="45.38967" lon="4.61181">
        <ele>1258.9836425781</ele>
        <time>2011-08-06T09:46:00Z</time>
      </trkpt>
      <trkpt lat="45.38966" lon="4.61233">
        <ele>1256.5803222656</ele>
        <time>2011-08-06T09:46:04Z</time>
      </trkpt>
      <trkpt lat="45.38948" lon="4.61324">
        <ele>1250.33203125</ele>
        <time>2011-08-06T09:46:10Z</time>
      </trkpt>
      <trkpt lat="45.38922" lon="4.61442">
        <ele>1242.1606445312</ele>
        <time>2011-08-06T09:46:17Z</time>
      </trkpt>
      <trkpt lat="45.38892" lon="4.61532">
        <ele>1235.912109375</ele>
        <time>2011-08-06T09:46:23Z</time>
      </trkpt>
      <trkpt lat="45.38889" lon="4.61543">
        <ele>1235.4313964844</ele>
        <time>2011-08-06T09:46:24Z</time>
      </trkpt>
      <trkpt lat="45.38889" lon="4.61573">
        <ele>1233.5087890625</ele>
        <time>2011-08-06T09:46:28Z</time>
      </trkpt>
      <trkpt lat="45.38892" lon="4.61579">
        <ele>1233.0280761719</ele>
        <time>2011-08-06T09:46:31Z</time>
      </trkpt>
      <trkpt lat="45.38892" lon="4.61578">
        <ele>1234.4702148438</ele>
        <time>2011-08-06T09:46:41Z</time>
      </trkpt>
      <trkpt lat="45.38893" lon="4.61578">
        <ele>1234.9509277344</ele>
        <time>2011-08-06T09:46:53Z</time>
      </trkpt>
      <trkpt lat="45.38905" lon="4.61587">
        <ele>1235.4313964844</ele>
        <time>2011-08-06T09:46:58Z</time>
      </trkpt>
      <trkpt lat="45.38909" lon="4.61588">
        <ele>1235.4313964844</ele>
        <time>2011-08-06T09:46:59Z</time>
      </trkpt>
      <trkpt lat="45.38942" lon="4.6159">
        <ele>1234.9509277344</ele>
        <time>2011-08-06T09:47:05Z</time>
      </trkpt>
      <trkpt lat="45.38987" lon="4.61588">
        <ele>1235.4313964844</ele>
        <time>2011-08-06T09:47:12Z</time>
      </trkpt>
      <trkpt lat="45.39049" lon="4.61584">
        <ele>1235.4313964844</ele>
        <time>2011-08-06T09:47:22Z</time>
      </trkpt>
      <trkpt lat="45.39097" lon="4.61581">
        <ele>1234.4702148438</ele>
        <time>2011-08-06T09:47:29Z</time>
      </trkpt>
      <trkpt lat="45.39159" lon="4.6158">
        <ele>1233.5087890625</ele>
        <time>2011-08-06T09:47:37Z</time>
      </trkpt>
      <trkpt lat="45.39225" lon="4.61586">
        <ele>1232.0668945312</ele>
        <time>2011-08-06T09:47:45Z</time>
      </trkpt>
      <trkpt lat="45.39275" lon="4.61588">
        <ele>1231.1057128906</ele>
        <time>2011-08-06T09:47:51Z</time>
      </trkpt>
      <trkpt lat="45.3934" lon="4.61575">
        <ele>1230.625</ele>
        <time>2011-08-06T09:47:59Z</time>
      </trkpt>
      <trkpt lat="45.39388" lon="4.61557">
        <ele>1228.2216796875</ele>
        <time>2011-08-06T09:48:05Z</time>
      </trkpt>
      <trkpt lat="45.39455" lon="4.61537">
        <ele>1225.8181152344</ele>
        <time>2011-08-06T09:48:13Z</time>
      </trkpt>
      <trkpt lat="45.39518" lon="4.61537">
        <ele>1224.3762207031</ele>
        <time>2011-08-06T09:48:20Z</time>
      </trkpt>
      <trkpt lat="45.39579" lon="4.61544">
        <ele>1222.4536132812</ele>
        <time>2011-08-06T09:48:27Z</time>
      </trkpt>
      <trkpt lat="45.39633" lon="4.61561">
        <ele>1221.9729003906</ele>
        <time>2011-08-06T09:48:33Z</time>
      </trkpt>
      <trkpt lat="45.39679" lon="4.61573">
        <ele>1220.0502929688</ele>
        <time>2011-08-06T09:48:38Z</time>
      </trkpt>
      <trkpt lat="45.39729" lon="4.61587">
        <ele>1216.6857910156</ele>
        <time>2011-08-06T09:48:43Z</time>
      </trkpt>
      <trkpt lat="45.39773" lon="4.61613">
        <ele>1213.8017578125</ele>
        <time>2011-08-06T09:48:47Z</time>
      </trkpt>
      <trkpt lat="45.39784" lon="4.61622">
        <ele>1212.8405761719</ele>
        <time>2011-08-06T09:48:48Z</time>
      </trkpt>
      <trkpt lat="45.39827" lon="4.61667">
        <ele>1208.0339355469</ele>
        <time>2011-08-06T09:48:52Z</time>
      </trkpt>
      <trkpt lat="45.39875" lon="4.6173">
        <ele>1201.3046875</ele>
        <time>2011-08-06T09:48:57Z</time>
      </trkpt>
      <trkpt lat="45.39914" lon="4.6179">
        <ele>1195.5366210938</ele>
        <time>2011-08-06T09:49:01Z</time>
      </trkpt>
      <trkpt lat="45.39958" lon="4.61874">
        <ele>1187.3654785156</ele>
        <time>2011-08-06T09:49:06Z</time>
      </trkpt>
      <trkpt lat="45.39982" lon="4.61927">
        <ele>1183.0395507812</ele>
        <time>2011-08-06T09:49:09Z</time>
      </trkpt>
      <trkpt lat="45.40028" lon="4.61979">
        <ele>1177.2717285156</ele>
        <time>2011-08-06T09:49:13Z</time>
      </trkpt>
      <trkpt lat="45.40079" lon="4.62021">
        <ele>1171.0231933594</ele>
        <time>2011-08-06T09:49:17Z</time>
      </trkpt>
      <trkpt lat="45.4011" lon="4.62039">
        <ele>1166.2165527344</ele>
        <time>2011-08-06T09:49:20Z</time>
      </trkpt>
      <trkpt lat="45.40133" lon="4.62028">
        <ele>1163.8129882812</ele>
        <time>2011-08-06T09:49:22Z</time>
      </trkpt>
      <trkpt lat="45.40144" lon="4.62016">
        <ele>1162.37109375</ele>
        <time>2011-08-06T09:49:23Z</time>
      </trkpt>
      <trkpt lat="45.40192" lon="4.6195">
        <ele>1155.6420898438</ele>
        <time>2011-08-06T09:49:28Z</time>
      </trkpt>
      <trkpt lat="45.40248" lon="4.61863">
        <ele>1151.3161621094</ele>
        <time>2011-08-06T09:49:34Z</time>
      </trkpt>
      <trkpt lat="45.40279" lon="4.6183">
        <ele>1149.3935546875</ele>
        <time>2011-08-06T09:49:37Z</time>
      </trkpt>
      <trkpt lat="45.40315" lon="4.61827">
        <ele>1148.9128417969</ele>
        <time>2011-08-06T09:49:40Z</time>
      </trkpt>
      <trkpt lat="45.40337" lon="4.61823">
        <ele>1146.5095214844</ele>
        <time>2011-08-06T09:49:42Z</time>
      </trkpt>
      <trkpt lat="45.40434" lon="4.61828">
        <ele>1136.8962402344</ele>
        <time>2011-08-06T09:49:49Z</time>
      </trkpt>
      <trkpt lat="45.40489" lon="4.61844">
        <ele>1130.1669921875</ele>
        <time>2011-08-06T09:49:53Z</time>
      </trkpt>
      <trkpt lat="45.40564" lon="4.61857">
        <ele>1124.3991699219</ele>
        <time>2011-08-06T09:49:58Z</time>
      </trkpt>
      <trkpt lat="45.40621" lon="4.61854">
        <ele>1121.0346679688</ele>
        <time>2011-08-06T09:50:02Z</time>
      </trkpt>
      <trkpt lat="45.40705" lon="4.61845">
        <ele>1112.86328125</ele>
        <time>2011-08-06T09:50:08Z</time>
      </trkpt>
      <trkpt lat="45.40773" lon="4.61856">
        <ele>1104.6921386719</ele>
        <time>2011-08-06T09:50:13Z</time>
      </trkpt>
      <trkpt lat="45.40841" lon="4.61893">
        <ele>1097.4821777344</ele>
        <time>2011-08-06T09:50:18Z</time>
      </trkpt>
      <trkpt lat="45.40893" lon="4.61939">
        <ele>1093.6369628906</ele>
        <time>2011-08-06T09:50:22Z</time>
      </trkpt>
      <trkpt lat="45.40957" lon="4.61993">
        <ele>1089.7917480469</ele>
        <time>2011-08-06T09:50:27Z</time>
      </trkpt>
      <trkpt lat="45.41018" lon="4.62052">
        <ele>1084.0239257812</ele>
        <time>2011-08-06T09:50:32Z</time>
      </trkpt>
      <trkpt lat="45.41067" lon="4.62095">
        <ele>1079.2170410156</ele>
        <time>2011-08-06T09:50:36Z</time>
      </trkpt>
      <trkpt lat="45.41125" lon="4.62141">
        <ele>1074.8913574219</ele>
        <time>2011-08-06T09:50:41Z</time>
      </trkpt>
      <trkpt lat="45.41165" lon="4.62198">
        <ele>1069.1235351562</ele>
        <time>2011-08-06T09:50:45Z</time>
      </trkpt>
      <trkpt lat="45.41224" lon="4.62293">
        <ele>1059.5102539062</ele>
        <time>2011-08-06T09:50:51Z</time>
      </trkpt>
      <trkpt lat="45.41259" lon="4.62353">
        <ele>1053.7424316406</ele>
        <time>2011-08-06T09:50:55Z</time>
      </trkpt>
      <trkpt lat="45.41284" lon="4.62367">
        <ele>1050.3776855469</ele>
        <time>2011-08-06T09:50:58Z</time>
      </trkpt>
      <trkpt lat="45.41301" lon="4.62356">
        <ele>1048.4548339844</ele>
        <time>2011-08-06T09:51:00Z</time>
      </trkpt>
      <trkpt lat="45.41317" lon="4.62334">
        <ele>1047.0129394531</ele>
        <time>2011-08-06T09:51:02Z</time>
      </trkpt>
      <trkpt lat="45.41368" lon="4.62263">
        <ele>1042.6872558594</ele>
        <time>2011-08-06T09:51:08Z</time>
      </trkpt>
      <trkpt lat="45.4142" lon="4.62217">
        <ele>1038.361328125</ele>
        <time>2011-08-06T09:51:13Z</time>
      </trkpt>
      <trkpt lat="45.41488" lon="4.62169">
        <ele>1034.03515625</ele>
        <time>2011-08-06T09:51:19Z</time>
      </trkpt>
      <trkpt lat="45.41531" lon="4.62132">
        <ele>1030.1899414062</ele>
        <time>2011-08-06T09:51:23Z</time>
      </trkpt>
      <trkpt lat="45.41585" lon="4.62083">
        <ele>1023.94140625</ele>
        <time>2011-08-06T09:51:28Z</time>
      </trkpt>
      <trkpt lat="45.41631" lon="4.62053">
        <ele>1022.0187988281</ele>
        <time>2011-08-06T09:51:32Z</time>
      </trkpt>
      <trkpt lat="45.41682" lon="4.62043">
        <ele>1017.6926269531</ele>
        <time>2011-08-06T09:51:36Z</time>
      </trkpt>
      <trkpt lat="45.41758" lon="4.6204">
        <ele>1010.4829101562</ele>
        <time>2011-08-06T09:51:42Z</time>
      </trkpt>
      <trkpt lat="45.41835" lon="4.62048">
        <ele>1005.6765136719</ele>
        <time>2011-08-06T09:51:48Z</time>
      </trkpt>
      <trkpt lat="45.41903" lon="4.62071">
        <ele>1000.8696289062</ele>
        <time>2011-08-06T09:51:53Z</time>
      </trkpt>
      <trkpt lat="45.41931" lon="4.62074">
        <ele>999.427734375</ele>
        <time>2011-08-06T09:51:55Z</time>
      </trkpt>
      <trkpt lat="45.41985" lon="4.62048">
        <ele>995.10180664062</ele>
        <time>2011-08-06T09:51:59Z</time>
      </trkpt>
      <trkpt lat="45.4205" lon="4.62014">
        <ele>988.853515625</ele>
        <time>2011-08-06T09:52:04Z</time>
      </trkpt>
      <trkpt lat="45.42124" lon="4.61976">
        <ele>981.16284179688</ele>
        <time>2011-08-06T09:52:10Z</time>
      </trkpt>
      <trkpt lat="45.42194" lon="4.61922">
        <ele>972.99169921875</ele>
        <time>2011-08-06T09:52:16Z</time>
      </trkpt>
      <trkpt lat="45.42274" lon="4.61857">
        <ele>964.33959960938</ele>
        <time>2011-08-06T09:52:23Z</time>
      </trkpt>
      <trkpt lat="45.42321" lon="4.61832">
        <ele>960.49438476562</ele>
        <time>2011-08-06T09:52:27Z</time>
      </trkpt>
      <trkpt lat="45.42369" lon="4.61816">
        <ele>957.1298828125</ele>
        <time>2011-08-06T09:52:31Z</time>
      </trkpt>
      <trkpt lat="45.42436" lon="4.61772">
        <ele>951.36181640625</ele>
        <time>2011-08-06T09:52:37Z</time>
      </trkpt>
      <trkpt lat="45.42492" lon="4.61749">
        <ele>947.5166015625</ele>
        <time>2011-08-06T09:52:42Z</time>
      </trkpt>
      <trkpt lat="45.42507" lon="4.61743">
        <ele>946.55541992188</ele>
        <time>2011-08-06T09:52:44Z</time>
      </trkpt>
      <trkpt lat="45.42517" lon="4.61737">
        <ele>945.11328125</ele>
        <time>2011-08-06T09:52:47Z</time>
      </trkpt>
      <trkpt lat="45.42521" lon="4.61736">
        <ele>940.30688476562</ele>
        <time>2011-08-06T10:35:31Z</time>
      </trkpt>
      <trkpt lat="45.42521" lon="4.61737">
        <ele>940.78735351562</ele>
        <time>2011-08-06T10:35:32Z</time>
      </trkpt>
      <trkpt lat="45.42523" lon="4.6174">
        <ele>941.26806640625</ele>
        <time>2011-08-06T10:35:33Z</time>
      </trkpt>
      <trkpt lat="45.42527" lon="4.61762">
        <ele>942.71020507812</ele>
        <time>2011-08-06T10:35:42Z</time>
      </trkpt>
      <trkpt lat="45.42527" lon="4.61777">
        <ele>942.71020507812</ele>
        <time>2011-08-06T10:35:46Z</time>
      </trkpt>
      <trkpt lat="45.42517" lon="4.6179">
        <ele>941.74877929688</ele>
        <time>2011-08-06T10:35:50Z</time>
      </trkpt>
      <trkpt lat="45.42492" lon="4.61797">
        <ele>939.82592773438</ele>
        <time>2011-08-06T10:35:56Z</time>
      </trkpt>
      <trkpt lat="45.42469" lon="4.61812">
        <ele>937.9033203125</ele>
        <time>2011-08-06T10:36:01Z</time>
      </trkpt>
      <trkpt lat="45.4244" lon="4.6184">
        <ele>934.53881835938</ele>
        <time>2011-08-06T10:36:07Z</time>
      </trkpt>
      <trkpt lat="45.42402" lon="4.61881">
        <ele>929.25146484375</ele>
        <time>2011-08-06T10:36:15Z</time>
      </trkpt>
      <trkpt lat="45.42382" lon="4.61903">
        <ele>926.36767578125</ele>
        <time>2011-08-06T10:36:19Z</time>
      </trkpt>
      <trkpt lat="45.42363" lon="4.61927">
        <ele>923.48364257812</ele>
        <time>2011-08-06T10:36:23Z</time>
      </trkpt>
      <trkpt lat="45.42331" lon="4.61968">
        <ele>918.67700195312</ele>
        <time>2011-08-06T10:36:30Z</time>
      </trkpt>
      <trkpt lat="45.42288" lon="4.62016">
        <ele>913.38989257812</ele>
        <time>2011-08-06T10:36:39Z</time>
      </trkpt>
      <trkpt lat="45.42256" lon="4.62052">
        <ele>910.02514648438</ele>
        <time>2011-08-06T10:36:46Z</time>
      </trkpt>
      <trkpt lat="45.42235" lon="4.62099">
        <ele>910.98657226562</ele>
        <time>2011-08-06T10:36:53Z</time>
      </trkpt>
      <trkpt lat="45.42228" lon="4.62113">
        <ele>911.94799804688</ele>
        <time>2011-08-06T10:36:55Z</time>
      </trkpt>
      <trkpt lat="45.422" lon="4.62156">
        <ele>915.79321289062</ele>
        <time>2011-08-06T10:37:02Z</time>
      </trkpt>
      <trkpt lat="45.42176" lon="4.62196">
        <ele>919.63842773438</ele>
        <time>2011-08-06T10:37:08Z</time>
      </trkpt>
      <trkpt lat="45.42164" lon="4.62224">
        <ele>917.71557617188</ele>
        <time>2011-08-06T10:37:12Z</time>
      </trkpt>
      <trkpt lat="45.4214" lon="4.62274">
        <ele>909.54467773438</ele>
        <time>2011-08-06T10:37:19Z</time>
      </trkpt>
      <trkpt lat="45.421" lon="4.62322">
        <ele>903.2958984375</ele>
        <time>2011-08-06T10:37:28Z</time>
      </trkpt>
      <trkpt lat="45.42082" lon="4.62351">
        <ele>898.4892578125</ele>
        <time>2011-08-06T10:37:33Z</time>
      </trkpt>
      <trkpt lat="45.42067" lon="4.62373">
        <ele>893.2021484375</ele>
        <time>2011-08-06T10:37:37Z</time>
      </trkpt>
      <trkpt lat="45.42051" lon="4.62396">
        <ele>891.279296875</ele>
        <time>2011-08-06T10:37:41Z</time>
      </trkpt>
      <trkpt lat="45.4203" lon="4.62426">
        <ele>887.91479492188</ele>
        <time>2011-08-06T10:37:46Z</time>
      </trkpt>
      <trkpt lat="45.42003" lon="4.62476">
        <ele>882.62768554688</ele>
        <time>2011-08-06T10:37:54Z</time>
      </trkpt>
      <trkpt lat="45.41998" lon="4.62487">
        <ele>881.66625976562</ele>
        <time>2011-08-06T10:37:56Z</time>
      </trkpt>
      <trkpt lat="45.41979" lon="4.62505">
        <ele>875.89819335938</ele>
        <time>2011-08-06T10:38:00Z</time>
      </trkpt>
      <trkpt lat="45.41961" lon="4.62501">
        <ele>874.93701171875</ele>
        <time>2011-08-06T10:38:03Z</time>
      </trkpt>
      <trkpt lat="45.41955" lon="4.62497">
        <ele>875.89819335938</ele>
        <time>2011-08-06T10:38:04Z</time>
      </trkpt>
      <trkpt lat="45.41921" lon="4.62475">
        <ele>882.62768554688</ele>
        <time>2011-08-06T10:38:10Z</time>
      </trkpt>
      <trkpt lat="45.41904" lon="4.62473">
        <ele>880.22436523438</ele>
        <time>2011-08-06T10:38:13Z</time>
      </trkpt>
      <trkpt lat="45.4188" lon="4.62481">
        <ele>881.18579101562</ele>
        <time>2011-08-06T10:38:17Z</time>
      </trkpt>
      <trkpt lat="45.41857" lon="4.62505">
        <ele>879.26293945312</ele>
        <time>2011-08-06T10:38:22Z</time>
      </trkpt>
      <trkpt lat="45.41846" lon="4.62523">
        <ele>877.82104492188</ele>
        <time>2011-08-06T10:38:25Z</time>
      </trkpt>
      <trkpt lat="45.41834" lon="4.6256">
        <ele>874.93701171875</ele>
        <time>2011-08-06T10:38:30Z</time>
      </trkpt>
      <trkpt lat="45.41837" lon="4.62578">
        <ele>873.01440429688</ele>
        <time>2011-08-06T10:38:32Z</time>
      </trkpt>
      <trkpt lat="45.41843" lon="4.62604">
        <ele>870.61108398438</ele>
        <time>2011-08-06T10:38:35Z</time>
      </trkpt>
      <trkpt lat="45.41845" lon="4.62621">
        <ele>867.72705078125</ele>
        <time>2011-08-06T10:38:37Z</time>
      </trkpt>
      <trkpt lat="45.41856" lon="4.62696">
        <ele>860.03662109375</ele>
        <time>2011-08-06T10:38:46Z</time>
      </trkpt>
      <trkpt lat="45.41862" lon="4.62755">
        <ele>852.82666015625</ele>
        <time>2011-08-06T10:38:53Z</time>
      </trkpt>
      <trkpt lat="45.41865" lon="4.62783">
        <ele>849.46215820312</ele>
        <time>2011-08-06T10:38:56Z</time>
      </trkpt>
      <trkpt lat="45.41866" lon="4.62811">
        <ele>847.05883789062</ele>
        <time>2011-08-06T10:38:59Z</time>
      </trkpt>
      <trkpt lat="45.41864" lon="4.62867">
        <ele>843.21337890625</ele>
        <time>2011-08-06T10:39:05Z</time>
      </trkpt>
      <trkpt lat="45.41864" lon="4.62932">
        <ele>838.8876953125</ele>
        <time>2011-08-06T10:39:12Z</time>
      </trkpt>
      <trkpt lat="45.41863" lon="4.63009">
        <ele>838.40698242188</ele>
        <time>2011-08-06T10:39:20Z</time>
      </trkpt>
      <trkpt lat="45.41861" lon="4.63075">
        <ele>836.00366210938</ele>
        <time>2011-08-06T10:39:27Z</time>
      </trkpt>
      <trkpt lat="45.41855" lon="4.63139">
        <ele>834.56176757812</ele>
        <time>2011-08-06T10:39:34Z</time>
      </trkpt>
      <trkpt lat="45.41848" lon="4.63196">
        <ele>833.11962890625</ele>
        <time>2011-08-06T10:39:40Z</time>
      </trkpt>
      <trkpt lat="45.41842" lon="4.63263">
        <ele>830.71655273438</ele>
        <time>2011-08-06T10:39:47Z</time>
      </trkpt>
      <trkpt lat="45.41837" lon="4.63316">
        <ele>827.35180664062</ele>
        <time>2011-08-06T10:39:53Z</time>
      </trkpt>
      <trkpt lat="45.41844" lon="4.63341">
        <ele>824.94848632812</ele>
        <time>2011-08-06T10:39:57Z</time>
      </trkpt>
      <trkpt lat="45.41852" lon="4.63339">
        <ele>824.94848632812</ele>
        <time>2011-08-06T10:39:59Z</time>
      </trkpt>
      <trkpt lat="45.41859" lon="4.63318">
        <ele>823.50659179688</ele>
        <time>2011-08-06T10:40:02Z</time>
      </trkpt>
      <trkpt lat="45.4186" lon="4.63309">
        <ele>823.02587890625</ele>
        <time>2011-08-06T10:40:03Z</time>
      </trkpt>
      <trkpt lat="45.41875" lon="4.63256">
        <ele>820.14184570312</ele>
        <time>2011-08-06T10:40:09Z</time>
      </trkpt>
      <trkpt lat="45.4189" lon="4.63211">
        <ele>818.21923828125</ele>
        <time>2011-08-06T10:40:15Z</time>
      </trkpt>
      <trkpt lat="45.41907" lon="4.6317">
        <ele>815.81616210938</ele>
        <time>2011-08-06T10:40:21Z</time>
      </trkpt>
      <trkpt lat="45.41911" lon="4.63163">
        <ele>816.29663085938</ele>
        <time>2011-08-06T10:40:22Z</time>
      </trkpt>
      <trkpt lat="45.4193" lon="4.63127">
        <ele>814.85473632812</ele>
        <time>2011-08-06T10:40:28Z</time>
      </trkpt>
      <trkpt lat="45.41943" lon="4.63086">
        <ele>811.48999023438</ele>
        <time>2011-08-06T10:40:33Z</time>
      </trkpt>
      <trkpt lat="45.41946" lon="4.63078">
        <ele>810.52856445312</ele>
        <time>2011-08-06T10:40:34Z</time>
      </trkpt>
      <trkpt lat="45.4196" lon="4.63011">
        <ele>806.20263671875</ele>
        <time>2011-08-06T10:40:42Z</time>
      </trkpt>
      <trkpt lat="45.41964" lon="4.62979">
        <ele>805.72216796875</ele>
        <time>2011-08-06T10:40:46Z</time>
      </trkpt>
      <trkpt lat="45.41973" lon="4.62939">
        <ele>805.24145507812</ele>
        <time>2011-08-06T10:40:51Z</time>
      </trkpt>
      <trkpt lat="45.41983" lon="4.62912">
        <ele>804.7607421875</ele>
        <time>2011-08-06T10:40:55Z</time>
      </trkpt>
      <trkpt lat="45.41991" lon="4.62887">
        <ele>804.2802734375</ele>
        <time>2011-08-06T10:40:59Z</time>
      </trkpt>
      <trkpt lat="45.41996" lon="4.62878">
        <ele>802.83813476562</ele>
        <time>2011-08-06T10:41:01Z</time>
      </trkpt>
      <trkpt lat="45.42011" lon="4.62865">
        <ele>797.0703125</ele>
        <time>2011-08-06T10:41:05Z</time>
      </trkpt>
      <trkpt lat="45.42023" lon="4.62861">
        <ele>791.78295898438</ele>
        <time>2011-08-06T10:41:07Z</time>
      </trkpt>
      <trkpt lat="45.42038" lon="4.6286">
        <ele>787.45703125</ele>
        <time>2011-08-06T10:41:10Z</time>
      </trkpt>
      <trkpt lat="45.4206" lon="4.62864">
        <ele>782.169921875</ele>
        <time>2011-08-06T10:41:14Z</time>
      </trkpt>
      <trkpt lat="45.42084" lon="4.62876">
        <ele>779.76635742188</ele>
        <time>2011-08-06T10:41:18Z</time>
      </trkpt>
      <trkpt lat="45.42099" lon="4.62882">
        <ele>778.32446289062</ele>
        <time>2011-08-06T10:41:21Z</time>
      </trkpt>
      <trkpt lat="45.42121" lon="4.62882">
        <ele>776.40185546875</ele>
        <time>2011-08-06T10:41:25Z</time>
      </trkpt>
      <trkpt lat="45.42133" lon="4.62879">
        <ele>776.40185546875</ele>
        <time>2011-08-06T10:41:28Z</time>
      </trkpt>
      <trkpt lat="45.42149" lon="4.62871">
        <ele>778.80517578125</ele>
        <time>2011-08-06T10:41:31Z</time>
      </trkpt>
      <trkpt lat="45.42179" lon="4.62852">
        <ele>785.05395507812</ele>
        <time>2011-08-06T10:41:37Z</time>
      </trkpt>
      <trkpt lat="45.42194" lon="4.6284">
        <ele>785.53442382812</ele>
        <time>2011-08-06T10:41:41Z</time>
      </trkpt>
      <trkpt lat="45.4222" lon="4.62818">
        <ele>786.01513671875</ele>
        <time>2011-08-06T10:41:47Z</time>
      </trkpt>
      <trkpt lat="45.42248" lon="4.62788">
        <ele>777.84375</ele>
        <time>2011-08-06T10:41:53Z</time>
      </trkpt>
      <trkpt lat="45.42275" lon="4.62761">
        <ele>771.59521484375</ele>
        <time>2011-08-06T10:41:59Z</time>
      </trkpt>
      <trkpt lat="45.42289" lon="4.62751">
        <ele>769.6728515625</ele>
        <time>2011-08-06T10:42:02Z</time>
      </trkpt>
      <trkpt lat="45.4231" lon="4.62751">
        <ele>767.26953125</ele>
        <time>2011-08-06T10:42:06Z</time>
      </trkpt>
      <trkpt lat="45.42322" lon="4.62764">
        <ele>765.34692382812</ele>
        <time>2011-08-06T10:42:09Z</time>
      </trkpt>
      <trkpt lat="45.42324" lon="4.6277">
        <ele>764.38549804688</ele>
        <time>2011-08-06T10:42:10Z</time>
      </trkpt>
      <trkpt lat="45.42339" lon="4.62831">
        <ele>759.09814453125</ele>
        <time>2011-08-06T10:42:19Z</time>
      </trkpt>
      <trkpt lat="45.42345" lon="4.62887">
        <ele>755.2529296875</ele>
        <time>2011-08-06T10:42:27Z</time>
      </trkpt>
      <trkpt lat="45.4235" lon="4.6296">
        <ele>750.92700195312</ele>
        <time>2011-08-06T10:42:37Z</time>
      </trkpt>
      <trkpt lat="45.42351" lon="4.63003">
        <ele>748.52368164062</ele>
        <time>2011-08-06T10:42:43Z</time>
      </trkpt>
      <trkpt lat="45.42355" lon="4.63053">
        <ele>745.6396484375</ele>
        <time>2011-08-06T10:42:50Z</time>
      </trkpt>
      <trkpt lat="45.42366" lon="4.63112">
        <ele>741.79443359375</ele>
        <time>2011-08-06T10:42:58Z</time>
      </trkpt>
      <trkpt lat="45.42374" lon="4.63141">
        <ele>739.87182617188</ele>
        <time>2011-08-06T10:43:02Z</time>
      </trkpt>
      <trkpt lat="45.42386" lon="4.63165">
        <ele>737.46850585938</ele>
        <time>2011-08-06T10:43:06Z</time>
      </trkpt>
      <trkpt lat="45.42402" lon="4.63187">
        <ele>735.5458984375</ele>
        <time>2011-08-06T10:43:10Z</time>
      </trkpt>
      <trkpt lat="45.42416" lon="4.63226">
        <ele>732.662109375</ele>
        <time>2011-08-06T10:43:16Z</time>
      </trkpt>
      <trkpt lat="45.42417" lon="4.6324">
        <ele>731.70043945312</ele>
        <time>2011-08-06T10:43:18Z</time>
      </trkpt>
      <trkpt lat="45.42411" lon="4.63319">
        <ele>732.662109375</ele>
        <time>2011-08-06T10:43:29Z</time>
      </trkpt>
      <trkpt lat="45.42408" lon="4.63368">
        <ele>733.142578125</ele>
        <time>2011-08-06T10:43:36Z</time>
      </trkpt>
      <trkpt lat="45.4241" lon="4.63425">
        <ele>727.37475585938</ele>
        <time>2011-08-06T10:43:44Z</time>
      </trkpt>
      <trkpt lat="45.42417" lon="4.63473">
        <ele>721.60668945312</ele>
        <time>2011-08-06T10:43:51Z</time>
      </trkpt>
      <trkpt lat="45.42419" lon="4.63487">
        <ele>720.16479492188</ele>
        <time>2011-08-06T10:43:53Z</time>
      </trkpt>
      <trkpt lat="45.42418" lon="4.63525">
        <ele>720.16479492188</ele>
        <time>2011-08-06T10:43:58Z</time>
      </trkpt>
      <trkpt lat="45.42413" lon="4.63539">
        <ele>721.60668945312</ele>
        <time>2011-08-06T10:44:00Z</time>
      </trkpt>
      <trkpt lat="45.42393" lon="4.636">
        <ele>723.048828125</ele>
        <time>2011-08-06T10:44:09Z</time>
      </trkpt>
      <trkpt lat="45.42384" lon="4.63641">
        <ele>722.08740234375</ele>
        <time>2011-08-06T10:44:15Z</time>
      </trkpt>
      <trkpt lat="45.42388" lon="4.63682">
        <ele>717.28100585938</ele>
        <time>2011-08-06T10:44:21Z</time>
      </trkpt>
      <trkpt lat="45.42395" lon="4.63731">
        <ele>710.07080078125</ele>
        <time>2011-08-06T10:44:28Z</time>
      </trkpt>
      <trkpt lat="45.42391" lon="4.63764">
        <ele>709.59033203125</ele>
        <time>2011-08-06T10:44:33Z</time>
      </trkpt>
      <trkpt lat="45.42385" lon="4.6379">
        <ele>708.1484375</ele>
        <time>2011-08-06T10:44:37Z</time>
      </trkpt>
      <trkpt lat="45.42384" lon="4.63829">
        <ele>705.26440429688</ele>
        <time>2011-08-06T10:44:42Z</time>
      </trkpt>
      <trkpt lat="45.42382" lon="4.63885">
        <ele>703.82250976562</ele>
        <time>2011-08-06T10:44:49Z</time>
      </trkpt>
      <trkpt lat="45.42373" lon="4.63945">
        <ele>702.38037109375</ele>
        <time>2011-08-06T10:44:57Z</time>
      </trkpt>
      <trkpt lat="45.42362" lon="4.64009">
        <ele>700.9384765625</ele>
        <time>2011-08-06T10:45:05Z</time>
      </trkpt>
      <trkpt lat="45.42341" lon="4.64103">
        <ele>698.53491210938</ele>
        <time>2011-08-06T10:45:16Z</time>
      </trkpt>
      <trkpt lat="45.42326" lon="4.64178">
        <ele>693.728515625</ele>
        <time>2011-08-06T10:45:25Z</time>
      </trkpt>
      <trkpt lat="45.42309" lon="4.64243">
        <ele>689.40258789062</ele>
        <time>2011-08-06T10:45:33Z</time>
      </trkpt>
      <trkpt lat="45.42288" lon="4.64303">
        <ele>686.0380859375</ele>
        <time>2011-08-06T10:45:41Z</time>
      </trkpt>
      <trkpt lat="45.42269" lon="4.6436">
        <ele>683.15380859375</ele>
        <time>2011-08-06T10:45:49Z</time>
      </trkpt>
      <trkpt lat="45.42247" lon="4.64427">
        <ele>678.828125</ele>
        <time>2011-08-06T10:45:58Z</time>
      </trkpt>
      <trkpt lat="45.42242" lon="4.6447">
        <ele>675.94409179688</ele>
        <time>2011-08-06T10:46:03Z</time>
      </trkpt>
      <trkpt lat="45.42245" lon="4.64527">
        <ele>672.09887695312</ele>
        <time>2011-08-06T10:46:09Z</time>
      </trkpt>
      <trkpt lat="45.42253" lon="4.64608">
        <ele>666.33081054688</ele>
        <time>2011-08-06T10:46:18Z</time>
      </trkpt>
      <trkpt lat="45.42258" lon="4.6467">
        <ele>662.00512695312</ele>
        <time>2011-08-06T10:46:25Z</time>
      </trkpt>
      <trkpt lat="45.42263" lon="4.6475">
        <ele>655.27587890625</ele>
        <time>2011-08-06T10:46:34Z</time>
      </trkpt>
      <trkpt lat="45.4227" lon="4.64829">
        <ele>649.02709960938</ele>
        <time>2011-08-06T10:46:43Z</time>
      </trkpt>
      <trkpt lat="45.42275" lon="4.64889">
        <ele>645.66259765625</ele>
        <time>2011-08-06T10:46:50Z</time>
      </trkpt>
      <trkpt lat="45.42277" lon="4.64914">
        <ele>644.220703125</ele>
        <time>2011-08-06T10:46:53Z</time>
      </trkpt>
      <trkpt lat="45.4228" lon="4.64993">
        <ele>640.37548828125</ele>
        <time>2011-08-06T10:47:03Z</time>
      </trkpt>
      <trkpt lat="45.42292" lon="4.65054">
        <ele>635.56860351562</ele>
        <time>2011-08-06T10:47:11Z</time>
      </trkpt>
      <trkpt lat="45.42305" lon="4.65122">
        <ele>629.80078125</ele>
        <time>2011-08-06T10:47:20Z</time>
      </trkpt>
      <trkpt lat="45.42319" lon="4.65201">
        <ele>625.47485351562</ele>
        <time>2011-08-06T10:47:30Z</time>
      </trkpt>
      <trkpt lat="45.42331" lon="4.65257">
        <ele>621.62963867188</ele>
        <time>2011-08-06T10:47:38Z</time>
      </trkpt>
      <trkpt lat="45.42346" lon="4.65321">
        <ele>616.82299804688</ele>
        <time>2011-08-06T10:47:48Z</time>
      </trkpt>
      <trkpt lat="45.42366" lon="4.6538">
        <ele>612.97778320312</ele>
        <time>2011-08-06T10:47:57Z</time>
      </trkpt>
      <trkpt lat="45.42382" lon="4.6545">
        <ele>610.57446289062</ele>
        <time>2011-08-06T10:48:06Z</time>
      </trkpt>
      <trkpt lat="45.42389" lon="4.65515">
        <ele>608.65185546875</ele>
        <time>2011-08-06T10:48:14Z</time>
      </trkpt>
      <trkpt lat="45.42403" lon="4.65603">
        <ele>602.40307617188</ele>
        <time>2011-08-06T10:48:25Z</time>
      </trkpt>
      <trkpt lat="45.42417" lon="4.65649">
        <ele>599.51928710938</ele>
        <time>2011-08-06T10:48:31Z</time>
      </trkpt>
      <trkpt lat="45.4244" lon="4.65716">
        <ele>595.67407226562</ele>
        <time>2011-08-06T10:48:40Z</time>
      </trkpt>
      <trkpt lat="45.4246" lon="4.65772">
        <ele>592.79028320312</ele>
        <time>2011-08-06T10:48:47Z</time>
      </trkpt>
      <trkpt lat="45.42483" lon="4.65811">
        <ele>589.90625</ele>
        <time>2011-08-06T10:48:53Z</time>
      </trkpt>
      <trkpt lat="45.4251" lon="4.65847">
        <ele>586.06079101562</ele>
        <time>2011-08-06T10:48:59Z</time>
      </trkpt>
      <trkpt lat="45.42548" lon="4.65887">
        <ele>583.1767578125</ele>
        <time>2011-08-06T10:49:07Z</time>
      </trkpt>
      <trkpt lat="45.42585" lon="4.65919">
        <ele>580.29296875</ele>
        <time>2011-08-06T10:49:14Z</time>
      </trkpt>
      <trkpt lat="45.42622" lon="4.65934">
        <ele>577.4091796875</ele>
        <time>2011-08-06T10:49:20Z</time>
      </trkpt>
      <trkpt lat="45.42652" lon="4.65947">
        <ele>575.486328125</ele>
        <time>2011-08-06T10:49:25Z</time>
      </trkpt>
      <trkpt lat="45.42696" lon="4.65969">
        <ele>571.64086914062</ele>
        <time>2011-08-06T10:49:32Z</time>
      </trkpt>
      <trkpt lat="45.42743" lon="4.65995">
        <ele>568.75708007812</ele>
        <time>2011-08-06T10:49:40Z</time>
      </trkpt>
      <trkpt lat="45.42767" lon="4.65995">
        <ele>566.35375976562</ele>
        <time>2011-08-06T10:49:44Z</time>
      </trkpt>
      <trkpt lat="45.42784" lon="4.65989">
        <ele>565.392578125</ele>
        <time>2011-08-06T10:49:47Z</time>
      </trkpt>
      <trkpt lat="45.42806" lon="4.65972">
        <ele>563.95043945312</ele>
        <time>2011-08-06T10:49:52Z</time>
      </trkpt>
      <trkpt lat="45.42831" lon="4.65936">
        <ele>561.54736328125</ele>
        <time>2011-08-06T10:50:00Z</time>
      </trkpt>
      <trkpt lat="45.42847" lon="4.65931">
        <ele>560.5859375</ele>
        <time>2011-08-06T10:50:04Z</time>
      </trkpt>
      <trkpt lat="45.4285" lon="4.65946">
        <ele>558.66333007812</ele>
        <time>2011-08-06T10:50:07Z</time>
      </trkpt>
      <trkpt lat="45.42847" lon="4.65952">
        <ele>558.18286132812</ele>
        <time>2011-08-06T10:50:08Z</time>
      </trkpt>
      <trkpt lat="45.42825" lon="4.65997">
        <ele>557.22143554688</ele>
        <time>2011-08-06T10:50:15Z</time>
      </trkpt>
      <trkpt lat="45.42807" lon="4.66045">
        <ele>555.779296875</ele>
        <time>2011-08-06T10:50:22Z</time>
      </trkpt>
      <trkpt lat="45.42793" lon="4.66102">
        <ele>554.33740234375</ele>
        <time>2011-08-06T10:50:29Z</time>
      </trkpt>
      <trkpt lat="45.42777" lon="4.66128">
        <ele>553.3759765625</ele>
        <time>2011-08-06T10:50:34Z</time>
      </trkpt>
      <trkpt lat="45.4276" lon="4.6613">
        <ele>552.41455078125</ele>
        <time>2011-08-06T10:50:37Z</time>
      </trkpt>
      <trkpt lat="45.42744" lon="4.66118">
        <ele>551.93408203125</ele>
        <time>2011-08-06T10:50:40Z</time>
      </trkpt>
      <trkpt lat="45.4271" lon="4.66084">
        <ele>550.97265625</ele>
        <time>2011-08-06T10:50:47Z</time>
      </trkpt>
      <trkpt lat="45.42693" lon="4.66071">
        <ele>550.01147460938</ele>
        <time>2011-08-06T10:50:50Z</time>
      </trkpt>
      <trkpt lat="45.42642" lon="4.66049">
        <ele>548.0888671875</ele>
        <time>2011-08-06T10:50:59Z</time>
      </trkpt>
      <trkpt lat="45.42596" lon="4.66039">
        <ele>545.20483398438</ele>
        <time>2011-08-06T10:51:07Z</time>
      </trkpt>
      <trkpt lat="45.4255" lon="4.66037">
        <ele>542.32092285156</ele>
        <time>2011-08-06T10:51:15Z</time>
      </trkpt>
      <trkpt lat="45.42522" lon="4.66038">
        <ele>541.35949707031</ele>
        <time>2011-08-06T10:51:21Z</time>
      </trkpt>
      <trkpt lat="45.42519" lon="4.66039">
        <ele>540.87890625</ele>
        <time>2011-08-06T10:51:22Z</time>
      </trkpt>
      <trkpt lat="45.42514" lon="4.6604">
        <ele>539.91760253906</ele>
        <time>2011-08-06T10:51:28Z</time>
      </trkpt>
      <trkpt lat="45.42512" lon="4.66039">
        <ele>542.80151367188</ele>
        <time>2011-08-06T10:51:43Z</time>
      </trkpt>
      <trkpt lat="45.4251" lon="4.66039">
        <ele>543.76281738281</ele>
        <time>2011-08-06T10:52:01Z</time>
      </trkpt>
      <trkpt lat="45.4251" lon="4.66039">
        <ele>542.80151367188</ele>
        <time>2011-08-06T10:52:08Z</time>
      </trkpt>
      <trkpt lat="45.4251" lon="4.6604">
        <ele>541.84020996094</ele>
        <time>2011-08-06T10:52:16Z</time>
      </trkpt>
      <trkpt lat="45.42508" lon="4.66039">
        <ele>545.685546875</ele>
        <time>2011-08-06T10:52:42Z</time>
      </trkpt>
      <trkpt lat="45.4251" lon="4.66043">
        <ele>542.32092285156</ele>
        <time>2011-08-06T10:53:20Z</time>
      </trkpt>
      <trkpt lat="45.42519" lon="4.6605">
        <ele>541.35949707031</ele>
        <time>2011-08-06T10:53:24Z</time>
      </trkpt>
      <trkpt lat="45.42547" lon="4.66053">
        <ele>540.87890625</ele>
        <time>2011-08-06T10:53:30Z</time>
      </trkpt>
      <trkpt lat="45.4258" lon="4.66054">
        <ele>540.39831542969</ele>
        <time>2011-08-06T10:53:35Z</time>
      </trkpt>
      <trkpt lat="45.42624" lon="4.66066">
        <ele>540.39831542969</ele>
        <time>2011-08-06T10:53:41Z</time>
      </trkpt>
      <trkpt lat="45.42672" lon="4.66094">
        <ele>540.87890625</ele>
        <time>2011-08-06T10:53:48Z</time>
      </trkpt>
      <trkpt lat="45.42727" lon="4.66137">
        <ele>541.84020996094</ele>
        <time>2011-08-06T10:53:57Z</time>
      </trkpt>
      <trkpt lat="45.42775" lon="4.66173">
        <ele>542.32092285156</ele>
        <time>2011-08-06T10:54:05Z</time>
      </trkpt>
      <trkpt lat="45.42807" lon="4.66178">
        <ele>542.32092285156</ele>
        <time>2011-08-06T10:54:10Z</time>
      </trkpt>
      <trkpt lat="45.42838" lon="4.66159">
        <ele>542.32092285156</ele>
        <time>2011-08-06T10:54:15Z</time>
      </trkpt>
      <trkpt lat="45.42843" lon="4.66153">
        <ele>542.32092285156</ele>
        <time>2011-08-06T10:54:16Z</time>
      </trkpt>
      <trkpt lat="45.42881" lon="4.66099">
        <ele>543.28210449219</ele>
        <time>2011-08-06T10:54:24Z</time>
      </trkpt>
      <trkpt lat="45.42885" lon="4.66091">
        <ele>543.76281738281</ele>
        <time>2011-08-06T10:54:25Z</time>
      </trkpt>
      <trkpt lat="45.42897" lon="4.66045">
        <ele>544.24365234375</ele>
        <time>2011-08-06T10:54:30Z</time>
      </trkpt>
      <trkpt lat="45.42905" lon="4.65975">
        <ele>545.20483398438</ele>
        <time>2011-08-06T10:54:37Z</time>
      </trkpt>
      <trkpt lat="45.4292" lon="4.65941">
        <ele>544.72424316406</ele>
        <time>2011-08-06T10:54:41Z</time>
      </trkpt>
      <trkpt lat="45.42925" lon="4.65935">
        <ele>544.72424316406</ele>
        <time>2011-08-06T10:54:42Z</time>
      </trkpt>
      <trkpt lat="45.4297" lon="4.65883">
        <ele>545.20483398438</ele>
        <time>2011-08-06T10:54:50Z</time>
      </trkpt>
      <trkpt lat="45.43008" lon="4.65817">
        <ele>544.24365234375</ele>
        <time>2011-08-06T10:54:58Z</time>
      </trkpt>
      <trkpt lat="45.43043" lon="4.65766">
        <ele>543.76281738281</ele>
        <time>2011-08-06T10:55:05Z</time>
      </trkpt>
      <trkpt lat="45.43064" lon="4.65739">
        <ele>544.24365234375</ele>
        <time>2011-08-06T10:55:09Z</time>
      </trkpt>
      <trkpt lat="45.43098" lon="4.65721">
        <ele>545.20483398438</ele>
        <time>2011-08-06T10:55:14Z</time>
      </trkpt>
      <trkpt lat="45.43113" lon="4.65722">
        <ele>545.20483398438</ele>
        <time>2011-08-06T10:55:16Z</time>
      </trkpt>
      <trkpt lat="45.43134" lon="4.65726">
        <ele>546.16625976562</ele>
        <time>2011-08-06T10:55:19Z</time>
      </trkpt>
      <trkpt lat="45.43167" lon="4.65723">
        <ele>547.12744140625</ele>
        <time>2011-08-06T10:55:24Z</time>
      </trkpt>
      <trkpt lat="45.43199" lon="4.65705">
        <ele>546.64685058594</ele>
        <time>2011-08-06T10:55:29Z</time>
      </trkpt>
      <trkpt lat="45.43227" lon="4.65675">
        <ele>547.60815429688</ele>
        <time>2011-08-06T10:55:34Z</time>
      </trkpt>
      <trkpt lat="45.43252" lon="4.65626">
        <ele>547.12744140625</ele>
        <time>2011-08-06T10:55:40Z</time>
      </trkpt>
      <trkpt lat="45.43283" lon="4.65557">
        <ele>547.12744140625</ele>
        <time>2011-08-06T10:55:48Z</time>
      </trkpt>
      <trkpt lat="45.43315" lon="4.6552">
        <ele>547.12744140625</ele>
        <time>2011-08-06T10:55:54Z</time>
      </trkpt>
      <trkpt lat="45.43359" lon="4.65489">
        <ele>547.60815429688</ele>
        <time>2011-08-06T10:56:01Z</time>
      </trkpt>
      <trkpt lat="45.43384" lon="4.65473">
        <ele>548.0888671875</ele>
        <time>2011-08-06T10:56:05Z</time>
      </trkpt>
      <trkpt lat="45.43403" lon="4.65456">
        <ele>549.05004882812</ele>
        <time>2011-08-06T10:56:08Z</time>
      </trkpt>
      <trkpt lat="45.43427" lon="4.65418">
        <ele>550.01147460938</ele>
        <time>2011-08-06T10:56:13Z</time>
      </trkpt>
      <trkpt lat="45.43449" lon="4.65354">
        <ele>553.3759765625</ele>
        <time>2011-08-06T10:56:20Z</time>
      </trkpt>
      <trkpt lat="45.4347" lon="4.65311">
        <ele>553.85668945312</ele>
        <time>2011-08-06T10:56:25Z</time>
      </trkpt>
      <trkpt lat="45.43488" lon="4.65292">
        <ele>554.33740234375</ele>
        <time>2011-08-06T10:56:28Z</time>
      </trkpt>
      <trkpt lat="45.43514" lon="4.65277">
        <ele>554.33740234375</ele>
        <time>2011-08-06T10:56:32Z</time>
      </trkpt>
      <trkpt lat="45.43565" lon="4.65275">
        <ele>552.89526367188</ele>
        <time>2011-08-06T10:56:39Z</time>
      </trkpt>
      <trkpt lat="45.43586" lon="4.65273">
        <ele>552.89526367188</ele>
        <time>2011-08-06T10:56:42Z</time>
      </trkpt>
      <trkpt lat="45.43624" lon="4.65249">
        <ele>552.89526367188</ele>
        <time>2011-08-06T10:56:48Z</time>
      </trkpt>
      <trkpt lat="45.43667" lon="4.65213">
        <ele>552.41455078125</ele>
        <time>2011-08-06T10:56:55Z</time>
      </trkpt>
      <trkpt lat="45.4371" lon="4.65178">
        <ele>552.89526367188</ele>
        <time>2011-08-06T10:57:02Z</time>
      </trkpt>
      <trkpt lat="45.43717" lon="4.65173">
        <ele>553.3759765625</ele>
        <time>2011-08-06T10:57:03Z</time>
      </trkpt>
      <trkpt lat="45.43751" lon="4.65166">
        <ele>553.85668945312</ele>
        <time>2011-08-06T10:57:08Z</time>
      </trkpt>
      <trkpt lat="45.43771" lon="4.65174">
        <ele>554.33740234375</ele>
        <time>2011-08-06T10:57:11Z</time>
      </trkpt>
      <trkpt lat="45.43812" lon="4.65213">
        <ele>555.29858398438</ele>
        <time>2011-08-06T10:57:18Z</time>
      </trkpt>
      <trkpt lat="45.43864" lon="4.65264">
        <ele>554.81787109375</ele>
        <time>2011-08-06T10:57:27Z</time>
      </trkpt>
      <trkpt lat="45.43887" lon="4.6529">
        <ele>554.81787109375</ele>
        <time>2011-08-06T10:57:31Z</time>
      </trkpt>
      <trkpt lat="45.43901" lon="4.65327">
        <ele>555.29858398438</ele>
        <time>2011-08-06T10:57:35Z</time>
      </trkpt>
      <trkpt lat="45.43903" lon="4.65359">
        <ele>555.29858398438</ele>
        <time>2011-08-06T10:57:38Z</time>
      </trkpt>
      <trkpt lat="45.439" lon="4.65437">
        <ele>556.74072265625</ele>
        <time>2011-08-06T10:57:46Z</time>
      </trkpt>
      <trkpt lat="45.43909" lon="4.65482">
        <ele>556.74072265625</ele>
        <time>2011-08-06T10:57:51Z</time>
      </trkpt>
      <trkpt lat="45.4392" lon="4.65505">
        <ele>556.74072265625</ele>
        <time>2011-08-06T10:57:54Z</time>
      </trkpt>
      <trkpt lat="45.43955" lon="4.65567">
        <ele>558.18286132812</ele>
        <time>2011-08-06T10:58:03Z</time>
      </trkpt>
      <trkpt lat="45.43984" lon="4.65634">
        <ele>558.66333007812</ele>
        <time>2011-08-06T10:58:12Z</time>
      </trkpt>
      <trkpt lat="45.44015" lon="4.65691">
        <ele>559.62475585938</ele>
        <time>2011-08-06T10:58:19Z</time>
      </trkpt>
      <trkpt lat="45.44065" lon="4.65785">
        <ele>561.54736328125</ele>
        <time>2011-08-06T10:58:31Z</time>
      </trkpt>
      <trkpt lat="45.44088" lon="4.65844">
        <ele>562.02807617188</ele>
        <time>2011-08-06T10:58:38Z</time>
      </trkpt>
      <trkpt lat="45.44095" lon="4.65901">
        <ele>562.02807617188</ele>
        <time>2011-08-06T10:58:44Z</time>
      </trkpt>
      <trkpt lat="45.44104" lon="4.65986">
        <ele>562.50854492188</ele>
        <time>2011-08-06T10:58:53Z</time>
      </trkpt>
      <trkpt lat="45.44104" lon="4.65996">
        <ele>562.50854492188</ele>
        <time>2011-08-06T10:58:54Z</time>
      </trkpt>
      <trkpt lat="45.44096" lon="4.66041">
        <ele>562.9892578125</ele>
        <time>2011-08-06T10:58:59Z</time>
      </trkpt>
      <trkpt lat="45.44077" lon="4.66067">
        <ele>563.46997070312</ele>
        <time>2011-08-06T10:59:03Z</time>
      </trkpt>
      <trkpt lat="45.44053" lon="4.66079">
        <ele>563.95043945312</ele>
        <time>2011-08-06T10:59:07Z</time>
      </trkpt>
      <trkpt lat="45.44015" lon="4.66086">
        <ele>564.91186523438</ele>
        <time>2011-08-06T10:59:13Z</time>
      </trkpt>
      <trkpt lat="45.44003" lon="4.6609">
        <ele>564.91186523438</ele>
        <time>2011-08-06T10:59:15Z</time>
      </trkpt>
      <trkpt lat="45.43962" lon="4.66121">
        <ele>566.83447265625</ele>
        <time>2011-08-06T10:59:22Z</time>
      </trkpt>
      <trkpt lat="45.43941" lon="4.66155">
        <ele>567.79565429688</ele>
        <time>2011-08-06T10:59:27Z</time>
      </trkpt>
      <trkpt lat="45.43924" lon="4.66203">
        <ele>568.75708007812</ele>
        <time>2011-08-06T10:59:33Z</time>
      </trkpt>
      <trkpt lat="45.4392" lon="4.6622">
        <ele>569.23779296875</ele>
        <time>2011-08-06T10:59:35Z</time>
      </trkpt>
      <trkpt lat="45.43917" lon="4.66283">
        <ele>569.71850585938</ele>
        <time>2011-08-06T10:59:42Z</time>
      </trkpt>
      <trkpt lat="45.43927" lon="4.66334">
        <ele>570.19897460938</ele>
        <time>2011-08-06T10:59:48Z</time>
      </trkpt>
      <trkpt lat="45.43948" lon="4.6638">
        <ele>571.16040039062</ele>
        <time>2011-08-06T10:59:54Z</time>
      </trkpt>
      <trkpt lat="45.43977" lon="4.66427">
        <ele>572.6025390625</ele>
        <time>2011-08-06T11:00:01Z</time>
      </trkpt>
      <trkpt lat="45.44012" lon="4.66492">
        <ele>574.04443359375</ele>
        <time>2011-08-06T11:00:10Z</time>
      </trkpt>
      <trkpt lat="45.4402" lon="4.66517">
        <ele>575.005859375</ele>
        <time>2011-08-06T11:00:13Z</time>
      </trkpt>
      <trkpt lat="45.44026" lon="4.66579">
        <ele>575.96704101562</ele>
        <time>2011-08-06T11:00:20Z</time>
      </trkpt>
      <trkpt lat="45.44028" lon="4.66693">
        <ele>577.8896484375</ele>
        <time>2011-08-06T11:00:33Z</time>
      </trkpt>
      <trkpt lat="45.44027" lon="4.66774">
        <ele>579.33154296875</ele>
        <time>2011-08-06T11:00:42Z</time>
      </trkpt>
      <trkpt lat="45.44028" lon="4.66835">
        <ele>580.77368164062</ele>
        <time>2011-08-06T11:00:49Z</time>
      </trkpt>
      <trkpt lat="45.44036" lon="4.66886">
        <ele>581.73486328125</ele>
        <time>2011-08-06T11:00:55Z</time>
      </trkpt>
      <trkpt lat="45.44056" lon="4.66941">
        <ele>582.6962890625</ele>
        <time>2011-08-06T11:01:02Z</time>
      </trkpt>
      <trkpt lat="45.44075" lon="4.66995">
        <ele>584.13818359375</ele>
        <time>2011-08-06T11:01:09Z</time>
      </trkpt>
      <trkpt lat="45.44097" lon="4.67047">
        <ele>585.099609375</ele>
        <time>2011-08-06T11:01:16Z</time>
      </trkpt>
      <trkpt lat="45.44127" lon="4.67095">
        <ele>585.580078125</ele>
        <time>2011-08-06T11:01:23Z</time>
      </trkpt>
      <trkpt lat="45.4416" lon="4.67125">
        <ele>585.099609375</ele>
        <time>2011-08-06T11:01:29Z</time>
      </trkpt>
      <trkpt lat="45.44167" lon="4.67129">
        <ele>585.099609375</ele>
        <time>2011-08-06T11:01:30Z</time>
      </trkpt>
      <trkpt lat="45.44221" lon="4.67143">
        <ele>586.06079101562</ele>
        <time>2011-08-06T11:01:38Z</time>
      </trkpt>
      <trkpt lat="45.44269" lon="4.67145">
        <ele>587.02197265625</ele>
        <time>2011-08-06T11:01:45Z</time>
      </trkpt>
      <trkpt lat="45.44305" lon="4.67153">
        <ele>588.46435546875</ele>
        <time>2011-08-06T11:01:50Z</time>
      </trkpt>
      <trkpt lat="45.44343" lon="4.67177">
        <ele>588.94506835938</ele>
        <time>2011-08-06T11:01:56Z</time>
      </trkpt>
      <trkpt lat="45.44382" lon="4.67196">
        <ele>590.38696289062</ele>
        <time>2011-08-06T11:02:02Z</time>
      </trkpt>
      <trkpt lat="45.44422" lon="4.67206">
        <ele>591.34814453125</ele>
        <time>2011-08-06T11:02:08Z</time>
      </trkpt>
      <trkpt lat="45.44452" lon="4.67228">
        <ele>592.3095703125</ele>
        <time>2011-08-06T11:02:13Z</time>
      </trkpt>
      <trkpt lat="45.44457" lon="4.67235">
        <ele>592.3095703125</ele>
        <time>2011-08-06T11:02:14Z</time>
      </trkpt>
      <trkpt lat="45.44487" lon="4.67295">
        <ele>593.75146484375</ele>
        <time>2011-08-06T11:02:22Z</time>
      </trkpt>
      <trkpt lat="45.44516" lon="4.67352">
        <ele>595.67407226562</ele>
        <time>2011-08-06T11:02:30Z</time>
      </trkpt>
      <trkpt lat="45.44538" lon="4.67387">
        <ele>597.11596679688</ele>
        <time>2011-08-06T11:02:35Z</time>
      </trkpt>
      <trkpt lat="45.44552" lon="4.67428">
        <ele>598.55786132812</ele>
        <time>2011-08-06T11:02:40Z</time>
      </trkpt>
      <trkpt lat="45.44573" lon="4.67496">
        <ele>600</ele>
        <time>2011-08-06T11:02:48Z</time>
      </trkpt>
      <trkpt lat="45.44615" lon="4.67579">
        <ele>601.44189453125</ele>
        <time>2011-08-06T11:02:59Z</time>
      </trkpt>
      <trkpt lat="45.44652" lon="4.67634">
        <ele>601.92260742188</ele>
        <time>2011-08-06T11:03:07Z</time>
      </trkpt>
      <trkpt lat="45.44678" lon="4.67688">
        <ele>603.36450195312</ele>
        <time>2011-08-06T11:03:14Z</time>
      </trkpt>
      <trkpt lat="45.44695" lon="4.67748">
        <ele>604.806640625</ele>
        <time>2011-08-06T11:03:21Z</time>
      </trkpt>
      <trkpt lat="45.44708" lon="4.67798">
        <ele>606.72924804688</ele>
        <time>2011-08-06T11:03:27Z</time>
      </trkpt>
      <trkpt lat="45.44725" lon="4.67867">
        <ele>611.05517578125</ele>
        <time>2011-08-06T11:03:35Z</time>
      </trkpt>
      <trkpt lat="45.44748" lon="4.67915">
        <ele>611.53588867188</ele>
        <time>2011-08-06T11:03:41Z</time>
      </trkpt>
      <trkpt lat="45.44788" lon="4.67994">
        <ele>612.0166015625</ele>
        <time>2011-08-06T11:03:51Z</time>
      </trkpt>
      <trkpt lat="45.44809" lon="4.68044">
        <ele>612.4970703125</ele>
        <time>2011-08-06T11:03:57Z</time>
      </trkpt>
      <trkpt lat="45.44839" lon="4.68116">
        <ele>613.45849609375</ele>
        <time>2011-08-06T11:04:06Z</time>
      </trkpt>
      <trkpt lat="45.44862" lon="4.68173">
        <ele>613.93896484375</ele>
        <time>2011-08-06T11:04:13Z</time>
      </trkpt>
      <trkpt lat="45.44888" lon="4.68228">
        <ele>614.900390625</ele>
        <time>2011-08-06T11:04:20Z</time>
      </trkpt>
      <trkpt lat="45.44904" lon="4.68259">
        <ele>615.38110351562</ele>
        <time>2011-08-06T11:04:24Z</time>
      </trkpt>
      <trkpt lat="45.4493" lon="4.6829">
        <ele>616.34228515625</ele>
        <time>2011-08-06T11:04:29Z</time>
      </trkpt>
      <trkpt lat="45.44972" lon="4.68318">
        <ele>617.3037109375</ele>
        <time>2011-08-06T11:04:36Z</time>
      </trkpt>
      <trkpt lat="45.44998" lon="4.68326">
        <ele>617.7841796875</ele>
        <time>2011-08-06T11:04:40Z</time>
      </trkpt>
      <trkpt lat="45.45031" lon="4.68319">
        <ele>618.26489257812</ele>
        <time>2011-08-06T11:04:45Z</time>
      </trkpt>
      <trkpt lat="45.45053" lon="4.68299">
        <ele>618.74560546875</ele>
        <time>2011-08-06T11:04:49Z</time>
      </trkpt>
      <trkpt lat="45.45069" lon="4.68281">
        <ele>618.74560546875</ele>
        <time>2011-08-06T11:04:52Z</time>
      </trkpt>
      <trkpt lat="45.45099" lon="4.68264">
        <ele>618.74560546875</ele>
        <time>2011-08-06T11:04:57Z</time>
      </trkpt>
      <trkpt lat="45.45124" lon="4.68268">
        <ele>619.70703125</ele>
        <time>2011-08-06T11:05:01Z</time>
      </trkpt>
      <trkpt lat="45.45173" lon="4.6829">
        <ele>621.14916992188</ele>
        <time>2011-08-06T11:05:09Z</time>
      </trkpt>
      <trkpt lat="45.45185" lon="4.68293">
        <ele>621.62963867188</ele>
        <time>2011-08-06T11:05:11Z</time>
      </trkpt>
      <trkpt lat="45.45218" lon="4.68285">
        <ele>622.59106445312</ele>
        <time>2011-08-06T11:05:16Z</time>
      </trkpt>
      <trkpt lat="45.45234" lon="4.68267">
        <ele>622.59106445312</ele>
        <time>2011-08-06T11:05:19Z</time>
      </trkpt>
      <trkpt lat="45.45237" lon="4.68259">
        <ele>622.59106445312</ele>
        <time>2011-08-06T11:05:20Z</time>
      </trkpt>
      <trkpt lat="45.45268" lon="4.68198">
        <ele>625.47485351562</ele>
        <time>2011-08-06T11:05:28Z</time>
      </trkpt>
      <trkpt lat="45.45298" lon="4.6816">
        <ele>631.24291992188</ele>
        <time>2011-08-06T11:05:34Z</time>
      </trkpt>
      <trkpt lat="45.45304" lon="4.68155">
        <ele>631.24291992188</ele>
        <time>2011-08-06T11:05:35Z</time>
      </trkpt>
      <trkpt lat="45.45326" lon="4.68148">
        <ele>630.28149414062</ele>
        <time>2011-08-06T11:05:39Z</time>
      </trkpt>
      <trkpt lat="45.45344" lon="4.68158">
        <ele>629.32006835938</ele>
        <time>2011-08-06T11:05:42Z</time>
      </trkpt>
      <trkpt lat="45.45384" lon="4.68188">
        <ele>631.24291992188</ele>
        <time>2011-08-06T11:05:49Z</time>
      </trkpt>
      <trkpt lat="45.45422" lon="4.68202">
        <ele>632.2041015625</ele>
        <time>2011-08-06T11:05:55Z</time>
      </trkpt>
      <trkpt lat="45.4546" lon="4.68212">
        <ele>631.24291992188</ele>
        <time>2011-08-06T11:06:01Z</time>
      </trkpt>
      <trkpt lat="45.45515" lon="4.68232">
        <ele>629.80078125</ele>
        <time>2011-08-06T11:06:10Z</time>
      </trkpt>
      <trkpt lat="45.45557" lon="4.68259">
        <ele>629.80078125</ele>
        <time>2011-08-06T11:06:17Z</time>
      </trkpt>
      <trkpt lat="45.45562" lon="4.68263">
        <ele>629.80078125</ele>
        <time>2011-08-06T11:06:18Z</time>
      </trkpt>
      <trkpt lat="45.45606" lon="4.68308">
        <ele>631.24291992188</ele>
        <time>2011-08-06T11:06:26Z</time>
      </trkpt>
      <trkpt lat="45.45644" lon="4.68349">
        <ele>636.04956054688</ele>
        <time>2011-08-06T11:06:33Z</time>
      </trkpt>
      <trkpt lat="45.45681" lon="4.68384">
        <ele>635.08813476562</ele>
        <time>2011-08-06T11:06:40Z</time>
      </trkpt>
      <trkpt lat="45.45691" lon="4.68392">
        <ele>633.64599609375</ele>
        <time>2011-08-06T11:06:42Z</time>
      </trkpt>
      <trkpt lat="45.45733" lon="4.68402">
        <ele>633.64599609375</ele>
        <time>2011-08-06T11:06:49Z</time>
      </trkpt>
      <trkpt lat="45.45775" lon="4.684">
        <ele>635.56860351562</ele>
        <time>2011-08-06T11:06:56Z</time>
      </trkpt>
      <trkpt lat="45.4581" lon="4.68383">
        <ele>636.5302734375</ele>
        <time>2011-08-06T11:07:02Z</time>
      </trkpt>
      <trkpt lat="45.45839" lon="4.68363">
        <ele>636.5302734375</ele>
        <time>2011-08-06T11:07:07Z</time>
      </trkpt>
      <trkpt lat="45.4587" lon="4.68334">
        <ele>634.607421875</ele>
        <time>2011-08-06T11:07:13Z</time>
      </trkpt>
      <trkpt lat="45.4588" lon="4.68327">
        <ele>634.12670898438</ele>
        <time>2011-08-06T11:07:15Z</time>
      </trkpt>
      <trkpt lat="45.45906" lon="4.68319">
        <ele>636.5302734375</ele>
        <time>2011-08-06T11:07:19Z</time>
      </trkpt>
      <trkpt lat="45.45958" lon="4.68314">
        <ele>636.04956054688</ele>
        <time>2011-08-06T11:07:27Z</time>
      </trkpt>
      <trkpt lat="45.45989" lon="4.68301">
        <ele>636.5302734375</ele>
        <time>2011-08-06T11:07:32Z</time>
      </trkpt>
      <trkpt lat="45.46028" lon="4.68272">
        <ele>636.04956054688</ele>
        <time>2011-08-06T11:07:39Z</time>
      </trkpt>
      <trkpt lat="45.46067" lon="4.68249">
        <ele>635.08813476562</ele>
        <time>2011-08-06T11:07:46Z</time>
      </trkpt>
      <trkpt lat="45.4611" lon="4.6823">
        <ele>639.4140625</ele>
        <time>2011-08-06T11:07:53Z</time>
      </trkpt>
      <trkpt lat="45.46142" lon="4.68203">
        <ele>638.93359375</ele>
        <time>2011-08-06T11:07:59Z</time>
      </trkpt>
      <trkpt lat="45.46146" lon="4.68197">
        <ele>639.4140625</ele>
        <time>2011-08-06T11:08:00Z</time>
      </trkpt>
      <trkpt lat="45.46179" lon="4.68144">
        <ele>643.25927734375</ele>
        <time>2011-08-06T11:08:08Z</time>
      </trkpt>
      <trkpt lat="45.46216" lon="4.6808">
        <ele>647.58520507812</ele>
        <time>2011-08-06T11:08:17Z</time>
      </trkpt>
      <trkpt lat="45.46238" lon="4.68047">
        <ele>651.9111328125</ele>
        <time>2011-08-06T11:08:22Z</time>
      </trkpt>
      <trkpt lat="45.46255" lon="4.68029">
        <ele>658.15991210938</ele>
        <time>2011-08-06T11:08:25Z</time>
      </trkpt>
      <trkpt lat="45.46267" lon="4.68018">
        <ele>658.64038085938</ele>
        <time>2011-08-06T11:08:27Z</time>
      </trkpt>
      <trkpt lat="45.46302" lon="4.67992">
        <ele>657.67919921875</ele>
        <time>2011-08-06T11:08:33Z</time>
      </trkpt>
      <trkpt lat="45.46338" lon="4.67961">
        <ele>657.19848632812</ele>
        <time>2011-08-06T11:08:39Z</time>
      </trkpt>
      <trkpt lat="45.46389" lon="4.67909">
        <ele>655.75659179688</ele>
        <time>2011-08-06T11:08:48Z</time>
      </trkpt>
      <trkpt lat="45.46426" lon="4.67868">
        <ele>655.75659179688</ele>
        <time>2011-08-06T11:08:55Z</time>
      </trkpt>
      <trkpt lat="45.46432" lon="4.67863">
        <ele>656.23706054688</ele>
        <time>2011-08-06T11:08:56Z</time>
      </trkpt>
    </trkseg>
  </trk>
</gpx>